<?xml version="1.0" encoding="UTF-8" standalone="no" ?>
<gpx xmlns="http://www.topografix.com/GPX/1/1" xmlns:xsi="http://www.w3.org/2001/XMLSchema-instance" xsi:schemaLocation="http://www.topografix.com/GPX/1/1 http://www.topografix.com/GPX/1/1/gpx.xsd" version="1.1" creator="VisuGPX - https://www.visugpx.com">
  <metadata>
    <name>De la plage de Gigaro au Cap Taillat *** (La Croix Valmer 83)</name>
    <desc><![CDATA[Plage de gigaro - Pointe du Bouis - plage du Brouis - cap Lardier - cap Taillat
retour par la route forestière - plage du Brouis  pointe du Brouis - plage Gigaro]]></desc>
  </metadata>
  <trk>
    <name><![CDATA[CIGARO 16 17-25-01]]></name>
    <trkseg>
      <trkpt lat="43.18374" lon="6.60056">
        <ele>8.785313</ele>
        <time>2016-04-30T08:43:27Z</time>
      </trkpt>
      <trkpt lat="43.18364" lon="6.60064">
        <ele>8.092</ele>
      </trkpt>
      <trkpt lat="43.18358" lon="6.60065">
        <ele>7.562875</ele>
      </trkpt>
      <trkpt lat="43.18354" lon="6.60067">
        <ele>7.221375</ele>
      </trkpt>
      <trkpt lat="43.18343" lon="6.60069">
        <ele>6.134687</ele>
      </trkpt>
      <trkpt lat="43.18334" lon="6.60072">
        <ele>5.326562</ele>
      </trkpt>
      <trkpt lat="43.18325" lon="6.60073">
        <ele>4.5205</ele>
      </trkpt>
      <trkpt lat="43.18313" lon="6.60084">
        <ele>3.482687</ele>
      </trkpt>
      <trkpt lat="43.18301" lon="6.60089">
        <ele>2.753438</ele>
      </trkpt>
      <trkpt lat="43.18289" lon="6.60104">
        <ele>2.995312</ele>
      </trkpt>
      <trkpt lat="43.18281" lon="6.60111">
        <ele>3.018594</ele>
      </trkpt>
      <trkpt lat="43.18271" lon="6.60123">
        <ele>3.218875</ele>
      </trkpt>
      <trkpt lat="43.18272" lon="6.60128">
        <ele>3.528</ele>
      </trkpt>
      <trkpt lat="43.1827" lon="6.60134">
        <ele>3.795281</ele>
      </trkpt>
      <trkpt lat="43.18264" lon="6.60142">
        <ele>3.845906</ele>
      </trkpt>
      <trkpt lat="43.18258" lon="6.60151">
        <ele>4.015</ele>
      </trkpt>
      <trkpt lat="43.18252" lon="6.60165">
        <ele>5.822688</ele>
      </trkpt>
      <trkpt lat="43.18249" lon="6.60172">
        <ele>6.888625</ele>
      </trkpt>
      <trkpt lat="43.18243" lon="6.60179">
        <ele>7.517</ele>
      </trkpt>
      <trkpt lat="43.18236" lon="6.60185">
        <ele>8.114437</ele>
      </trkpt>
      <trkpt lat="43.18227" lon="6.60196">
        <ele>9.198188</ele>
      </trkpt>
      <trkpt lat="43.18219" lon="6.60197">
        <ele>8.721906</ele>
        <time>2016-04-30T08:43:28Z</time>
      </trkpt>
      <trkpt lat="43.18219" lon="6.60203">
        <ele>9.68725</ele>
      </trkpt>
      <trkpt lat="43.18223" lon="6.60205">
        <ele>10.259093</ele>
      </trkpt>
      <trkpt lat="43.18223" lon="6.60208">
        <ele>10.772</ele>
      </trkpt>
      <trkpt lat="43.18212" lon="6.60214">
        <ele>11.54275</ele>
      </trkpt>
      <trkpt lat="43.18203" lon="6.60217">
        <ele>11.710813</ele>
      </trkpt>
      <trkpt lat="43.18198" lon="6.60216">
        <ele>10.8225</ele>
      </trkpt>
      <trkpt lat="43.18193" lon="6.60228">
        <ele>14.128625</ele>
      </trkpt>
      <trkpt lat="43.18187" lon="6.60239">
        <ele>17.274876</ele>
      </trkpt>
      <trkpt lat="43.18179" lon="6.60246">
        <ele>18.946751</ele>
      </trkpt>
      <trkpt lat="43.18171" lon="6.60246">
        <ele>18.060812</ele>
      </trkpt>
      <trkpt lat="43.18159" lon="6.60238">
        <ele>14.476</ele>
        <time>2016-04-30T08:43:38Z</time>
      </trkpt>
      <trkpt lat="43.18151" lon="6.60242">
        <ele>15.124</ele>
      </trkpt>
      <trkpt lat="43.1814" lon="6.6025">
        <ele>16.88875</ele>
      </trkpt>
      <trkpt lat="43.18128" lon="6.60258">
        <ele>18.3685</ele>
      </trkpt>
      <trkpt lat="43.18118" lon="6.60264">
        <ele>18.932501</ele>
      </trkpt>
      <trkpt lat="43.1811" lon="6.60273">
        <ele>19.262405</ele>
        <time>2016-04-30T08:43:41Z</time>
      </trkpt>
      <trkpt lat="43.18098" lon="6.60278">
        <ele>17.466249</ele>
        <time>2016-04-30T08:43:50Z</time>
      </trkpt>
      <trkpt lat="43.18088" lon="6.60285">
        <ele>16.190125</ele>
        <time>2016-04-30T08:44:01Z</time>
      </trkpt>
      <trkpt lat="43.18078" lon="6.60289">
        <ele>14.127625</ele>
        <time>2016-04-30T08:44:09Z</time>
      </trkpt>
      <trkpt lat="43.18066" lon="6.60294">
        <ele>-49.37</ele>
        <time>2016-04-30T08:44:20Z</time>
      </trkpt>
      <trkpt lat="43.18065" lon="6.60294">
        <ele>-49.85</ele>
        <time>2016-04-30T08:44:21Z</time>
      </trkpt>
      <trkpt lat="43.18063" lon="6.60297">
        <ele>-48.89</ele>
        <time>2016-04-30T08:44:25Z</time>
      </trkpt>
      <trkpt lat="43.18059" lon="6.60305">
        <ele>-47.45</ele>
        <time>2016-04-30T08:44:31Z</time>
      </trkpt>
      <trkpt lat="43.18058" lon="6.60308">
        <ele>-46.97</ele>
        <time>2016-04-30T08:44:34Z</time>
      </trkpt>
      <trkpt lat="43.1805" lon="6.60306">
        <ele>-44.56</ele>
        <time>2016-04-30T08:44:48Z</time>
      </trkpt>
      <trkpt lat="43.18037" lon="6.60304">
        <ele>-42.64</ele>
        <time>2016-04-30T08:45:01Z</time>
      </trkpt>
      <trkpt lat="43.18032" lon="6.60304">
        <ele>-42.64</ele>
        <time>2016-04-30T08:45:07Z</time>
      </trkpt>
      <trkpt lat="43.18028" lon="6.60305">
        <ele>-42.64</ele>
        <time>2016-04-30T08:45:10Z</time>
      </trkpt>
      <trkpt lat="43.18019" lon="6.60303">
        <ele>-39.28</ele>
        <time>2016-04-30T08:45:23Z</time>
      </trkpt>
      <trkpt lat="43.18018" lon="6.60301">
        <ele>-38.8</ele>
        <time>2016-04-30T08:45:25Z</time>
      </trkpt>
      <trkpt lat="43.18011" lon="6.6029">
        <ele>-37.83</ele>
        <time>2016-04-30T08:45:41Z</time>
      </trkpt>
      <trkpt lat="43.18011" lon="6.6029">
        <ele>-37.83</ele>
        <time>2016-04-30T08:45:55Z</time>
      </trkpt>
      <trkpt lat="43.18004" lon="6.60288">
        <ele>-37.35</ele>
        <time>2016-04-30T08:46:01Z</time>
      </trkpt>
      <trkpt lat="43.17998" lon="6.60286">
        <ele>-36.87</ele>
        <time>2016-04-30T08:46:06Z</time>
      </trkpt>
      <trkpt lat="43.17995" lon="6.60287">
        <ele>-36.39</ele>
        <time>2016-04-30T08:46:09Z</time>
      </trkpt>
      <trkpt lat="43.1799" lon="6.60286">
        <ele>-35.91</ele>
        <time>2016-04-30T08:46:14Z</time>
      </trkpt>
      <trkpt lat="43.17981" lon="6.60284">
        <ele>-33.99</ele>
        <time>2016-04-30T08:46:28Z</time>
      </trkpt>
      <trkpt lat="43.17968" lon="6.60288">
        <ele>-32.55</ele>
        <time>2016-04-30T08:46:38Z</time>
      </trkpt>
      <trkpt lat="43.17957" lon="6.60292">
        <ele>-32.55</ele>
        <time>2016-04-30T08:46:47Z</time>
      </trkpt>
      <trkpt lat="43.17933" lon="6.60292">
        <ele>-31.59</ele>
        <time>2016-04-30T08:47:04Z</time>
      </trkpt>
      <trkpt lat="43.17923" lon="6.60295">
        <ele>-31.11</ele>
        <time>2016-04-30T08:47:11Z</time>
      </trkpt>
      <trkpt lat="43.17917" lon="6.60296">
        <ele>-31.11</ele>
        <time>2016-04-30T08:47:25Z</time>
      </trkpt>
      <trkpt lat="43.17913" lon="6.60299">
        <ele>-30.62</ele>
        <time>2016-04-30T08:47:29Z</time>
      </trkpt>
      <trkpt lat="43.17903" lon="6.60305">
        <ele>-31.11</ele>
        <time>2016-04-30T08:47:40Z</time>
      </trkpt>
      <trkpt lat="43.179" lon="6.60308">
        <ele>-31.11</ele>
        <time>2016-04-30T08:47:43Z</time>
      </trkpt>
      <trkpt lat="43.17899" lon="6.60312">
        <ele>-31.11</ele>
        <time>2016-04-30T08:47:46Z</time>
      </trkpt>
      <trkpt lat="43.17887" lon="6.60323">
        <ele>-29.18</ele>
        <time>2016-04-30T08:48:03Z</time>
      </trkpt>
      <trkpt lat="43.17885" lon="6.60328">
        <ele>-27.26</ele>
        <time>2016-04-30T08:48:12Z</time>
      </trkpt>
      <trkpt lat="43.17874" lon="6.60335">
        <ele>-25.82</ele>
        <time>2016-04-30T08:48:24Z</time>
      </trkpt>
      <trkpt lat="43.17868" lon="6.6034">
        <ele>-24.86</ele>
        <time>2016-04-30T08:48:32Z</time>
      </trkpt>
      <trkpt lat="43.17857" lon="6.60344">
        <ele>-23.9</ele>
        <time>2016-04-30T08:48:46Z</time>
      </trkpt>
      <trkpt lat="43.17856" lon="6.60343">
        <ele>-23.41</ele>
        <time>2016-04-30T08:49:06Z</time>
      </trkpt>
      <trkpt lat="43.17855" lon="6.60343">
        <ele>-22.93</ele>
        <time>2016-04-30T08:49:20Z</time>
      </trkpt>
      <trkpt lat="43.17854" lon="6.60345">
        <ele>-21.97</ele>
        <time>2016-04-30T08:49:35Z</time>
      </trkpt>
      <trkpt lat="43.17853" lon="6.60345">
        <ele>-21.97</ele>
        <time>2016-04-30T08:50:01Z</time>
      </trkpt>
      <trkpt lat="43.17853" lon="6.60346">
        <ele>-21.49</ele>
        <time>2016-04-30T08:50:22Z</time>
      </trkpt>
      <trkpt lat="43.17853" lon="6.60347">
        <ele>-21.49</ele>
        <time>2016-04-30T08:50:40Z</time>
      </trkpt>
      <trkpt lat="43.17851" lon="6.60356">
        <ele>-21.97</ele>
        <time>2016-04-30T08:50:53Z</time>
      </trkpt>
      <trkpt lat="43.17847" lon="6.60361">
        <ele>-22.93</ele>
        <time>2016-04-30T08:51:01Z</time>
      </trkpt>
      <trkpt lat="43.17844" lon="6.60366">
        <ele>-23.41</ele>
        <time>2016-04-30T08:51:05Z</time>
      </trkpt>
      <trkpt lat="43.17841" lon="6.60374">
        <ele>-23.41</ele>
        <time>2016-04-30T08:51:11Z</time>
      </trkpt>
      <trkpt lat="43.17836" lon="6.6038">
        <ele>-24.38</ele>
        <time>2016-04-30T08:51:18Z</time>
      </trkpt>
      <trkpt lat="43.1783" lon="6.60378">
        <ele>-23.9</ele>
        <time>2016-04-30T08:51:23Z</time>
      </trkpt>
      <trkpt lat="43.17829" lon="6.60377">
        <ele>-23.9</ele>
        <time>2016-04-30T08:51:25Z</time>
      </trkpt>
      <trkpt lat="43.17819" lon="6.60377">
        <ele>-24.38</ele>
        <time>2016-04-30T08:51:36Z</time>
      </trkpt>
      <trkpt lat="43.17804" lon="6.60377">
        <ele>-25.82</ele>
        <time>2016-04-30T08:51:49Z</time>
      </trkpt>
      <trkpt lat="43.178" lon="6.60378">
        <ele>-25.34</ele>
        <time>2016-04-30T08:51:52Z</time>
      </trkpt>
      <trkpt lat="43.17783" lon="6.60387">
        <ele>-26.78</ele>
        <time>2016-04-30T08:52:06Z</time>
      </trkpt>
      <trkpt lat="43.17767" lon="6.60395">
        <ele>-27.26</ele>
        <time>2016-04-30T08:52:21Z</time>
      </trkpt>
      <trkpt lat="43.17764" lon="6.60397">
        <ele>-27.26</ele>
        <time>2016-04-30T08:52:23Z</time>
      </trkpt>
      <trkpt lat="43.17752" lon="6.6041">
        <ele>-27.26</ele>
        <time>2016-04-30T08:52:37Z</time>
      </trkpt>
      <trkpt lat="43.17746" lon="6.60422">
        <ele>-26.78</ele>
        <time>2016-04-30T08:52:46Z</time>
      </trkpt>
      <trkpt lat="43.17742" lon="6.60426">
        <ele>-26.3</ele>
        <time>2016-04-30T08:52:51Z</time>
      </trkpt>
      <trkpt lat="43.17723" lon="6.60416">
        <ele>-25.82</ele>
        <time>2016-04-30T08:53:10Z</time>
      </trkpt>
      <trkpt lat="43.17706" lon="6.60411">
        <ele>-26.78</ele>
        <time>2016-04-30T08:53:27Z</time>
      </trkpt>
      <trkpt lat="43.17692" lon="6.60421">
        <ele>-28.7</ele>
        <time>2016-04-30T08:53:41Z</time>
      </trkpt>
      <trkpt lat="43.17682" lon="6.60438">
        <ele>-29.18</ele>
        <time>2016-04-30T08:53:56Z</time>
      </trkpt>
      <trkpt lat="43.17675" lon="6.60447">
        <ele>-30.14</ele>
        <time>2016-04-30T08:54:08Z</time>
      </trkpt>
      <trkpt lat="43.17675" lon="6.60446">
        <ele>-29.66</ele>
        <time>2016-04-30T08:54:21Z</time>
      </trkpt>
      <trkpt lat="43.1767" lon="6.60444">
        <ele>-32.55</ele>
        <time>2016-04-30T08:54:30Z</time>
      </trkpt>
      <trkpt lat="43.17667" lon="6.60446">
        <ele>-33.51</ele>
        <time>2016-04-30T08:54:34Z</time>
      </trkpt>
      <trkpt lat="43.17664" lon="6.60452">
        <ele>-33.99</ele>
        <time>2016-04-30T08:54:38Z</time>
      </trkpt>
      <trkpt lat="43.17656" lon="6.60458">
        <ele>-33.51</ele>
        <time>2016-04-30T08:54:48Z</time>
      </trkpt>
      <trkpt lat="43.17641" lon="6.60456">
        <ele>-33.03</ele>
        <time>2016-04-30T08:55:02Z</time>
      </trkpt>
      <trkpt lat="43.17637" lon="6.60456">
        <ele>-32.55</ele>
        <time>2016-04-30T08:55:06Z</time>
      </trkpt>
      <trkpt lat="43.17634" lon="6.60457">
        <ele>-32.07</ele>
        <time>2016-04-30T08:55:10Z</time>
      </trkpt>
      <trkpt lat="43.17628" lon="6.60458">
        <ele>-31.59</ele>
        <time>2016-04-30T08:55:15Z</time>
      </trkpt>
      <trkpt lat="43.17624" lon="6.6046">
        <ele>-31.59</ele>
        <time>2016-04-30T08:55:18Z</time>
      </trkpt>
      <trkpt lat="43.17612" lon="6.6046">
        <ele>-30.62</ele>
        <time>2016-04-30T08:55:31Z</time>
      </trkpt>
      <trkpt lat="43.17603" lon="6.60459">
        <ele>-29.18</ele>
        <time>2016-04-30T08:55:40Z</time>
      </trkpt>
      <trkpt lat="43.17591" lon="6.60458">
        <ele>-28.7</ele>
        <time>2016-04-30T08:55:53Z</time>
      </trkpt>
      <trkpt lat="43.17589" lon="6.60458">
        <ele>-29.18</ele>
        <time>2016-04-30T08:55:56Z</time>
      </trkpt>
      <trkpt lat="43.17587" lon="6.60457">
        <ele>-30.14</ele>
        <time>2016-04-30T08:55:58Z</time>
      </trkpt>
      <trkpt lat="43.17583" lon="6.60458">
        <ele>-30.62</ele>
        <time>2016-04-30T08:56:05Z</time>
      </trkpt>
      <trkpt lat="43.17578" lon="6.60456">
        <ele>-30.62</ele>
        <time>2016-04-30T08:56:09Z</time>
      </trkpt>
      <trkpt lat="43.17576" lon="6.60456">
        <ele>-30.62</ele>
        <time>2016-04-30T08:56:11Z</time>
      </trkpt>
      <trkpt lat="43.17568" lon="6.60459">
        <ele>-30.62</ele>
        <time>2016-04-30T08:56:21Z</time>
      </trkpt>
      <trkpt lat="43.17561" lon="6.60465">
        <ele>-29.18</ele>
        <time>2016-04-30T08:56:32Z</time>
      </trkpt>
      <trkpt lat="43.17557" lon="6.60473">
        <ele>-29.18</ele>
        <time>2016-04-30T08:56:39Z</time>
      </trkpt>
      <trkpt lat="43.17554" lon="6.60472">
        <ele>-30.14</ele>
        <time>2016-04-30T08:56:42Z</time>
      </trkpt>
      <trkpt lat="43.17545" lon="6.60467">
        <ele>-29.66</ele>
        <time>2016-04-30T08:56:56Z</time>
      </trkpt>
      <trkpt lat="43.17543" lon="6.60467">
        <ele>-30.14</ele>
        <time>2016-04-30T08:56:58Z</time>
      </trkpt>
      <trkpt lat="43.17537" lon="6.60465">
        <ele>-31.11</ele>
        <time>2016-04-30T08:57:03Z</time>
      </trkpt>
      <trkpt lat="43.17536" lon="6.60462">
        <ele>-32.07</ele>
        <time>2016-04-30T08:57:06Z</time>
      </trkpt>
      <trkpt lat="43.17531" lon="6.6045">
        <ele>-31.11</ele>
        <time>2016-04-30T08:57:17Z</time>
      </trkpt>
      <trkpt lat="43.1753" lon="6.60449">
        <ele>-31.11</ele>
        <time>2016-04-30T08:57:21Z</time>
      </trkpt>
      <trkpt lat="43.17528" lon="6.60445">
        <ele>-32.55</ele>
        <time>2016-04-30T08:57:24Z</time>
      </trkpt>
      <trkpt lat="43.17525" lon="6.60441">
        <ele>-32.55</ele>
        <time>2016-04-30T08:57:28Z</time>
      </trkpt>
      <trkpt lat="43.17518" lon="6.60435">
        <ele>-30.14</ele>
        <time>2016-04-30T08:57:39Z</time>
      </trkpt>
      <trkpt lat="43.17518" lon="6.60432">
        <ele>-30.14</ele>
        <time>2016-04-30T08:57:41Z</time>
      </trkpt>
      <trkpt lat="43.17509" lon="6.60428">
        <ele>-27.26</ele>
        <time>2016-04-30T08:57:55Z</time>
      </trkpt>
      <trkpt lat="43.175" lon="6.60434">
        <ele>-24.38</ele>
        <time>2016-04-30T08:58:10Z</time>
      </trkpt>
      <trkpt lat="43.17493" lon="6.60433">
        <ele>-22.45</ele>
        <time>2016-04-30T08:58:22Z</time>
      </trkpt>
      <trkpt lat="43.17488" lon="6.60418">
        <ele>-24.38</ele>
        <time>2016-04-30T08:58:34Z</time>
      </trkpt>
      <trkpt lat="43.17485" lon="6.60401">
        <ele>-25.82</ele>
        <time>2016-04-30T08:58:46Z</time>
      </trkpt>
      <trkpt lat="43.17485" lon="6.60399">
        <ele>-26.78</ele>
        <time>2016-04-30T08:58:58Z</time>
      </trkpt>
      <trkpt lat="43.17488" lon="6.60396">
        <ele>-28.22</ele>
        <time>2016-04-30T08:59:01Z</time>
      </trkpt>
      <trkpt lat="43.1749" lon="6.60394">
        <ele>-29.18</ele>
        <time>2016-04-30T08:59:03Z</time>
      </trkpt>
      <trkpt lat="43.17491" lon="6.60393">
        <ele>-29.66</ele>
        <time>2016-04-30T08:59:04Z</time>
      </trkpt>
      <trkpt lat="43.1749" lon="6.60379">
        <ele>-30.62</ele>
        <time>2016-04-30T08:59:12Z</time>
      </trkpt>
      <trkpt lat="43.17487" lon="6.60371">
        <ele>-31.11</ele>
        <time>2016-04-30T08:59:17Z</time>
      </trkpt>
      <trkpt lat="43.17485" lon="6.60364">
        <ele>-30.14</ele>
        <time>2016-04-30T08:59:21Z</time>
      </trkpt>
      <trkpt lat="43.17481" lon="6.60352">
        <ele>-29.66</ele>
        <time>2016-04-30T08:59:30Z</time>
      </trkpt>
      <trkpt lat="43.17481" lon="6.6034">
        <ele>-29.18</ele>
        <time>2016-04-30T08:59:37Z</time>
      </trkpt>
      <trkpt lat="43.17479" lon="6.60331">
        <ele>-27.26</ele>
        <time>2016-04-30T08:59:49Z</time>
      </trkpt>
      <trkpt lat="43.17476" lon="6.60326">
        <ele>-26.78</ele>
        <time>2016-04-30T08:59:59Z</time>
      </trkpt>
      <trkpt lat="43.17474" lon="6.60317">
        <ele>-26.78</ele>
        <time>2016-04-30T09:00:05Z</time>
      </trkpt>
      <trkpt lat="43.17468" lon="6.6031">
        <ele>-27.74</ele>
        <time>2016-04-30T09:00:11Z</time>
      </trkpt>
      <trkpt lat="43.17458" lon="6.60306">
        <ele>-25.34</ele>
        <time>2016-04-30T09:00:25Z</time>
      </trkpt>
      <trkpt lat="43.17452" lon="6.60307">
        <ele>-23.9</ele>
        <time>2016-04-30T09:00:34Z</time>
      </trkpt>
      <trkpt lat="43.17446" lon="6.6031">
        <ele>-21.49</ele>
        <time>2016-04-30T09:00:43Z</time>
      </trkpt>
      <trkpt lat="43.17435" lon="6.60317">
        <ele>-18.61</ele>
        <time>2016-04-30T09:00:58Z</time>
      </trkpt>
      <trkpt lat="43.17434" lon="6.60318">
        <ele>-18.13</ele>
        <time>2016-04-30T09:00:59Z</time>
      </trkpt>
      <trkpt lat="43.17419" lon="6.60322">
        <ele>-18.13</ele>
        <time>2016-04-30T09:01:14Z</time>
      </trkpt>
      <trkpt lat="43.17418" lon="6.60324">
        <ele>-18.13</ele>
        <time>2016-04-30T09:01:27Z</time>
      </trkpt>
      <trkpt lat="43.17417" lon="6.60324">
        <ele>-18.13</ele>
        <time>2016-04-30T09:01:43Z</time>
      </trkpt>
      <trkpt lat="43.17416" lon="6.60328">
        <ele>-17.65</ele>
        <time>2016-04-30T09:01:57Z</time>
      </trkpt>
      <trkpt lat="43.17416" lon="6.60328">
        <ele>-17.17</ele>
        <time>2016-04-30T09:02:18Z</time>
      </trkpt>
      <trkpt lat="43.17416" lon="6.60328">
        <ele>-17.17</ele>
        <time>2016-04-30T09:02:29Z</time>
      </trkpt>
      <trkpt lat="43.17407" lon="6.6034">
        <ele>-16.21</ele>
        <time>2016-04-30T09:02:43Z</time>
      </trkpt>
      <trkpt lat="43.17406" lon="6.60343">
        <ele>-16.69</ele>
        <time>2016-04-30T09:02:48Z</time>
      </trkpt>
      <trkpt lat="43.17405" lon="6.6035">
        <ele>-17.65</ele>
        <time>2016-04-30T09:02:52Z</time>
      </trkpt>
      <trkpt lat="43.17404" lon="6.6037">
        <ele>-17.17</ele>
        <time>2016-04-30T09:03:05Z</time>
      </trkpt>
      <trkpt lat="43.174" lon="6.60387">
        <ele>-17.17</ele>
        <time>2016-04-30T09:03:21Z</time>
      </trkpt>
      <trkpt lat="43.17399" lon="6.60391">
        <ele>-17.65</ele>
        <time>2016-04-30T09:03:27Z</time>
      </trkpt>
      <trkpt lat="43.17394" lon="6.60411">
        <ele>-14.76</ele>
        <time>2016-04-30T09:03:43Z</time>
      </trkpt>
      <trkpt lat="43.17387" lon="6.60426">
        <ele>-13.32</ele>
        <time>2016-04-30T09:03:58Z</time>
      </trkpt>
      <trkpt lat="43.17388" lon="6.60429">
        <ele>-13.8</ele>
        <time>2016-04-30T09:04:14Z</time>
      </trkpt>
      <trkpt lat="43.17389" lon="6.60437">
        <ele>-17.17</ele>
        <time>2016-04-30T09:04:29Z</time>
      </trkpt>
      <trkpt lat="43.17388" lon="6.60439">
        <ele>-18.13</ele>
        <time>2016-04-30T09:04:32Z</time>
      </trkpt>
      <trkpt lat="43.17385" lon="6.6046">
        <ele>-21.97</ele>
        <time>2016-04-30T09:04:44Z</time>
      </trkpt>
      <trkpt lat="43.17383" lon="6.60488">
        <ele>-22.45</ele>
        <time>2016-04-30T09:04:58Z</time>
      </trkpt>
      <trkpt lat="43.17387" lon="6.60509">
        <ele>-20.05</ele>
        <time>2016-04-30T09:05:09Z</time>
      </trkpt>
      <trkpt lat="43.17386" lon="6.60513">
        <ele>-21.01</ele>
        <time>2016-04-30T09:05:13Z</time>
      </trkpt>
      <trkpt lat="43.17382" lon="6.60526">
        <ele>-20.53</ele>
        <time>2016-04-30T09:05:21Z</time>
      </trkpt>
      <trkpt lat="43.17381" lon="6.60531">
        <ele>-20.53</ele>
        <time>2016-04-30T09:05:24Z</time>
      </trkpt>
      <trkpt lat="43.17379" lon="6.60539">
        <ele>-20.53</ele>
        <time>2016-04-30T09:05:29Z</time>
      </trkpt>
      <trkpt lat="43.17377" lon="6.60547">
        <ele>-20.05</ele>
        <time>2016-04-30T09:05:34Z</time>
      </trkpt>
      <trkpt lat="43.17374" lon="6.60563">
        <ele>-21.01</ele>
        <time>2016-04-30T09:05:47Z</time>
      </trkpt>
      <trkpt lat="43.17372" lon="6.6057">
        <ele>-21.97</ele>
        <time>2016-04-30T09:05:52Z</time>
      </trkpt>
      <trkpt lat="43.17371" lon="6.60592">
        <ele>-21.97</ele>
        <time>2016-04-30T09:06:08Z</time>
      </trkpt>
      <trkpt lat="43.17374" lon="6.60605">
        <ele>-19.09</ele>
        <time>2016-04-30T09:06:24Z</time>
      </trkpt>
      <trkpt lat="43.17376" lon="6.6061">
        <ele>-16.21</ele>
        <time>2016-04-30T09:06:36Z</time>
      </trkpt>
      <trkpt lat="43.17377" lon="6.6061">
        <ele>-15.24</ele>
        <time>2016-04-30T09:06:38Z</time>
      </trkpt>
      <trkpt lat="43.17376" lon="6.60619">
        <ele>-11.88</ele>
        <time>2016-04-30T09:06:51Z</time>
      </trkpt>
      <trkpt lat="43.17374" lon="6.60625">
        <ele>-11.88</ele>
        <time>2016-04-30T09:07:03Z</time>
      </trkpt>
      <trkpt lat="43.17372" lon="6.6063">
        <ele>-14.76</ele>
        <time>2016-04-30T09:07:19Z</time>
      </trkpt>
      <trkpt lat="43.17372" lon="6.60631">
        <ele>-15.72</ele>
        <time>2016-04-30T09:07:22Z</time>
      </trkpt>
      <trkpt lat="43.17367" lon="6.60637">
        <ele>-17.65</ele>
        <time>2016-04-30T09:07:30Z</time>
      </trkpt>
      <trkpt lat="43.17366" lon="6.60641">
        <ele>-18.13</ele>
        <time>2016-04-30T09:07:32Z</time>
      </trkpt>
      <trkpt lat="43.17362" lon="6.60646">
        <ele>-18.13</ele>
        <time>2016-04-30T09:07:37Z</time>
      </trkpt>
      <trkpt lat="43.17362" lon="6.60656">
        <ele>-19.09</ele>
        <time>2016-04-30T09:07:44Z</time>
      </trkpt>
      <trkpt lat="43.17362" lon="6.60667">
        <ele>-19.09</ele>
        <time>2016-04-30T09:07:58Z</time>
      </trkpt>
      <trkpt lat="43.17358" lon="6.60679">
        <ele>-20.53</ele>
        <time>2016-04-30T09:08:05Z</time>
      </trkpt>
      <trkpt lat="43.17355" lon="6.60705">
        <ele>-20.05</ele>
        <time>2016-04-30T09:08:22Z</time>
      </trkpt>
      <trkpt lat="43.17349" lon="6.60727">
        <ele>-20.05</ele>
        <time>2016-04-30T09:08:39Z</time>
      </trkpt>
      <trkpt lat="43.17347" lon="6.60739">
        <ele>-19.57</ele>
        <time>2016-04-30T09:08:47Z</time>
      </trkpt>
      <trkpt lat="43.17338" lon="6.60757">
        <ele>-21.49</ele>
        <time>2016-04-30T09:09:03Z</time>
      </trkpt>
      <trkpt lat="43.17333" lon="6.60766">
        <ele>-20.53</ele>
        <time>2016-04-30T09:09:17Z</time>
      </trkpt>
      <trkpt lat="43.17332" lon="6.60767">
        <ele>-21.49</ele>
        <time>2016-04-30T09:09:31Z</time>
      </trkpt>
      <trkpt lat="43.17332" lon="6.60767">
        <ele>-21.01</ele>
        <time>2016-04-30T09:10:05Z</time>
      </trkpt>
      <trkpt lat="43.17332" lon="6.60768">
        <ele>-20.05</ele>
        <time>2016-04-30T09:10:09Z</time>
      </trkpt>
      <trkpt lat="43.17329" lon="6.60774">
        <ele>-19.57</ele>
        <time>2016-04-30T09:10:15Z</time>
      </trkpt>
      <trkpt lat="43.17329" lon="6.6078">
        <ele>-19.09</ele>
        <time>2016-04-30T09:10:20Z</time>
      </trkpt>
      <trkpt lat="43.17324" lon="6.60798">
        <ele>-16.21</ele>
        <time>2016-04-30T09:10:34Z</time>
      </trkpt>
      <trkpt lat="43.17324" lon="6.60799">
        <ele>-16.21</ele>
        <time>2016-04-30T09:10:35Z</time>
      </trkpt>
      <trkpt lat="43.17323" lon="6.6081">
        <ele>-16.21</ele>
        <time>2016-04-30T09:10:43Z</time>
      </trkpt>
      <trkpt lat="43.17327" lon="6.60843">
        <ele>-15.72</ele>
        <time>2016-04-30T09:11:00Z</time>
      </trkpt>
      <trkpt lat="43.1733" lon="6.60868">
        <ele>-15.72</ele>
        <time>2016-04-30T09:11:13Z</time>
      </trkpt>
      <trkpt lat="43.17328" lon="6.60883">
        <ele>-15.72</ele>
        <time>2016-04-30T09:11:23Z</time>
      </trkpt>
      <trkpt lat="43.17322" lon="6.60878">
        <ele>-16.21</ele>
        <time>2016-04-30T09:11:28Z</time>
      </trkpt>
      <trkpt lat="43.1731" lon="6.60855">
        <ele>-17.17</ele>
        <time>2016-04-30T09:11:44Z</time>
      </trkpt>
      <trkpt lat="43.17299" lon="6.6084">
        <ele>-17.65</ele>
        <time>2016-04-30T09:11:56Z</time>
      </trkpt>
      <trkpt lat="43.17282" lon="6.6084">
        <ele>-19.57</ele>
        <time>2016-04-30T09:12:12Z</time>
      </trkpt>
      <trkpt lat="43.1727" lon="6.60843">
        <ele>-20.53</ele>
        <time>2016-04-30T09:12:24Z</time>
      </trkpt>
      <trkpt lat="43.17253" lon="6.60841">
        <ele>-21.49</ele>
        <time>2016-04-30T09:12:37Z</time>
      </trkpt>
      <trkpt lat="43.17239" lon="6.60842">
        <ele>-21.49</ele>
        <time>2016-04-30T09:12:49Z</time>
      </trkpt>
      <trkpt lat="43.17229" lon="6.60862">
        <ele>-20.05</ele>
        <time>2016-04-30T09:13:05Z</time>
      </trkpt>
      <trkpt lat="43.17223" lon="6.60876">
        <ele>-19.09</ele>
        <time>2016-04-30T09:13:19Z</time>
      </trkpt>
      <trkpt lat="43.17221" lon="6.60878">
        <ele>-17.65</ele>
        <time>2016-04-30T09:13:26Z</time>
      </trkpt>
      <trkpt lat="43.17218" lon="6.60879">
        <ele>-17.17</ele>
        <time>2016-04-30T09:13:30Z</time>
      </trkpt>
      <trkpt lat="43.17214" lon="6.60883">
        <ele>-16.69</ele>
        <time>2016-04-30T09:13:43Z</time>
      </trkpt>
      <trkpt lat="43.1721" lon="6.60883">
        <ele>-17.17</ele>
        <time>2016-04-30T09:13:47Z</time>
      </trkpt>
      <trkpt lat="43.172" lon="6.60881">
        <ele>-16.69</ele>
        <time>2016-04-30T09:13:57Z</time>
      </trkpt>
      <trkpt lat="43.17193" lon="6.60881">
        <ele>-17.17</ele>
        <time>2016-04-30T09:14:03Z</time>
      </trkpt>
      <trkpt lat="43.17189" lon="6.60884">
        <ele>-16.69</ele>
        <time>2016-04-30T09:14:07Z</time>
      </trkpt>
      <trkpt lat="43.17179" lon="6.60881">
        <ele>-17.17</ele>
        <time>2016-04-30T09:14:14Z</time>
      </trkpt>
      <trkpt lat="43.17165" lon="6.6088">
        <ele>-16.21</ele>
        <time>2016-04-30T09:14:26Z</time>
      </trkpt>
      <trkpt lat="43.17152" lon="6.60868">
        <ele>-14.76</ele>
        <time>2016-04-30T09:14:39Z</time>
      </trkpt>
      <trkpt lat="43.17141" lon="6.60854">
        <ele>-13.32</ele>
        <time>2016-04-30T09:14:53Z</time>
      </trkpt>
      <trkpt lat="43.1713" lon="6.60846">
        <ele>-9.96</ele>
        <time>2016-04-30T09:15:09Z</time>
      </trkpt>
      <trkpt lat="43.17125" lon="6.60849">
        <ele>-7.07</ele>
        <time>2016-04-30T09:15:23Z</time>
      </trkpt>
      <trkpt lat="43.17123" lon="6.60849">
        <ele>-3.71</ele>
        <time>2016-04-30T09:15:37Z</time>
      </trkpt>
      <trkpt lat="43.17118" lon="6.60856">
        <ele>-0.82</ele>
        <time>2016-04-30T09:15:52Z</time>
      </trkpt>
      <trkpt lat="43.17111" lon="6.60862">
        <ele>2.06</ele>
        <time>2016-04-30T09:16:08Z</time>
      </trkpt>
      <trkpt lat="43.17104" lon="6.60862">
        <ele>4.94</ele>
        <time>2016-04-30T09:16:22Z</time>
      </trkpt>
      <trkpt lat="43.17099" lon="6.60864">
        <ele>8.31</ele>
        <time>2016-04-30T09:16:38Z</time>
      </trkpt>
      <trkpt lat="43.17089" lon="6.6087">
        <ele>11.19</ele>
        <time>2016-04-30T09:16:54Z</time>
      </trkpt>
      <trkpt lat="43.17086" lon="6.60868">
        <ele>11.67</ele>
        <time>2016-04-30T09:16:59Z</time>
      </trkpt>
      <trkpt lat="43.17072" lon="6.60868">
        <ele>14.08</ele>
        <time>2016-04-30T09:17:15Z</time>
      </trkpt>
      <trkpt lat="43.17068" lon="6.60874">
        <ele>16.96</ele>
        <time>2016-04-30T09:17:30Z</time>
      </trkpt>
      <trkpt lat="43.17064" lon="6.6088">
        <ele>19.84</ele>
        <time>2016-04-30T09:17:44Z</time>
      </trkpt>
      <trkpt lat="43.17058" lon="6.60888">
        <ele>22.73</ele>
        <time>2016-04-30T09:18:00Z</time>
      </trkpt>
      <trkpt lat="43.17049" lon="6.60901">
        <ele>25.13</ele>
        <time>2016-04-30T09:18:15Z</time>
      </trkpt>
      <trkpt lat="43.17037" lon="6.60912">
        <ele>26.57</ele>
        <time>2016-04-30T09:18:31Z</time>
      </trkpt>
      <trkpt lat="43.17032" lon="6.60924">
        <ele>28.98</ele>
        <time>2016-04-30T09:18:47Z</time>
      </trkpt>
      <trkpt lat="43.17027" lon="6.60942">
        <ele>30.42</ele>
        <time>2016-04-30T09:19:02Z</time>
      </trkpt>
      <trkpt lat="43.17024" lon="6.60946">
        <ele>30.42</ele>
        <time>2016-04-30T09:19:06Z</time>
      </trkpt>
      <trkpt lat="43.17014" lon="6.60961">
        <ele>32.82</ele>
        <time>2016-04-30T09:19:22Z</time>
      </trkpt>
      <trkpt lat="43.17013" lon="6.60964">
        <ele>32.82</ele>
        <time>2016-04-30T09:19:25Z</time>
      </trkpt>
      <trkpt lat="43.17001" lon="6.60974">
        <ele>34.74</ele>
        <time>2016-04-30T09:19:41Z</time>
      </trkpt>
      <trkpt lat="43.17" lon="6.60975">
        <ele>35.23</ele>
        <time>2016-04-30T09:19:42Z</time>
      </trkpt>
      <trkpt lat="43.16982" lon="6.60978">
        <ele>35.71</ele>
        <time>2016-04-30T09:19:57Z</time>
      </trkpt>
      <trkpt lat="43.16971" lon="6.60983">
        <ele>37.15</ele>
        <time>2016-04-30T09:20:10Z</time>
      </trkpt>
      <trkpt lat="43.16959" lon="6.60994">
        <ele>39.07</ele>
        <time>2016-04-30T09:20:25Z</time>
      </trkpt>
      <trkpt lat="43.1695" lon="6.61006">
        <ele>41.95</ele>
        <time>2016-04-30T09:20:42Z</time>
      </trkpt>
      <trkpt lat="43.16947" lon="6.61017">
        <ele>44.84</ele>
        <time>2016-04-30T09:20:59Z</time>
      </trkpt>
      <trkpt lat="43.16945" lon="6.61029">
        <ele>47.72</ele>
        <time>2016-04-30T09:21:11Z</time>
      </trkpt>
      <trkpt lat="43.16938" lon="6.61043">
        <ele>51.09</ele>
        <time>2016-04-30T09:21:26Z</time>
      </trkpt>
      <trkpt lat="43.16931" lon="6.61054">
        <ele>53.49</ele>
        <time>2016-04-30T09:21:44Z</time>
      </trkpt>
      <trkpt lat="43.16931" lon="6.61057">
        <ele>55.41</ele>
        <time>2016-04-30T09:22:01Z</time>
      </trkpt>
      <trkpt lat="43.16931" lon="6.61064">
        <ele>58.3</ele>
        <time>2016-04-30T09:22:14Z</time>
      </trkpt>
      <trkpt lat="43.1693" lon="6.61075">
        <ele>61.66</ele>
        <time>2016-04-30T09:22:27Z</time>
      </trkpt>
      <trkpt lat="43.16924" lon="6.61087">
        <ele>64.55</ele>
        <time>2016-04-30T09:22:41Z</time>
      </trkpt>
      <trkpt lat="43.1692" lon="6.61096">
        <ele>67.43</ele>
        <time>2016-04-30T09:22:55Z</time>
      </trkpt>
      <trkpt lat="43.16923" lon="6.61099">
        <ele>70.31</ele>
        <time>2016-04-30T09:23:08Z</time>
      </trkpt>
      <trkpt lat="43.16927" lon="6.61109">
        <ele>73.68</ele>
        <time>2016-04-30T09:23:22Z</time>
      </trkpt>
      <trkpt lat="43.1693" lon="6.61121">
        <ele>76.56</ele>
        <time>2016-04-30T09:23:37Z</time>
      </trkpt>
      <trkpt lat="43.16932" lon="6.61132">
        <ele>79.93</ele>
        <time>2016-04-30T09:23:51Z</time>
      </trkpt>
      <trkpt lat="43.16933" lon="6.61148">
        <ele>82.81</ele>
        <time>2016-04-30T09:24:06Z</time>
      </trkpt>
      <trkpt lat="43.16933" lon="6.6115">
        <ele>82.81</ele>
        <time>2016-04-30T09:24:07Z</time>
      </trkpt>
      <trkpt lat="43.16935" lon="6.61174">
        <ele>82.81</ele>
        <time>2016-04-30T09:24:22Z</time>
      </trkpt>
      <trkpt lat="43.16937" lon="6.61182">
        <ele>82.81</ele>
        <time>2016-04-30T09:24:34Z</time>
      </trkpt>
      <trkpt lat="43.16939" lon="6.61181">
        <ele>82.81</ele>
        <time>2016-04-30T09:25:05Z</time>
      </trkpt>
      <trkpt lat="43.16939" lon="6.61181">
        <ele>83.29</ele>
        <time>2016-04-30T09:25:32Z</time>
      </trkpt>
      <trkpt lat="43.16939" lon="6.61181">
        <ele>83.29</ele>
        <time>2016-04-30T09:26:02Z</time>
      </trkpt>
      <trkpt lat="43.16938" lon="6.61182">
        <ele>83.77</ele>
        <time>2016-04-30T09:26:38Z</time>
      </trkpt>
      <trkpt lat="43.16939" lon="6.61183">
        <ele>84.25</ele>
        <time>2016-04-30T09:27:13Z</time>
      </trkpt>
      <trkpt lat="43.16939" lon="6.61183">
        <ele>84.25</ele>
        <time>2016-04-30T09:27:44Z</time>
      </trkpt>
      <trkpt lat="43.16938" lon="6.61183">
        <ele>85.21</ele>
        <time>2016-04-30T09:28:16Z</time>
      </trkpt>
      <trkpt lat="43.16938" lon="6.61182">
        <ele>85.69</ele>
        <time>2016-04-30T09:28:36Z</time>
      </trkpt>
      <trkpt lat="43.16938" lon="6.61181">
        <ele>85.69</ele>
        <time>2016-04-30T09:29:00Z</time>
      </trkpt>
      <trkpt lat="43.16938" lon="6.61181">
        <ele>85.69</ele>
        <time>2016-04-30T09:29:19Z</time>
      </trkpt>
      <trkpt lat="43.16938" lon="6.61181">
        <ele>86.18</ele>
        <time>2016-04-30T09:29:43Z</time>
      </trkpt>
      <trkpt lat="43.16938" lon="6.61181">
        <ele>85.69</ele>
        <time>2016-04-30T09:30:01Z</time>
      </trkpt>
      <trkpt lat="43.16937" lon="6.6118">
        <ele>85.69</ele>
        <time>2016-04-30T09:30:23Z</time>
      </trkpt>
      <trkpt lat="43.16937" lon="6.6118">
        <ele>86.18</ele>
        <time>2016-04-30T09:30:45Z</time>
      </trkpt>
      <trkpt lat="43.16938" lon="6.61181">
        <ele>85.21</ele>
        <time>2016-04-30T09:31:04Z</time>
      </trkpt>
      <trkpt lat="43.1694" lon="6.61183">
        <ele>85.69</ele>
        <time>2016-04-30T09:31:35Z</time>
      </trkpt>
      <trkpt lat="43.16939" lon="6.61185">
        <ele>86.66</ele>
        <time>2016-04-30T09:31:40Z</time>
      </trkpt>
      <trkpt lat="43.16938" lon="6.61188">
        <ele>86.18</ele>
        <time>2016-04-30T09:31:42Z</time>
      </trkpt>
      <trkpt lat="43.16937" lon="6.6119">
        <ele>86.18</ele>
        <time>2016-04-30T09:31:44Z</time>
      </trkpt>
      <trkpt lat="43.16933" lon="6.61193">
        <ele>86.18</ele>
        <time>2016-04-30T09:31:48Z</time>
      </trkpt>
      <trkpt lat="43.16923" lon="6.61201">
        <ele>85.69</ele>
        <time>2016-04-30T09:31:59Z</time>
      </trkpt>
      <trkpt lat="43.16918" lon="6.61212">
        <ele>85.21</ele>
        <time>2016-04-30T09:32:08Z</time>
      </trkpt>
      <trkpt lat="43.16916" lon="6.61216">
        <ele>85.21</ele>
        <time>2016-04-30T09:32:11Z</time>
      </trkpt>
      <trkpt lat="43.16915" lon="6.61219">
        <ele>85.21</ele>
        <time>2016-04-30T09:32:13Z</time>
      </trkpt>
      <trkpt lat="43.16912" lon="6.61224">
        <ele>85.69</ele>
        <time>2016-04-30T09:32:17Z</time>
      </trkpt>
      <trkpt lat="43.16911" lon="6.61228">
        <ele>85.69</ele>
        <time>2016-04-30T09:32:19Z</time>
      </trkpt>
      <trkpt lat="43.16907" lon="6.61255">
        <ele>85.69</ele>
        <time>2016-04-30T09:32:36Z</time>
      </trkpt>
      <trkpt lat="43.169" lon="6.61275">
        <ele>84.25</ele>
        <time>2016-04-30T09:32:50Z</time>
      </trkpt>
      <trkpt lat="43.16895" lon="6.61277">
        <ele>84.25</ele>
        <time>2016-04-30T09:32:54Z</time>
      </trkpt>
      <trkpt lat="43.16888" lon="6.61281">
        <ele>83.77</ele>
        <time>2016-04-30T09:33:00Z</time>
      </trkpt>
      <trkpt lat="43.16872" lon="6.61295">
        <ele>83.77</ele>
        <time>2016-04-30T09:33:16Z</time>
      </trkpt>
      <trkpt lat="43.16857" lon="6.61313">
        <ele>84.25</ele>
        <time>2016-04-30T09:33:31Z</time>
      </trkpt>
      <trkpt lat="43.16848" lon="6.61326">
        <ele>85.69</ele>
        <time>2016-04-30T09:33:44Z</time>
      </trkpt>
      <trkpt lat="43.16831" lon="6.6134">
        <ele>84.73</ele>
        <time>2016-04-30T09:34:00Z</time>
      </trkpt>
      <trkpt lat="43.16816" lon="6.61358">
        <ele>84.73</ele>
        <time>2016-04-30T09:34:16Z</time>
      </trkpt>
      <trkpt lat="43.16815" lon="6.61359">
        <ele>84.73</ele>
        <time>2016-04-30T09:34:17Z</time>
      </trkpt>
      <trkpt lat="43.16813" lon="6.61361">
        <ele>84.73</ele>
        <time>2016-04-30T09:34:19Z</time>
      </trkpt>
      <trkpt lat="43.16807" lon="6.61367">
        <ele>85.21</ele>
        <time>2016-04-30T09:34:25Z</time>
      </trkpt>
      <trkpt lat="43.16802" lon="6.61372">
        <ele>84.73</ele>
        <time>2016-04-30T09:34:30Z</time>
      </trkpt>
      <trkpt lat="43.16799" lon="6.61375">
        <ele>84.73</ele>
        <time>2016-04-30T09:34:33Z</time>
      </trkpt>
      <trkpt lat="43.16788" lon="6.61398">
        <ele>85.21</ele>
        <time>2016-04-30T09:34:48Z</time>
      </trkpt>
      <trkpt lat="43.16778" lon="6.61418">
        <ele>85.69</ele>
        <time>2016-04-30T09:35:02Z</time>
      </trkpt>
      <trkpt lat="43.16777" lon="6.61421">
        <ele>85.21</ele>
        <time>2016-04-30T09:35:04Z</time>
      </trkpt>
      <trkpt lat="43.16773" lon="6.6144">
        <ele>84.73</ele>
        <time>2016-04-30T09:35:18Z</time>
      </trkpt>
      <trkpt lat="43.16765" lon="6.61468">
        <ele>84.25</ele>
        <time>2016-04-30T09:35:36Z</time>
      </trkpt>
      <trkpt lat="43.16761" lon="6.6148">
        <ele>85.69</ele>
        <time>2016-04-30T09:35:45Z</time>
      </trkpt>
      <trkpt lat="43.16755" lon="6.61492">
        <ele>86.18</ele>
        <time>2016-04-30T09:35:56Z</time>
      </trkpt>
      <trkpt lat="43.16753" lon="6.61496">
        <ele>86.18</ele>
        <time>2016-04-30T09:35:59Z</time>
      </trkpt>
      <trkpt lat="43.16753" lon="6.615">
        <ele>86.18</ele>
        <time>2016-04-30T09:36:01Z</time>
      </trkpt>
      <trkpt lat="43.16753" lon="6.61508">
        <ele>87.14</ele>
        <time>2016-04-30T09:36:07Z</time>
      </trkpt>
      <trkpt lat="43.16747" lon="6.61532">
        <ele>88.1</ele>
        <time>2016-04-30T09:36:24Z</time>
      </trkpt>
      <trkpt lat="43.16746" lon="6.61534">
        <ele>87.14</ele>
        <time>2016-04-30T09:36:26Z</time>
      </trkpt>
      <trkpt lat="43.1674" lon="6.6155">
        <ele>88.1</ele>
        <time>2016-04-30T09:36:41Z</time>
      </trkpt>
      <trkpt lat="43.16737" lon="6.6156">
        <ele>88.1</ele>
        <time>2016-04-30T09:36:47Z</time>
      </trkpt>
      <trkpt lat="43.16733" lon="6.61585">
        <ele>90.02</ele>
        <time>2016-04-30T09:37:04Z</time>
      </trkpt>
      <trkpt lat="43.16732" lon="6.61588">
        <ele>90.02</ele>
        <time>2016-04-30T09:37:06Z</time>
      </trkpt>
      <trkpt lat="43.16718" lon="6.61607">
        <ele>89.06</ele>
        <time>2016-04-30T09:37:22Z</time>
      </trkpt>
      <trkpt lat="43.16705" lon="6.61619">
        <ele>88.1</ele>
        <time>2016-04-30T09:37:35Z</time>
      </trkpt>
      <trkpt lat="43.16697" lon="6.61628">
        <ele>87.14</ele>
        <time>2016-04-30T09:37:43Z</time>
      </trkpt>
      <trkpt lat="43.16693" lon="6.61633">
        <ele>87.14</ele>
        <time>2016-04-30T09:37:47Z</time>
      </trkpt>
      <trkpt lat="43.16689" lon="6.61639">
        <ele>87.62</ele>
        <time>2016-04-30T09:37:52Z</time>
      </trkpt>
      <trkpt lat="43.16676" lon="6.61646">
        <ele>86.66</ele>
        <time>2016-04-30T09:38:05Z</time>
      </trkpt>
      <trkpt lat="43.16666" lon="6.61649">
        <ele>86.18</ele>
        <time>2016-04-30T09:38:12Z</time>
      </trkpt>
      <trkpt lat="43.16659" lon="6.6165">
        <ele>85.69</ele>
        <time>2016-04-30T09:38:18Z</time>
      </trkpt>
      <trkpt lat="43.16645" lon="6.61658">
        <ele>86.18</ele>
        <time>2016-04-30T09:38:30Z</time>
      </trkpt>
      <trkpt lat="43.16637" lon="6.61672">
        <ele>87.62</ele>
        <time>2016-04-30T09:38:42Z</time>
      </trkpt>
      <trkpt lat="43.16635" lon="6.61678">
        <ele>88.1</ele>
        <time>2016-04-30T09:38:46Z</time>
      </trkpt>
      <trkpt lat="43.16622" lon="6.61689">
        <ele>87.62</ele>
        <time>2016-04-30T09:39:00Z</time>
      </trkpt>
      <trkpt lat="43.16611" lon="6.61701">
        <ele>85.69</ele>
        <time>2016-04-30T09:39:13Z</time>
      </trkpt>
      <trkpt lat="43.16603" lon="6.61714">
        <ele>82.33</ele>
        <time>2016-04-30T09:39:26Z</time>
      </trkpt>
      <trkpt lat="43.16594" lon="6.6173">
        <ele>80.41</ele>
        <time>2016-04-30T09:39:40Z</time>
      </trkpt>
      <trkpt lat="43.16585" lon="6.61746">
        <ele>78</ele>
        <time>2016-04-30T09:39:53Z</time>
      </trkpt>
      <trkpt lat="43.16582" lon="6.61748">
        <ele>77.52</ele>
        <time>2016-04-30T09:39:55Z</time>
      </trkpt>
      <trkpt lat="43.16566" lon="6.61757">
        <ele>76.08</ele>
        <time>2016-04-30T09:40:10Z</time>
      </trkpt>
      <trkpt lat="43.16563" lon="6.61758">
        <ele>75.12</ele>
        <time>2016-04-30T09:40:13Z</time>
      </trkpt>
      <trkpt lat="43.1655" lon="6.61765">
        <ele>73.68</ele>
        <time>2016-04-30T09:40:27Z</time>
      </trkpt>
      <trkpt lat="43.16539" lon="6.61776">
        <ele>72.24</ele>
        <time>2016-04-30T09:40:42Z</time>
      </trkpt>
      <trkpt lat="43.16527" lon="6.61781">
        <ele>71.27</ele>
        <time>2016-04-30T09:40:54Z</time>
      </trkpt>
      <trkpt lat="43.16523" lon="6.61785">
        <ele>70.31</ele>
        <time>2016-04-30T09:40:58Z</time>
      </trkpt>
      <trkpt lat="43.16507" lon="6.61799">
        <ele>68.39</ele>
        <time>2016-04-30T09:41:16Z</time>
      </trkpt>
      <trkpt lat="43.16496" lon="6.61807">
        <ele>67.91</ele>
        <time>2016-04-30T09:41:29Z</time>
      </trkpt>
      <trkpt lat="43.16481" lon="6.61818">
        <ele>67.91</ele>
        <time>2016-04-30T09:41:44Z</time>
      </trkpt>
      <trkpt lat="43.16458" lon="6.6182">
        <ele>68.87</ele>
        <time>2016-04-30T09:42:01Z</time>
      </trkpt>
      <trkpt lat="43.16456" lon="6.6182">
        <ele>68.87</ele>
        <time>2016-04-30T09:42:02Z</time>
      </trkpt>
      <trkpt lat="43.16439" lon="6.6183">
        <ele>68.39</ele>
        <time>2016-04-30T09:42:16Z</time>
      </trkpt>
      <trkpt lat="43.16418" lon="6.61852">
        <ele>65.99</ele>
        <time>2016-04-30T09:42:36Z</time>
      </trkpt>
      <trkpt lat="43.16396" lon="6.61858">
        <ele>65.03</ele>
        <time>2016-04-30T09:42:54Z</time>
      </trkpt>
      <trkpt lat="43.16386" lon="6.61858">
        <ele>64.55</ele>
        <time>2016-04-30T09:43:01Z</time>
      </trkpt>
      <trkpt lat="43.16371" lon="6.61866">
        <ele>63.1</ele>
        <time>2016-04-30T09:43:12Z</time>
      </trkpt>
      <trkpt lat="43.16353" lon="6.61876">
        <ele>61.66</ele>
        <time>2016-04-30T09:43:28Z</time>
      </trkpt>
      <trkpt lat="43.16332" lon="6.61891">
        <ele>60.22</ele>
        <time>2016-04-30T09:43:45Z</time>
      </trkpt>
      <trkpt lat="43.16305" lon="6.61898">
        <ele>59.74</ele>
        <time>2016-04-30T09:44:05Z</time>
      </trkpt>
      <trkpt lat="43.16288" lon="6.61893">
        <ele>61.18</ele>
        <time>2016-04-30T09:44:19Z</time>
      </trkpt>
      <trkpt lat="43.16277" lon="6.61893">
        <ele>61.18</ele>
        <time>2016-04-30T09:44:28Z</time>
      </trkpt>
      <trkpt lat="43.16273" lon="6.61898">
        <ele>60.22</ele>
        <time>2016-04-30T09:44:32Z</time>
      </trkpt>
      <trkpt lat="43.16272" lon="6.61901">
        <ele>59.74</ele>
        <time>2016-04-30T09:44:34Z</time>
      </trkpt>
      <trkpt lat="43.1627" lon="6.61907">
        <ele>58.78</ele>
        <time>2016-04-30T09:44:38Z</time>
      </trkpt>
      <trkpt lat="43.16259" lon="6.61918">
        <ele>55.89</ele>
        <time>2016-04-30T09:44:51Z</time>
      </trkpt>
      <trkpt lat="43.16241" lon="6.61935">
        <ele>54.93</ele>
        <time>2016-04-30T09:45:08Z</time>
      </trkpt>
      <trkpt lat="43.16236" lon="6.61941">
        <ele>56.37</ele>
        <time>2016-04-30T09:45:21Z</time>
      </trkpt>
      <trkpt lat="43.16232" lon="6.61943">
        <ele>56.86</ele>
        <time>2016-04-30T09:45:25Z</time>
      </trkpt>
      <trkpt lat="43.16216" lon="6.61944">
        <ele>59.26</ele>
        <time>2016-04-30T09:45:40Z</time>
      </trkpt>
      <trkpt lat="43.16204" lon="6.61945">
        <ele>61.18</ele>
        <time>2016-04-30T09:45:50Z</time>
      </trkpt>
      <trkpt lat="43.16185" lon="6.61946">
        <ele>62.62</ele>
        <time>2016-04-30T09:46:05Z</time>
      </trkpt>
      <trkpt lat="43.16182" lon="6.61946">
        <ele>63.1</ele>
        <time>2016-04-30T09:46:08Z</time>
      </trkpt>
      <trkpt lat="43.16165" lon="6.6194">
        <ele>63.58</ele>
        <time>2016-04-30T09:46:23Z</time>
      </trkpt>
      <trkpt lat="43.16161" lon="6.61939">
        <ele>63.58</ele>
        <time>2016-04-30T09:46:26Z</time>
      </trkpt>
      <trkpt lat="43.16142" lon="6.61938">
        <ele>64.55</ele>
        <time>2016-04-30T09:46:41Z</time>
      </trkpt>
      <trkpt lat="43.16127" lon="6.61952">
        <ele>65.03</ele>
        <time>2016-04-30T09:46:56Z</time>
      </trkpt>
      <trkpt lat="43.16121" lon="6.61976">
        <ele>65.99</ele>
        <time>2016-04-30T09:47:11Z</time>
      </trkpt>
      <trkpt lat="43.16121" lon="6.61978">
        <ele>65.99</ele>
        <time>2016-04-30T09:47:12Z</time>
      </trkpt>
      <trkpt lat="43.16116" lon="6.61985">
        <ele>65.03</ele>
        <time>2016-04-30T09:47:18Z</time>
      </trkpt>
      <trkpt lat="43.16104" lon="6.61982">
        <ele>65.03</ele>
        <time>2016-04-30T09:47:27Z</time>
      </trkpt>
      <trkpt lat="43.16084" lon="6.61976">
        <ele>64.07</ele>
        <time>2016-04-30T09:47:41Z</time>
      </trkpt>
      <trkpt lat="43.16062" lon="6.61976">
        <ele>62.14</ele>
        <time>2016-04-30T09:47:58Z</time>
      </trkpt>
      <trkpt lat="43.16057" lon="6.61973">
        <ele>62.14</ele>
        <time>2016-04-30T09:48:09Z</time>
      </trkpt>
      <trkpt lat="43.16056" lon="6.61972">
        <ele>61.66</ele>
        <time>2016-04-30T09:48:25Z</time>
      </trkpt>
      <trkpt lat="43.16051" lon="6.61972">
        <ele>61.66</ele>
        <time>2016-04-30T09:48:30Z</time>
      </trkpt>
      <trkpt lat="43.16048" lon="6.61971">
        <ele>61.18</ele>
        <time>2016-04-30T09:48:35Z</time>
      </trkpt>
      <trkpt lat="43.16044" lon="6.61977">
        <ele>60.7</ele>
        <time>2016-04-30T09:48:49Z</time>
      </trkpt>
      <trkpt lat="43.1604" lon="6.61979">
        <ele>60.22</ele>
        <time>2016-04-30T09:48:53Z</time>
      </trkpt>
      <trkpt lat="43.16026" lon="6.61995">
        <ele>59.74</ele>
        <time>2016-04-30T09:49:08Z</time>
      </trkpt>
      <trkpt lat="43.16017" lon="6.61993">
        <ele>60.22</ele>
        <time>2016-04-30T09:49:14Z</time>
      </trkpt>
      <trkpt lat="43.16015" lon="6.61988">
        <ele>60.7</ele>
        <time>2016-04-30T09:49:26Z</time>
      </trkpt>
      <trkpt lat="43.16015" lon="6.6199">
        <ele>60.22</ele>
        <time>2016-04-30T09:49:44Z</time>
      </trkpt>
      <trkpt lat="43.16018" lon="6.61994">
        <ele>61.18</ele>
        <time>2016-04-30T09:49:58Z</time>
      </trkpt>
      <trkpt lat="43.16016" lon="6.61994">
        <ele>60.22</ele>
        <time>2016-04-30T09:50:11Z</time>
      </trkpt>
      <trkpt lat="43.16015" lon="6.61994">
        <ele>60.7</ele>
        <time>2016-04-30T09:50:27Z</time>
      </trkpt>
      <trkpt lat="43.16015" lon="6.61993">
        <ele>60.7</ele>
        <time>2016-04-30T09:50:44Z</time>
      </trkpt>
      <trkpt lat="43.16015" lon="6.61993">
        <ele>61.18</ele>
        <time>2016-04-30T09:51:07Z</time>
      </trkpt>
      <trkpt lat="43.16015" lon="6.61993">
        <ele>60.7</ele>
        <time>2016-04-30T09:51:23Z</time>
      </trkpt>
      <trkpt lat="43.16015" lon="6.61993">
        <ele>60.7</ele>
        <time>2016-04-30T09:51:43Z</time>
      </trkpt>
      <trkpt lat="43.16015" lon="6.61993">
        <ele>61.18</ele>
        <time>2016-04-30T09:52:07Z</time>
      </trkpt>
      <trkpt lat="43.16015" lon="6.61989">
        <ele>61.18</ele>
        <time>2016-04-30T09:52:26Z</time>
      </trkpt>
      <trkpt lat="43.16015" lon="6.61989">
        <ele>61.66</ele>
        <time>2016-04-30T09:52:51Z</time>
      </trkpt>
      <trkpt lat="43.16014" lon="6.61989">
        <ele>61.18</ele>
        <time>2016-04-30T09:53:13Z</time>
      </trkpt>
      <trkpt lat="43.16013" lon="6.61989">
        <ele>61.18</ele>
        <time>2016-04-30T09:53:19Z</time>
      </trkpt>
      <trkpt lat="43.16007" lon="6.61993">
        <ele>58.78</ele>
        <time>2016-04-30T09:53:36Z</time>
      </trkpt>
      <trkpt lat="43.16003" lon="6.61999">
        <ele>56.86</ele>
        <time>2016-04-30T09:53:51Z</time>
      </trkpt>
      <trkpt lat="43.16002" lon="6.62002">
        <ele>55.41</ele>
        <time>2016-04-30T09:54:04Z</time>
      </trkpt>
      <trkpt lat="43.16002" lon="6.62003">
        <ele>55.41</ele>
        <time>2016-04-30T09:54:21Z</time>
      </trkpt>
      <trkpt lat="43.16002" lon="6.62003">
        <ele>55.41</ele>
        <time>2016-04-30T09:54:25Z</time>
      </trkpt>
      <trkpt lat="43.16005" lon="6.62005">
        <ele>54.93</ele>
        <time>2016-04-30T09:54:27Z</time>
      </trkpt>
      <trkpt lat="43.1601" lon="6.62008">
        <ele>56.86</ele>
        <time>2016-04-30T09:54:35Z</time>
      </trkpt>
      <trkpt lat="43.16014" lon="6.62014">
        <ele>57.34</ele>
        <time>2016-04-30T09:54:39Z</time>
      </trkpt>
      <trkpt lat="43.16015" lon="6.62019">
        <ele>56.86</ele>
        <time>2016-04-30T09:54:42Z</time>
      </trkpt>
      <trkpt lat="43.1603" lon="6.62029">
        <ele>54.93</ele>
        <time>2016-04-30T09:54:56Z</time>
      </trkpt>
      <trkpt lat="43.16034" lon="6.62033">
        <ele>53.49</ele>
        <time>2016-04-30T09:55:00Z</time>
      </trkpt>
      <trkpt lat="43.16037" lon="6.62039">
        <ele>50.61</ele>
        <time>2016-04-30T09:55:13Z</time>
      </trkpt>
      <trkpt lat="43.16039" lon="6.62046">
        <ele>47.24</ele>
        <time>2016-04-30T09:55:25Z</time>
      </trkpt>
      <trkpt lat="43.16042" lon="6.62053">
        <ele>44.84</ele>
        <time>2016-04-30T09:55:33Z</time>
      </trkpt>
      <trkpt lat="43.16051" lon="6.62062">
        <ele>43.4</ele>
        <time>2016-04-30T09:55:41Z</time>
      </trkpt>
      <trkpt lat="43.16055" lon="6.62068">
        <ele>43.88</ele>
        <time>2016-04-30T09:55:47Z</time>
      </trkpt>
      <trkpt lat="43.1606" lon="6.62068">
        <ele>42.44</ele>
        <time>2016-04-30T09:55:53Z</time>
      </trkpt>
      <trkpt lat="43.16061" lon="6.62071">
        <ele>41.47</ele>
        <time>2016-04-30T09:55:55Z</time>
      </trkpt>
      <trkpt lat="43.16069" lon="6.62084">
        <ele>38.59</ele>
        <time>2016-04-30T09:56:08Z</time>
      </trkpt>
      <trkpt lat="43.1607" lon="6.62087">
        <ele>38.11</ele>
        <time>2016-04-30T09:56:10Z</time>
      </trkpt>
      <trkpt lat="43.16071" lon="6.62098">
        <ele>35.71</ele>
        <time>2016-04-30T09:56:22Z</time>
      </trkpt>
      <trkpt lat="43.16075" lon="6.62105">
        <ele>33.3</ele>
        <time>2016-04-30T09:56:33Z</time>
      </trkpt>
      <trkpt lat="43.16077" lon="6.62111">
        <ele>31.86</ele>
        <time>2016-04-30T09:56:41Z</time>
      </trkpt>
      <trkpt lat="43.16074" lon="6.62129">
        <ele>28.5</ele>
        <time>2016-04-30T09:56:54Z</time>
      </trkpt>
      <trkpt lat="43.16073" lon="6.62134">
        <ele>27.05</ele>
        <time>2016-04-30T09:56:58Z</time>
      </trkpt>
      <trkpt lat="43.16073" lon="6.62139">
        <ele>24.65</ele>
        <time>2016-04-30T09:57:09Z</time>
      </trkpt>
      <trkpt lat="43.16073" lon="6.6214">
        <ele>25.13</ele>
        <time>2016-04-30T09:57:11Z</time>
      </trkpt>
      <trkpt lat="43.16076" lon="6.62144">
        <ele>24.65</ele>
        <time>2016-04-30T09:57:15Z</time>
      </trkpt>
      <trkpt lat="43.1608" lon="6.62148">
        <ele>24.65</ele>
        <time>2016-04-30T09:57:19Z</time>
      </trkpt>
      <trkpt lat="43.16082" lon="6.62153">
        <ele>24.17</ele>
        <time>2016-04-30T09:57:22Z</time>
      </trkpt>
      <trkpt lat="43.16087" lon="6.62161">
        <ele>23.21</ele>
        <time>2016-04-30T09:57:30Z</time>
      </trkpt>
      <trkpt lat="43.16097" lon="6.62167">
        <ele>23.21</ele>
        <time>2016-04-30T09:57:42Z</time>
      </trkpt>
      <trkpt lat="43.16099" lon="6.62168">
        <ele>23.69</ele>
        <time>2016-04-30T09:57:44Z</time>
      </trkpt>
      <trkpt lat="43.1611" lon="6.62185">
        <ele>22.73</ele>
        <time>2016-04-30T09:57:56Z</time>
      </trkpt>
      <trkpt lat="43.1611" lon="6.62186">
        <ele>22.73</ele>
        <time>2016-04-30T09:57:57Z</time>
      </trkpt>
      <trkpt lat="43.16114" lon="6.6219">
        <ele>21.29</ele>
        <time>2016-04-30T09:58:03Z</time>
      </trkpt>
      <trkpt lat="43.16116" lon="6.62191">
        <ele>21.29</ele>
        <time>2016-04-30T09:58:05Z</time>
      </trkpt>
      <trkpt lat="43.16118" lon="6.62194">
        <ele>20.81</ele>
        <time>2016-04-30T09:58:08Z</time>
      </trkpt>
      <trkpt lat="43.16121" lon="6.62196">
        <ele>19.84</ele>
        <time>2016-04-30T09:58:12Z</time>
      </trkpt>
      <trkpt lat="43.16128" lon="6.62197">
        <ele>19.84</ele>
        <time>2016-04-30T09:58:17Z</time>
      </trkpt>
      <trkpt lat="43.16138" lon="6.62198">
        <ele>18.88</ele>
        <time>2016-04-30T09:58:25Z</time>
      </trkpt>
      <trkpt lat="43.1614" lon="6.62202">
        <ele>17.92</ele>
        <time>2016-04-30T09:58:28Z</time>
      </trkpt>
      <trkpt lat="43.16147" lon="6.62196">
        <ele>16.96</ele>
        <time>2016-04-30T09:58:40Z</time>
      </trkpt>
      <trkpt lat="43.16152" lon="6.62188">
        <ele>16.96</ele>
        <time>2016-04-30T09:58:47Z</time>
      </trkpt>
      <trkpt lat="43.16165" lon="6.62187">
        <ele>16</ele>
        <time>2016-04-30T09:58:55Z</time>
      </trkpt>
      <trkpt lat="43.16175" lon="6.62192">
        <ele>15.04</ele>
        <time>2016-04-30T09:59:06Z</time>
      </trkpt>
      <trkpt lat="43.16182" lon="6.62185">
        <ele>13.12</ele>
        <time>2016-04-30T09:59:20Z</time>
      </trkpt>
      <trkpt lat="43.16193" lon="6.6217">
        <ele>10.71</ele>
        <time>2016-04-30T09:59:36Z</time>
      </trkpt>
      <trkpt lat="43.16197" lon="6.62159">
        <ele>7.83</ele>
        <time>2016-04-30T09:59:49Z</time>
      </trkpt>
      <trkpt lat="43.16198" lon="6.6216">
        <ele>5.91</ele>
        <time>2016-04-30T09:59:55Z</time>
      </trkpt>
      <trkpt lat="43.16202" lon="6.62159">
        <ele>5.42</ele>
        <time>2016-04-30T09:59:57Z</time>
      </trkpt>
      <trkpt lat="43.1622" lon="6.62159">
        <ele>4.46</ele>
        <time>2016-04-30T10:00:10Z</time>
      </trkpt>
      <trkpt lat="43.16228" lon="6.62143">
        <ele>6.39</ele>
        <time>2016-04-30T10:00:24Z</time>
      </trkpt>
      <trkpt lat="43.16235" lon="6.62134">
        <ele>5.42</ele>
        <time>2016-04-30T10:00:36Z</time>
      </trkpt>
      <trkpt lat="43.16238" lon="6.62132">
        <ele>4.94</ele>
        <time>2016-04-30T10:00:38Z</time>
      </trkpt>
      <trkpt lat="43.16247" lon="6.62127">
        <ele>5.42</ele>
        <time>2016-04-30T10:00:45Z</time>
      </trkpt>
      <trkpt lat="43.16257" lon="6.62129">
        <ele>2.54</ele>
        <time>2016-04-30T10:00:53Z</time>
      </trkpt>
      <trkpt lat="43.16268" lon="6.62126">
        <ele>1.58</ele>
        <time>2016-04-30T10:01:00Z</time>
      </trkpt>
      <trkpt lat="43.16284" lon="6.62122">
        <ele>1.1</ele>
        <time>2016-04-30T10:01:14Z</time>
      </trkpt>
      <trkpt lat="43.16285" lon="6.6212">
        <ele>1.58</ele>
        <time>2016-04-30T10:01:16Z</time>
      </trkpt>
      <trkpt lat="43.16294" lon="6.62124">
        <ele>1.1</ele>
        <time>2016-04-30T10:01:28Z</time>
      </trkpt>
      <trkpt lat="43.16294" lon="6.62127">
        <ele>0.14</ele>
        <time>2016-04-30T10:01:31Z</time>
      </trkpt>
      <trkpt lat="43.16302" lon="6.62129">
        <ele>-0.82</ele>
        <time>2016-04-30T10:01:38Z</time>
      </trkpt>
      <trkpt lat="43.16317" lon="6.62134">
        <ele>-0.82</ele>
        <time>2016-04-30T10:01:50Z</time>
      </trkpt>
      <trkpt lat="43.16323" lon="6.6214">
        <ele>-0.82</ele>
        <time>2016-04-30T10:02:02Z</time>
      </trkpt>
      <trkpt lat="43.16324" lon="6.62141">
        <ele>-0.82</ele>
        <time>2016-04-30T10:02:05Z</time>
      </trkpt>
      <trkpt lat="43.16329" lon="6.62143">
        <ele>0.62</ele>
        <time>2016-04-30T10:02:09Z</time>
      </trkpt>
      <trkpt lat="43.16341" lon="6.62147">
        <ele>1.58</ele>
        <time>2016-04-30T10:02:15Z</time>
      </trkpt>
      <trkpt lat="43.16346" lon="6.62144">
        <ele>2.06</ele>
        <time>2016-04-30T10:02:19Z</time>
      </trkpt>
      <trkpt lat="43.16352" lon="6.6214">
        <ele>2.54</ele>
        <time>2016-04-30T10:02:24Z</time>
      </trkpt>
      <trkpt lat="43.16364" lon="6.62145">
        <ele>3.5</ele>
        <time>2016-04-30T10:02:33Z</time>
      </trkpt>
      <trkpt lat="43.16367" lon="6.62148">
        <ele>3.02</ele>
        <time>2016-04-30T10:02:36Z</time>
      </trkpt>
      <trkpt lat="43.16376" lon="6.62153">
        <ele>2.06</ele>
        <time>2016-04-30T10:02:44Z</time>
      </trkpt>
      <trkpt lat="43.16381" lon="6.6216">
        <ele>0.62</ele>
        <time>2016-04-30T10:02:48Z</time>
      </trkpt>
      <trkpt lat="43.16385" lon="6.62167">
        <ele>0.62</ele>
        <time>2016-04-30T10:02:53Z</time>
      </trkpt>
      <trkpt lat="43.16395" lon="6.62176">
        <ele>1.1</ele>
        <time>2016-04-30T10:03:05Z</time>
      </trkpt>
      <trkpt lat="43.16399" lon="6.62176">
        <ele>1.1</ele>
        <time>2016-04-30T10:03:09Z</time>
      </trkpt>
      <trkpt lat="43.16406" lon="6.62178">
        <ele>0.14</ele>
        <time>2016-04-30T10:03:14Z</time>
      </trkpt>
      <trkpt lat="43.16423" lon="6.6218">
        <ele>1.1</ele>
        <time>2016-04-30T10:03:30Z</time>
      </trkpt>
      <trkpt lat="43.16439" lon="6.62187">
        <ele>2.06</ele>
        <time>2016-04-30T10:03:44Z</time>
      </trkpt>
      <trkpt lat="43.16449" lon="6.62195">
        <ele>0.62</ele>
        <time>2016-04-30T10:03:57Z</time>
      </trkpt>
      <trkpt lat="43.1645" lon="6.62195">
        <ele>0.62</ele>
        <time>2016-04-30T10:04:04Z</time>
      </trkpt>
      <trkpt lat="43.16458" lon="6.622">
        <ele>0.62</ele>
        <time>2016-04-30T10:04:16Z</time>
      </trkpt>
      <trkpt lat="43.1646" lon="6.62201">
        <ele>0.62</ele>
        <time>2016-04-30T10:04:18Z</time>
      </trkpt>
      <trkpt lat="43.16462" lon="6.62204">
        <ele>1.1</ele>
        <time>2016-04-30T10:04:31Z</time>
      </trkpt>
      <trkpt lat="43.16462" lon="6.62204">
        <ele>1.58</ele>
        <time>2016-04-30T10:04:47Z</time>
      </trkpt>
      <trkpt lat="43.16463" lon="6.62204">
        <ele>1.1</ele>
        <time>2016-04-30T10:05:05Z</time>
      </trkpt>
      <trkpt lat="43.16463" lon="6.62205">
        <ele>1.1</ele>
        <time>2016-04-30T10:05:20Z</time>
      </trkpt>
      <trkpt lat="43.16464" lon="6.62205">
        <ele>1.58</ele>
        <time>2016-04-30T10:05:35Z</time>
      </trkpt>
      <trkpt lat="43.16464" lon="6.62205">
        <ele>1.1</ele>
        <time>2016-04-30T10:05:53Z</time>
      </trkpt>
      <trkpt lat="43.16464" lon="6.62206">
        <ele>1.1</ele>
        <time>2016-04-30T10:06:11Z</time>
      </trkpt>
      <trkpt lat="43.16465" lon="6.62205">
        <ele>1.1</ele>
        <time>2016-04-30T10:06:31Z</time>
      </trkpt>
      <trkpt lat="43.16466" lon="6.62206">
        <ele>1.58</ele>
        <time>2016-04-30T10:06:32Z</time>
      </trkpt>
      <trkpt lat="43.16469" lon="6.62208">
        <ele>1.58</ele>
        <time>2016-04-30T10:06:36Z</time>
      </trkpt>
      <trkpt lat="43.16478" lon="6.62219">
        <ele>2.06</ele>
        <time>2016-04-30T10:06:47Z</time>
      </trkpt>
      <trkpt lat="43.16482" lon="6.62224">
        <ele>1.58</ele>
        <time>2016-04-30T10:06:52Z</time>
      </trkpt>
      <trkpt lat="43.16485" lon="6.62227">
        <ele>2.54</ele>
        <time>2016-04-30T10:06:57Z</time>
      </trkpt>
      <trkpt lat="43.16486" lon="6.62231">
        <ele>2.54</ele>
        <time>2016-04-30T10:06:59Z</time>
      </trkpt>
      <trkpt lat="43.16491" lon="6.62235">
        <ele>2.54</ele>
        <time>2016-04-30T10:07:04Z</time>
      </trkpt>
      <trkpt lat="43.16495" lon="6.62236">
        <ele>2.54</ele>
        <time>2016-04-30T10:07:07Z</time>
      </trkpt>
      <trkpt lat="43.16503" lon="6.62246">
        <ele>2.54</ele>
        <time>2016-04-30T10:07:18Z</time>
      </trkpt>
      <trkpt lat="43.16518" lon="6.62257">
        <ele>3.5</ele>
        <time>2016-04-30T10:07:31Z</time>
      </trkpt>
      <trkpt lat="43.1652" lon="6.6226">
        <ele>3.98</ele>
        <time>2016-04-30T10:07:33Z</time>
      </trkpt>
      <trkpt lat="43.16522" lon="6.62267">
        <ele>3.98</ele>
        <time>2016-04-30T10:07:37Z</time>
      </trkpt>
      <trkpt lat="43.16535" lon="6.62272">
        <ele>5.42</ele>
        <time>2016-04-30T10:07:48Z</time>
      </trkpt>
      <trkpt lat="43.16537" lon="6.62281">
        <ele>3.02</ele>
        <time>2016-04-30T10:07:56Z</time>
      </trkpt>
      <trkpt lat="43.16538" lon="6.62283">
        <ele>2.54</ele>
        <time>2016-04-30T10:07:58Z</time>
      </trkpt>
      <trkpt lat="43.16552" lon="6.62294">
        <ele>2.06</ele>
        <time>2016-04-30T10:08:10Z</time>
      </trkpt>
      <trkpt lat="43.16561" lon="6.62305">
        <ele>3.5</ele>
        <time>2016-04-30T10:08:20Z</time>
      </trkpt>
      <trkpt lat="43.16568" lon="6.62325">
        <ele>1.58</ele>
        <time>2016-04-30T10:08:34Z</time>
      </trkpt>
      <trkpt lat="43.16569" lon="6.62326">
        <ele>1.58</ele>
        <time>2016-04-30T10:08:35Z</time>
      </trkpt>
      <trkpt lat="43.16571" lon="6.62329">
        <ele>0.62</ele>
        <time>2016-04-30T10:08:38Z</time>
      </trkpt>
      <trkpt lat="43.16575" lon="6.62334">
        <ele>1.1</ele>
        <time>2016-04-30T10:08:43Z</time>
      </trkpt>
      <trkpt lat="43.16578" lon="6.62339">
        <ele>0.62</ele>
        <time>2016-04-30T10:08:46Z</time>
      </trkpt>
      <trkpt lat="43.16586" lon="6.62351">
        <ele>0.14</ele>
        <time>2016-04-30T10:08:55Z</time>
      </trkpt>
      <trkpt lat="43.16589" lon="6.62354">
        <ele>0.14</ele>
        <time>2016-04-30T10:08:58Z</time>
      </trkpt>
      <trkpt lat="43.16602" lon="6.62368">
        <ele>-0.34</ele>
        <time>2016-04-30T10:09:12Z</time>
      </trkpt>
      <trkpt lat="43.16602" lon="6.62377">
        <ele>-1.79</ele>
        <time>2016-04-30T10:09:18Z</time>
      </trkpt>
      <trkpt lat="43.16602" lon="6.62385">
        <ele>-2.27</ele>
        <time>2016-04-30T10:09:23Z</time>
      </trkpt>
      <trkpt lat="43.16606" lon="6.62389">
        <ele>-1.3</ele>
        <time>2016-04-30T10:09:36Z</time>
      </trkpt>
      <trkpt lat="43.16607" lon="6.62395">
        <ele>0.14</ele>
        <time>2016-04-30T10:09:49Z</time>
      </trkpt>
      <trkpt lat="43.16606" lon="6.62407">
        <ele>2.54</ele>
        <time>2016-04-30T10:10:00Z</time>
      </trkpt>
      <trkpt lat="43.16611" lon="6.62415">
        <ele>5.42</ele>
        <time>2016-04-30T10:10:12Z</time>
      </trkpt>
      <trkpt lat="43.16616" lon="6.6243">
        <ele>7.83</ele>
        <time>2016-04-30T10:10:27Z</time>
      </trkpt>
      <trkpt lat="43.16623" lon="6.6244">
        <ele>11.19</ele>
        <time>2016-04-30T10:10:41Z</time>
      </trkpt>
      <trkpt lat="43.1663" lon="6.62453">
        <ele>14.08</ele>
        <time>2016-04-30T10:10:57Z</time>
      </trkpt>
      <trkpt lat="43.1663" lon="6.62457">
        <ele>14.56</ele>
        <time>2016-04-30T10:11:01Z</time>
      </trkpt>
      <trkpt lat="43.16637" lon="6.62467">
        <ele>15.52</ele>
        <time>2016-04-30T10:11:16Z</time>
      </trkpt>
      <trkpt lat="43.16638" lon="6.6247">
        <ele>15.52</ele>
        <time>2016-04-30T10:11:19Z</time>
      </trkpt>
      <trkpt lat="43.16642" lon="6.62496">
        <ele>14.08</ele>
        <time>2016-04-30T10:11:35Z</time>
      </trkpt>
      <trkpt lat="43.16643" lon="6.62504">
        <ele>14.56</ele>
        <time>2016-04-30T10:11:41Z</time>
      </trkpt>
      <trkpt lat="43.16639" lon="6.62523">
        <ele>14.08</ele>
        <time>2016-04-30T10:11:57Z</time>
      </trkpt>
      <trkpt lat="43.16638" lon="6.62528">
        <ele>14.56</ele>
        <time>2016-04-30T10:12:00Z</time>
      </trkpt>
      <trkpt lat="43.16634" lon="6.62537">
        <ele>15.04</ele>
        <time>2016-04-30T10:12:07Z</time>
      </trkpt>
      <trkpt lat="43.16637" lon="6.62553">
        <ele>16</ele>
        <time>2016-04-30T10:12:20Z</time>
      </trkpt>
      <trkpt lat="43.16642" lon="6.62562">
        <ele>16.96</ele>
        <time>2016-04-30T10:12:28Z</time>
      </trkpt>
      <trkpt lat="43.1665" lon="6.62567">
        <ele>18.88</ele>
        <time>2016-04-30T10:12:37Z</time>
      </trkpt>
      <trkpt lat="43.16652" lon="6.62569">
        <ele>19.36</ele>
        <time>2016-04-30T10:12:40Z</time>
      </trkpt>
      <trkpt lat="43.16654" lon="6.62575">
        <ele>20.32</ele>
        <time>2016-04-30T10:12:44Z</time>
      </trkpt>
      <trkpt lat="43.16656" lon="6.62576">
        <ele>20.81</ele>
        <time>2016-04-30T10:12:47Z</time>
      </trkpt>
      <trkpt lat="43.16662" lon="6.62581">
        <ele>21.77</ele>
        <time>2016-04-30T10:12:53Z</time>
      </trkpt>
      <trkpt lat="43.16666" lon="6.62589">
        <ele>22.25</ele>
        <time>2016-04-30T10:12:59Z</time>
      </trkpt>
      <trkpt lat="43.16677" lon="6.62597">
        <ele>24.17</ele>
        <time>2016-04-30T10:13:10Z</time>
      </trkpt>
      <trkpt lat="43.16677" lon="6.62604">
        <ele>23.69</ele>
        <time>2016-04-30T10:13:15Z</time>
      </trkpt>
      <trkpt lat="43.16679" lon="6.62609">
        <ele>22.73</ele>
        <time>2016-04-30T10:13:29Z</time>
      </trkpt>
      <trkpt lat="43.1668" lon="6.6261">
        <ele>22.25</ele>
        <time>2016-04-30T10:13:47Z</time>
      </trkpt>
      <trkpt lat="43.16682" lon="6.6261">
        <ele>22.25</ele>
        <time>2016-04-30T10:13:49Z</time>
      </trkpt>
      <trkpt lat="43.16685" lon="6.62609">
        <ele>22.25</ele>
        <time>2016-04-30T10:13:52Z</time>
      </trkpt>
      <trkpt lat="43.16688" lon="6.6261">
        <ele>23.21</ele>
        <time>2016-04-30T10:13:55Z</time>
      </trkpt>
      <trkpt lat="43.16698" lon="6.62616">
        <ele>24.17</ele>
        <time>2016-04-30T10:14:04Z</time>
      </trkpt>
      <trkpt lat="43.16709" lon="6.62624">
        <ele>27.05</ele>
        <time>2016-04-30T10:14:17Z</time>
      </trkpt>
      <trkpt lat="43.16717" lon="6.62629">
        <ele>28.5</ele>
        <time>2016-04-30T10:14:30Z</time>
      </trkpt>
      <trkpt lat="43.16725" lon="6.62631">
        <ele>28.98</ele>
        <time>2016-04-30T10:14:39Z</time>
      </trkpt>
      <trkpt lat="43.16742" lon="6.62629">
        <ele>29.46</ele>
        <time>2016-04-30T10:14:53Z</time>
      </trkpt>
      <trkpt lat="43.16758" lon="6.62625">
        <ele>30.42</ele>
        <time>2016-04-30T10:15:05Z</time>
      </trkpt>
      <trkpt lat="43.16768" lon="6.62625">
        <ele>31.38</ele>
        <time>2016-04-30T10:15:14Z</time>
      </trkpt>
      <trkpt lat="43.16779" lon="6.62635">
        <ele>29.46</ele>
        <time>2016-04-30T10:15:29Z</time>
      </trkpt>
      <trkpt lat="43.16781" lon="6.62641">
        <ele>28.02</ele>
        <time>2016-04-30T10:15:35Z</time>
      </trkpt>
      <trkpt lat="43.16787" lon="6.62651">
        <ele>25.13</ele>
        <time>2016-04-30T10:15:47Z</time>
      </trkpt>
      <trkpt lat="43.16794" lon="6.62658">
        <ele>21.77</ele>
        <time>2016-04-30T10:15:57Z</time>
      </trkpt>
      <trkpt lat="43.16795" lon="6.62659">
        <ele>22.73</ele>
        <time>2016-04-30T10:15:58Z</time>
      </trkpt>
      <trkpt lat="43.16806" lon="6.62676">
        <ele>18.4</ele>
        <time>2016-04-30T10:16:12Z</time>
      </trkpt>
      <trkpt lat="43.16815" lon="6.62689">
        <ele>15.04</ele>
        <time>2016-04-30T10:16:24Z</time>
      </trkpt>
      <trkpt lat="43.16818" lon="6.62693">
        <ele>12.63</ele>
        <time>2016-04-30T10:16:33Z</time>
      </trkpt>
      <trkpt lat="43.16819" lon="6.62697">
        <ele>11.19</ele>
        <time>2016-04-30T10:16:37Z</time>
      </trkpt>
      <trkpt lat="43.16825" lon="6.62703">
        <ele>9.75</ele>
        <time>2016-04-30T10:16:43Z</time>
      </trkpt>
      <trkpt lat="43.16829" lon="6.62702">
        <ele>9.27</ele>
        <time>2016-04-30T10:16:45Z</time>
      </trkpt>
      <trkpt lat="43.16832" lon="6.62704">
        <ele>9.27</ele>
        <time>2016-04-30T10:16:48Z</time>
      </trkpt>
      <trkpt lat="43.16844" lon="6.62713">
        <ele>7.35</ele>
        <time>2016-04-30T10:16:59Z</time>
      </trkpt>
      <trkpt lat="43.16851" lon="6.62721">
        <ele>5.91</ele>
        <time>2016-04-30T10:17:06Z</time>
      </trkpt>
      <trkpt lat="43.16862" lon="6.62724">
        <ele>2.54</ele>
        <time>2016-04-30T10:17:16Z</time>
      </trkpt>
      <trkpt lat="43.16869" lon="6.62725">
        <ele>3.98</ele>
        <time>2016-04-30T10:17:23Z</time>
      </trkpt>
      <trkpt lat="43.16874" lon="6.62733">
        <ele>4.46</ele>
        <time>2016-04-30T10:17:29Z</time>
      </trkpt>
      <trkpt lat="43.16875" lon="6.62739">
        <ele>3.98</ele>
        <time>2016-04-30T10:17:33Z</time>
      </trkpt>
      <trkpt lat="43.16887" lon="6.62746">
        <ele>2.06</ele>
        <time>2016-04-30T10:17:45Z</time>
      </trkpt>
      <trkpt lat="43.169" lon="6.62758">
        <ele>3.5</ele>
        <time>2016-04-30T10:17:57Z</time>
      </trkpt>
      <trkpt lat="43.16908" lon="6.62765">
        <ele>4.46</ele>
        <time>2016-04-30T10:18:04Z</time>
      </trkpt>
      <trkpt lat="43.16914" lon="6.62774">
        <ele>8.31</ele>
        <time>2016-04-30T10:18:14Z</time>
      </trkpt>
      <trkpt lat="43.16917" lon="6.62779">
        <ele>8.79</ele>
        <time>2016-04-30T10:18:20Z</time>
      </trkpt>
      <trkpt lat="43.16919" lon="6.62782">
        <ele>7.83</ele>
        <time>2016-04-30T10:18:22Z</time>
      </trkpt>
      <trkpt lat="43.16921" lon="6.62787">
        <ele>7.35</ele>
        <time>2016-04-30T10:18:26Z</time>
      </trkpt>
      <trkpt lat="43.16929" lon="6.62803">
        <ele>10.23</ele>
        <time>2016-04-30T10:18:40Z</time>
      </trkpt>
      <trkpt lat="43.16936" lon="6.62804">
        <ele>13.6</ele>
        <time>2016-04-30T10:18:51Z</time>
      </trkpt>
      <trkpt lat="43.16941" lon="6.62803">
        <ele>15.52</ele>
        <time>2016-04-30T10:18:58Z</time>
      </trkpt>
      <trkpt lat="43.16942" lon="6.62796">
        <ele>18.4</ele>
        <time>2016-04-30T10:19:11Z</time>
      </trkpt>
      <trkpt lat="43.16948" lon="6.62795">
        <ele>20.81</ele>
        <time>2016-04-30T10:19:24Z</time>
      </trkpt>
      <trkpt lat="43.16954" lon="6.62792">
        <ele>24.17</ele>
        <time>2016-04-30T10:19:36Z</time>
      </trkpt>
      <trkpt lat="43.16956" lon="6.62787">
        <ele>25.61</ele>
        <time>2016-04-30T10:19:43Z</time>
      </trkpt>
      <trkpt lat="43.16959" lon="6.62792">
        <ele>28.02</ele>
        <time>2016-04-30T10:19:55Z</time>
      </trkpt>
      <trkpt lat="43.16964" lon="6.628">
        <ele>30.42</ele>
        <time>2016-04-30T10:20:08Z</time>
      </trkpt>
      <trkpt lat="43.16967" lon="6.62807">
        <ele>32.34</ele>
        <time>2016-04-30T10:20:18Z</time>
      </trkpt>
      <trkpt lat="43.16971" lon="6.62817">
        <ele>35.71</ele>
        <time>2016-04-30T10:20:30Z</time>
      </trkpt>
      <trkpt lat="43.16971" lon="6.62819">
        <ele>35.71</ele>
        <time>2016-04-30T10:20:31Z</time>
      </trkpt>
      <trkpt lat="43.16972" lon="6.62825">
        <ele>36.67</ele>
        <time>2016-04-30T10:20:35Z</time>
      </trkpt>
      <trkpt lat="43.16976" lon="6.6283">
        <ele>38.11</ele>
        <time>2016-04-30T10:20:43Z</time>
      </trkpt>
      <trkpt lat="43.16979" lon="6.62833">
        <ele>39.07</ele>
        <time>2016-04-30T10:20:46Z</time>
      </trkpt>
      <trkpt lat="43.16982" lon="6.62842">
        <ele>39.07</ele>
        <time>2016-04-30T10:20:51Z</time>
      </trkpt>
      <trkpt lat="43.16982" lon="6.62855">
        <ele>37.63</ele>
        <time>2016-04-30T10:20:59Z</time>
      </trkpt>
      <trkpt lat="43.16986" lon="6.62868">
        <ele>34.74</ele>
        <time>2016-04-30T10:21:12Z</time>
      </trkpt>
      <trkpt lat="43.16986" lon="6.62872">
        <ele>33.78</ele>
        <time>2016-04-30T10:21:16Z</time>
      </trkpt>
      <trkpt lat="43.16986" lon="6.62875">
        <ele>32.82</ele>
        <time>2016-04-30T10:21:18Z</time>
      </trkpt>
      <trkpt lat="43.16988" lon="6.62889">
        <ele>30.42</ele>
        <time>2016-04-30T10:21:30Z</time>
      </trkpt>
      <trkpt lat="43.16999" lon="6.62894">
        <ele>29.46</ele>
        <time>2016-04-30T10:21:37Z</time>
      </trkpt>
      <trkpt lat="43.17002" lon="6.62896">
        <ele>29.46</ele>
        <time>2016-04-30T10:21:40Z</time>
      </trkpt>
      <trkpt lat="43.17008" lon="6.62897">
        <ele>30.9</ele>
        <time>2016-04-30T10:21:45Z</time>
      </trkpt>
      <trkpt lat="43.17011" lon="6.629">
        <ele>31.86</ele>
        <time>2016-04-30T10:21:48Z</time>
      </trkpt>
      <trkpt lat="43.17019" lon="6.62919">
        <ele>31.38</ele>
        <time>2016-04-30T10:22:00Z</time>
      </trkpt>
      <trkpt lat="43.17017" lon="6.6293">
        <ele>28.02</ele>
        <time>2016-04-30T10:22:11Z</time>
      </trkpt>
      <trkpt lat="43.17014" lon="6.62931">
        <ele>25.61</ele>
        <time>2016-04-30T10:22:16Z</time>
      </trkpt>
      <trkpt lat="43.17011" lon="6.62933">
        <ele>24.17</ele>
        <time>2016-04-30T10:22:19Z</time>
      </trkpt>
      <trkpt lat="43.1701" lon="6.62936">
        <ele>23.69</ele>
        <time>2016-04-30T10:22:22Z</time>
      </trkpt>
      <trkpt lat="43.1701" lon="6.62944">
        <ele>21.77</ele>
        <time>2016-04-30T10:22:28Z</time>
      </trkpt>
      <trkpt lat="43.17004" lon="6.62947">
        <ele>18.88</ele>
        <time>2016-04-30T10:22:34Z</time>
      </trkpt>
      <trkpt lat="43.17" lon="6.62947">
        <ele>16</ele>
        <time>2016-04-30T10:22:38Z</time>
      </trkpt>
      <trkpt lat="43.16994" lon="6.62949">
        <ele>13.12</ele>
        <time>2016-04-30T10:22:45Z</time>
      </trkpt>
      <trkpt lat="43.1699" lon="6.62953">
        <ele>11.19</ele>
        <time>2016-04-30T10:22:50Z</time>
      </trkpt>
      <trkpt lat="43.16993" lon="6.62958">
        <ele>9.75</ele>
        <time>2016-04-30T10:22:56Z</time>
      </trkpt>
      <trkpt lat="43.16994" lon="6.62963">
        <ele>7.83</ele>
        <time>2016-04-30T10:22:59Z</time>
      </trkpt>
      <trkpt lat="43.16997" lon="6.62969">
        <ele>6.87</ele>
        <time>2016-04-30T10:23:02Z</time>
      </trkpt>
      <trkpt lat="43.17006" lon="6.62973">
        <ele>5.42</ele>
        <time>2016-04-30T10:23:06Z</time>
      </trkpt>
      <trkpt lat="43.17011" lon="6.62972">
        <ele>5.42</ele>
        <time>2016-04-30T10:23:09Z</time>
      </trkpt>
      <trkpt lat="43.1703" lon="6.62975">
        <ele>3.98</ele>
        <time>2016-04-30T10:23:19Z</time>
      </trkpt>
      <trkpt lat="43.17034" lon="6.62979">
        <ele>3.02</ele>
        <time>2016-04-30T10:23:22Z</time>
      </trkpt>
      <trkpt lat="43.17043" lon="6.62978">
        <ele>1.1</ele>
        <time>2016-04-30T10:23:27Z</time>
      </trkpt>
      <trkpt lat="43.17067" lon="6.62987">
        <ele>3.02</ele>
        <time>2016-04-30T10:23:43Z</time>
      </trkpt>
      <trkpt lat="43.17081" lon="6.63014">
        <ele>1.58</ele>
        <time>2016-04-30T10:24:00Z</time>
      </trkpt>
      <trkpt lat="43.17104" lon="6.63038">
        <ele>3.98</ele>
        <time>2016-04-30T10:24:19Z</time>
      </trkpt>
      <trkpt lat="43.17114" lon="6.63052">
        <ele>5.42</ele>
        <time>2016-04-30T10:24:32Z</time>
      </trkpt>
      <trkpt lat="43.1712" lon="6.6306">
        <ele>6.39</ele>
        <time>2016-04-30T10:24:38Z</time>
      </trkpt>
      <trkpt lat="43.17123" lon="6.63064">
        <ele>7.83</ele>
        <time>2016-04-30T10:24:43Z</time>
      </trkpt>
      <trkpt lat="43.17131" lon="6.6308">
        <ele>5.91</ele>
        <time>2016-04-30T10:24:54Z</time>
      </trkpt>
      <trkpt lat="43.17132" lon="6.63081">
        <ele>5.91</ele>
        <time>2016-04-30T10:24:55Z</time>
      </trkpt>
      <trkpt lat="43.17134" lon="6.63087">
        <ele>5.42</ele>
        <time>2016-04-30T10:25:00Z</time>
      </trkpt>
      <trkpt lat="43.17131" lon="6.63097">
        <ele>3.02</ele>
        <time>2016-04-30T10:25:04Z</time>
      </trkpt>
      <trkpt lat="43.17131" lon="6.63126">
        <ele>3.5</ele>
        <time>2016-04-30T10:25:18Z</time>
      </trkpt>
      <trkpt lat="43.17129" lon="6.63143">
        <ele>3.5</ele>
        <time>2016-04-30T10:25:27Z</time>
      </trkpt>
      <trkpt lat="43.17114" lon="6.63166">
        <ele>2.06</ele>
        <time>2016-04-30T10:25:43Z</time>
      </trkpt>
      <trkpt lat="43.17109" lon="6.63171">
        <ele>1.1</ele>
        <time>2016-04-30T10:25:47Z</time>
      </trkpt>
      <trkpt lat="43.17115" lon="6.63191">
        <ele>1.58</ele>
        <time>2016-04-30T10:26:01Z</time>
      </trkpt>
      <trkpt lat="43.17118" lon="6.63196">
        <ele>1.58</ele>
        <time>2016-04-30T10:26:05Z</time>
      </trkpt>
      <trkpt lat="43.17122" lon="6.63202">
        <ele>1.1</ele>
        <time>2016-04-30T10:26:16Z</time>
      </trkpt>
      <trkpt lat="43.17122" lon="6.63206">
        <ele>1.1</ele>
        <time>2016-04-30T10:26:38Z</time>
      </trkpt>
      <trkpt lat="43.17122" lon="6.63207">
        <ele>1.1</ele>
        <time>2016-04-30T10:26:57Z</time>
      </trkpt>
      <trkpt lat="43.17123" lon="6.63206">
        <ele>1.1</ele>
        <time>2016-04-30T10:27:14Z</time>
      </trkpt>
      <trkpt lat="43.17123" lon="6.63207">
        <ele>1.1</ele>
        <time>2016-04-30T10:27:34Z</time>
      </trkpt>
      <trkpt lat="43.17123" lon="6.63207">
        <ele>0.62</ele>
        <time>2016-04-30T10:27:39Z</time>
      </trkpt>
      <trkpt lat="43.17123" lon="6.63208">
        <ele>-0.34</ele>
        <time>2016-04-30T10:27:56Z</time>
      </trkpt>
      <trkpt lat="43.17122" lon="6.63209">
        <ele>-0.34</ele>
        <time>2016-04-30T10:28:24Z</time>
      </trkpt>
      <trkpt lat="43.17122" lon="6.63209">
        <ele>-0.34</ele>
        <time>2016-04-30T10:29:04Z</time>
      </trkpt>
      <trkpt lat="43.17121" lon="6.63209">
        <ele>1.1</ele>
        <time>2016-04-30T10:29:16Z</time>
      </trkpt>
      <trkpt lat="43.17121" lon="6.63209">
        <ele>1.58</ele>
        <time>2016-04-30T10:29:31Z</time>
      </trkpt>
      <trkpt lat="43.17121" lon="6.63208">
        <ele>1.58</ele>
        <time>2016-04-30T10:29:47Z</time>
      </trkpt>
      <trkpt lat="43.17121" lon="6.63208">
        <ele>2.06</ele>
        <time>2016-04-30T10:30:08Z</time>
      </trkpt>
      <trkpt lat="43.17121" lon="6.63208">
        <ele>2.06</ele>
        <time>2016-04-30T10:30:31Z</time>
      </trkpt>
      <trkpt lat="43.17121" lon="6.63207">
        <ele>2.06</ele>
        <time>2016-04-30T10:30:55Z</time>
      </trkpt>
      <trkpt lat="43.17121" lon="6.63207">
        <ele>2.06</ele>
        <time>2016-04-30T10:31:07Z</time>
      </trkpt>
      <trkpt lat="43.17122" lon="6.63206">
        <ele>2.54</ele>
        <time>2016-04-30T10:31:22Z</time>
      </trkpt>
      <trkpt lat="43.17122" lon="6.63206">
        <ele>2.06</ele>
        <time>2016-04-30T10:31:44Z</time>
      </trkpt>
      <trkpt lat="43.17122" lon="6.63207">
        <ele>2.06</ele>
        <time>2016-04-30T10:31:59Z</time>
      </trkpt>
      <trkpt lat="43.17122" lon="6.63207">
        <ele>2.06</ele>
        <time>2016-04-30T10:32:19Z</time>
      </trkpt>
      <trkpt lat="43.17123" lon="6.63206">
        <ele>2.54</ele>
        <time>2016-04-30T10:32:43Z</time>
      </trkpt>
      <trkpt lat="43.17122" lon="6.63206">
        <ele>2.54</ele>
        <time>2016-04-30T10:32:57Z</time>
      </trkpt>
      <trkpt lat="43.17122" lon="6.63205">
        <ele>2.06</ele>
        <time>2016-04-30T10:33:19Z</time>
      </trkpt>
      <trkpt lat="43.17122" lon="6.63205">
        <ele>2.06</ele>
        <time>2016-04-30T10:33:41Z</time>
      </trkpt>
      <trkpt lat="43.17122" lon="6.63205">
        <ele>2.54</ele>
        <time>2016-04-30T10:34:00Z</time>
      </trkpt>
      <trkpt lat="43.17123" lon="6.63205">
        <ele>2.06</ele>
        <time>2016-04-30T10:34:21Z</time>
      </trkpt>
      <trkpt lat="43.17123" lon="6.63205">
        <ele>2.54</ele>
        <time>2016-04-30T10:34:41Z</time>
      </trkpt>
      <trkpt lat="43.17127" lon="6.63202">
        <ele>2.54</ele>
        <time>2016-04-30T10:35:01Z</time>
      </trkpt>
      <trkpt lat="43.17142" lon="6.63197">
        <ele>2.06</ele>
        <time>2016-04-30T10:35:17Z</time>
      </trkpt>
      <trkpt lat="43.17148" lon="6.63197">
        <ele>3.02</ele>
        <time>2016-04-30T10:35:23Z</time>
      </trkpt>
      <trkpt lat="43.17152" lon="6.63198">
        <ele>2.54</ele>
        <time>2016-04-30T10:35:29Z</time>
      </trkpt>
      <trkpt lat="43.17162" lon="6.63201">
        <ele>0.62</ele>
        <time>2016-04-30T10:35:37Z</time>
      </trkpt>
      <trkpt lat="43.17167" lon="6.63203">
        <ele>1.1</ele>
        <time>2016-04-30T10:35:40Z</time>
      </trkpt>
      <trkpt lat="43.17177" lon="6.63208">
        <ele>1.58</ele>
        <time>2016-04-30T10:35:48Z</time>
      </trkpt>
      <trkpt lat="43.17187" lon="6.63213">
        <ele>1.58</ele>
        <time>2016-04-30T10:36:01Z</time>
      </trkpt>
      <trkpt lat="43.172" lon="6.63226">
        <ele>-0.34</ele>
        <time>2016-04-30T10:36:12Z</time>
      </trkpt>
      <trkpt lat="43.17207" lon="6.63236">
        <ele>-2.27</ele>
        <time>2016-04-30T10:36:19Z</time>
      </trkpt>
      <trkpt lat="43.1721" lon="6.63239">
        <ele>-2.27</ele>
        <time>2016-04-30T10:36:22Z</time>
      </trkpt>
      <trkpt lat="43.17212" lon="6.63246">
        <ele>-2.75</ele>
        <time>2016-04-30T10:36:27Z</time>
      </trkpt>
      <trkpt lat="43.17213" lon="6.63249">
        <ele>-2.75</ele>
        <time>2016-04-30T10:36:30Z</time>
      </trkpt>
      <trkpt lat="43.17214" lon="6.63252">
        <ele>-2.75</ele>
        <time>2016-04-30T10:36:32Z</time>
      </trkpt>
      <trkpt lat="43.1722" lon="6.63258">
        <ele>-2.75</ele>
        <time>2016-04-30T10:36:38Z</time>
      </trkpt>
      <trkpt lat="43.17223" lon="6.63262">
        <ele>-2.75</ele>
        <time>2016-04-30T10:36:42Z</time>
      </trkpt>
      <trkpt lat="43.17224" lon="6.63264">
        <ele>-2.75</ele>
        <time>2016-04-30T10:36:44Z</time>
      </trkpt>
      <trkpt lat="43.17224" lon="6.63266">
        <ele>-2.75</ele>
        <time>2016-04-30T10:36:46Z</time>
      </trkpt>
      <trkpt lat="43.17228" lon="6.63272">
        <ele>-3.23</ele>
        <time>2016-04-30T10:36:58Z</time>
      </trkpt>
      <trkpt lat="43.17227" lon="6.63273">
        <ele>-3.71</ele>
        <time>2016-04-30T10:37:09Z</time>
      </trkpt>
      <trkpt lat="43.17238" lon="6.63297">
        <ele>-3.23</ele>
        <time>2016-04-30T10:37:23Z</time>
      </trkpt>
      <trkpt lat="43.17246" lon="6.6332">
        <ele>-3.23</ele>
        <time>2016-04-30T10:37:36Z</time>
      </trkpt>
      <trkpt lat="43.17252" lon="6.63345">
        <ele>-3.23</ele>
        <time>2016-04-30T10:37:49Z</time>
      </trkpt>
      <trkpt lat="43.17252" lon="6.63346">
        <ele>-3.23</ele>
        <time>2016-04-30T10:37:50Z</time>
      </trkpt>
      <trkpt lat="43.17254" lon="6.63356">
        <ele>-3.23</ele>
        <time>2016-04-30T10:37:55Z</time>
      </trkpt>
      <trkpt lat="43.1726" lon="6.63382">
        <ele>-3.23</ele>
        <time>2016-04-30T10:38:10Z</time>
      </trkpt>
      <trkpt lat="43.17263" lon="6.63389">
        <ele>-3.23</ele>
        <time>2016-04-30T10:38:15Z</time>
      </trkpt>
      <trkpt lat="43.17267" lon="6.63412">
        <ele>-3.23</ele>
        <time>2016-04-30T10:38:29Z</time>
      </trkpt>
      <trkpt lat="43.17269" lon="6.63432">
        <ele>-3.23</ele>
        <time>2016-04-30T10:38:41Z</time>
      </trkpt>
      <trkpt lat="43.1727" lon="6.63441">
        <ele>-3.23</ele>
        <time>2016-04-30T10:38:46Z</time>
      </trkpt>
      <trkpt lat="43.17272" lon="6.63448">
        <ele>-3.23</ele>
        <time>2016-04-30T10:38:50Z</time>
      </trkpt>
      <trkpt lat="43.17273" lon="6.63454">
        <ele>-3.23</ele>
        <time>2016-04-30T10:38:53Z</time>
      </trkpt>
      <trkpt lat="43.17274" lon="6.63478">
        <ele>-3.23</ele>
        <time>2016-04-30T10:39:07Z</time>
      </trkpt>
      <trkpt lat="43.17277" lon="6.63503">
        <ele>-3.23</ele>
        <time>2016-04-30T10:39:21Z</time>
      </trkpt>
      <trkpt lat="43.17278" lon="6.63513">
        <ele>-3.23</ele>
        <time>2016-04-30T10:39:27Z</time>
      </trkpt>
      <trkpt lat="43.17278" lon="6.63528">
        <ele>-3.23</ele>
        <time>2016-04-30T10:39:35Z</time>
      </trkpt>
      <trkpt lat="43.17278" lon="6.63551">
        <ele>-3.23</ele>
        <time>2016-04-30T10:39:48Z</time>
      </trkpt>
      <trkpt lat="43.17275" lon="6.63579">
        <ele>-3.23</ele>
        <time>2016-04-30T10:40:03Z</time>
      </trkpt>
      <trkpt lat="43.17275" lon="6.63582">
        <ele>-3.23</ele>
        <time>2016-04-30T10:40:05Z</time>
      </trkpt>
      <trkpt lat="43.17273" lon="6.63604">
        <ele>-3.23</ele>
        <time>2016-04-30T10:40:18Z</time>
      </trkpt>
      <trkpt lat="43.17273" lon="6.63606">
        <ele>-3.23</ele>
        <time>2016-04-30T10:40:19Z</time>
      </trkpt>
      <trkpt lat="43.17272" lon="6.63617">
        <ele>-3.23</ele>
        <time>2016-04-30T10:40:26Z</time>
      </trkpt>
      <trkpt lat="43.17272" lon="6.6362">
        <ele>-3.23</ele>
        <time>2016-04-30T10:40:29Z</time>
      </trkpt>
      <trkpt lat="43.17269" lon="6.63624">
        <ele>-3.71</ele>
        <time>2016-04-30T10:40:32Z</time>
      </trkpt>
      <trkpt lat="43.17267" lon="6.63643">
        <ele>-3.23</ele>
        <time>2016-04-30T10:40:43Z</time>
      </trkpt>
      <trkpt lat="43.17266" lon="6.6365">
        <ele>-3.23</ele>
        <time>2016-04-30T10:40:47Z</time>
      </trkpt>
      <trkpt lat="43.17266" lon="6.63653">
        <ele>-3.23</ele>
        <time>2016-04-30T10:40:49Z</time>
      </trkpt>
      <trkpt lat="43.17265" lon="6.63666">
        <ele>-3.23</ele>
        <time>2016-04-30T10:40:55Z</time>
      </trkpt>
      <trkpt lat="43.17265" lon="6.6367">
        <ele>-3.23</ele>
        <time>2016-04-30T10:40:58Z</time>
      </trkpt>
      <trkpt lat="43.17266" lon="6.63687">
        <ele>-3.23</ele>
        <time>2016-04-30T10:41:10Z</time>
      </trkpt>
      <trkpt lat="43.17264" lon="6.63694">
        <ele>-3.23</ele>
        <time>2016-04-30T10:41:15Z</time>
      </trkpt>
      <trkpt lat="43.17267" lon="6.63704">
        <ele>-1.79</ele>
        <time>2016-04-30T10:41:27Z</time>
      </trkpt>
      <trkpt lat="43.17266" lon="6.63706">
        <ele>-1.3</ele>
        <time>2016-04-30T10:41:28Z</time>
      </trkpt>
      <trkpt lat="43.17262" lon="6.63711">
        <ele>-0.82</ele>
        <time>2016-04-30T10:41:33Z</time>
      </trkpt>
      <trkpt lat="43.17261" lon="6.63713">
        <ele>-0.34</ele>
        <time>2016-04-30T10:41:49Z</time>
      </trkpt>
      <trkpt lat="43.1726" lon="6.63714">
        <ele>-0.82</ele>
        <time>2016-04-30T10:41:56Z</time>
      </trkpt>
      <trkpt lat="43.17254" lon="6.63726">
        <ele>0.14</ele>
        <time>2016-04-30T10:42:02Z</time>
      </trkpt>
      <trkpt lat="43.17253" lon="6.63731">
        <ele>0.62</ele>
        <time>2016-04-30T10:42:04Z</time>
      </trkpt>
      <trkpt lat="43.17248" lon="6.6376">
        <ele>2.54</ele>
        <time>2016-04-30T10:42:16Z</time>
      </trkpt>
      <trkpt lat="43.17249" lon="6.63761">
        <ele>3.5</ele>
        <time>2016-04-30T10:42:18Z</time>
      </trkpt>
      <trkpt lat="43.17249" lon="6.63764">
        <ele>3.98</ele>
        <time>2016-04-30T10:42:20Z</time>
      </trkpt>
      <trkpt lat="43.17249" lon="6.63765">
        <ele>3.98</ele>
        <time>2016-04-30T10:42:21Z</time>
      </trkpt>
      <trkpt lat="43.17243" lon="6.63779">
        <ele>5.91</ele>
        <time>2016-04-30T10:42:29Z</time>
      </trkpt>
      <trkpt lat="43.17244" lon="6.6378">
        <ele>5.91</ele>
        <time>2016-04-30T10:42:30Z</time>
      </trkpt>
      <trkpt lat="43.17244" lon="6.63783">
        <ele>5.91</ele>
        <time>2016-04-30T10:42:32Z</time>
      </trkpt>
      <trkpt lat="43.17242" lon="6.63788">
        <ele>4.46</ele>
        <time>2016-04-30T10:42:35Z</time>
      </trkpt>
      <trkpt lat="43.17245" lon="6.63795">
        <ele>5.42</ele>
        <time>2016-04-30T10:42:41Z</time>
      </trkpt>
      <trkpt lat="43.1725" lon="6.63794">
        <ele>4.94</ele>
        <time>2016-04-30T10:42:45Z</time>
      </trkpt>
      <trkpt lat="43.1725" lon="6.63812">
        <ele>4.94</ele>
        <time>2016-04-30T10:42:56Z</time>
      </trkpt>
      <trkpt lat="43.17251" lon="6.63818">
        <ele>6.87</ele>
        <time>2016-04-30T10:43:00Z</time>
      </trkpt>
      <trkpt lat="43.17249" lon="6.63824">
        <ele>6.87</ele>
        <time>2016-04-30T10:43:04Z</time>
      </trkpt>
      <trkpt lat="43.17249" lon="6.63829">
        <ele>7.35</ele>
        <time>2016-04-30T10:43:07Z</time>
      </trkpt>
      <trkpt lat="43.1725" lon="6.63833">
        <ele>7.35</ele>
        <time>2016-04-30T10:43:10Z</time>
      </trkpt>
      <trkpt lat="43.17253" lon="6.63835">
        <ele>7.35</ele>
        <time>2016-04-30T10:43:14Z</time>
      </trkpt>
      <trkpt lat="43.17259" lon="6.63852">
        <ele>4.94</ele>
        <time>2016-04-30T10:43:24Z</time>
      </trkpt>
      <trkpt lat="43.17262" lon="6.63858">
        <ele>3.98</ele>
        <time>2016-04-30T10:43:28Z</time>
      </trkpt>
      <trkpt lat="43.17271" lon="6.63879">
        <ele>3.5</ele>
        <time>2016-04-30T10:43:43Z</time>
      </trkpt>
      <trkpt lat="43.17273" lon="6.63891">
        <ele>1.58</ele>
        <time>2016-04-30T10:43:53Z</time>
      </trkpt>
      <trkpt lat="43.17272" lon="6.63904">
        <ele>1.1</ele>
        <time>2016-04-30T10:44:06Z</time>
      </trkpt>
      <trkpt lat="43.17273" lon="6.63903">
        <ele>1.1</ele>
        <time>2016-04-30T10:44:17Z</time>
      </trkpt>
      <trkpt lat="43.17274" lon="6.63906">
        <ele>1.1</ele>
        <time>2016-04-30T10:44:19Z</time>
      </trkpt>
      <trkpt lat="43.17277" lon="6.63916">
        <ele>1.1</ele>
        <time>2016-04-30T10:44:25Z</time>
      </trkpt>
      <trkpt lat="43.17288" lon="6.63925">
        <ele>1.58</ele>
        <time>2016-04-30T10:44:35Z</time>
      </trkpt>
      <trkpt lat="43.17298" lon="6.63931">
        <ele>1.1</ele>
        <time>2016-04-30T10:44:48Z</time>
      </trkpt>
      <trkpt lat="43.17297" lon="6.63932">
        <ele>1.1</ele>
        <time>2016-04-30T10:45:04Z</time>
      </trkpt>
      <trkpt lat="43.17297" lon="6.63932">
        <ele>0.62</ele>
        <time>2016-04-30T10:45:20Z</time>
      </trkpt>
      <trkpt lat="43.17296" lon="6.63933">
        <ele>0.14</ele>
        <time>2016-04-30T10:45:39Z</time>
      </trkpt>
      <trkpt lat="43.17297" lon="6.63934">
        <ele>-0.34</ele>
        <time>2016-04-30T10:45:41Z</time>
      </trkpt>
      <trkpt lat="43.17306" lon="6.63932">
        <ele>-0.34</ele>
        <time>2016-04-30T10:45:55Z</time>
      </trkpt>
      <trkpt lat="43.17306" lon="6.63933">
        <ele>-1.79</ele>
        <time>2016-04-30T10:46:10Z</time>
      </trkpt>
      <trkpt lat="43.17306" lon="6.63935">
        <ele>-1.3</ele>
        <time>2016-04-30T10:46:44Z</time>
      </trkpt>
      <trkpt lat="43.17306" lon="6.63935">
        <ele>-1.3</ele>
        <time>2016-04-30T10:47:14Z</time>
      </trkpt>
      <trkpt lat="43.17306" lon="6.63936">
        <ele>-0.82</ele>
        <time>2016-04-30T10:47:46Z</time>
      </trkpt>
      <trkpt lat="43.17306" lon="6.63937">
        <ele>-1.3</ele>
        <time>2016-04-30T10:48:19Z</time>
      </trkpt>
      <trkpt lat="43.17306" lon="6.63937">
        <ele>-0.82</ele>
        <time>2016-04-30T10:48:40Z</time>
      </trkpt>
      <trkpt lat="43.17306" lon="6.63937">
        <ele>-0.34</ele>
        <time>2016-04-30T10:49:05Z</time>
      </trkpt>
      <trkpt lat="43.17307" lon="6.63938">
        <ele>-0.82</ele>
        <time>2016-04-30T10:49:31Z</time>
      </trkpt>
      <trkpt lat="43.17307" lon="6.63938">
        <ele>-0.34</ele>
        <time>2016-04-30T10:49:56Z</time>
      </trkpt>
      <trkpt lat="43.17307" lon="6.63937">
        <ele>0.14</ele>
        <time>2016-04-30T10:50:12Z</time>
      </trkpt>
      <trkpt lat="43.17307" lon="6.63937">
        <ele>-0.34</ele>
        <time>2016-04-30T10:50:36Z</time>
      </trkpt>
      <trkpt lat="43.17307" lon="6.63937">
        <ele>-0.34</ele>
        <time>2016-04-30T10:51:03Z</time>
      </trkpt>
      <trkpt lat="43.17307" lon="6.63937">
        <ele>-0.34</ele>
        <time>2016-04-30T10:51:31Z</time>
      </trkpt>
      <trkpt lat="43.17307" lon="6.63937">
        <ele>-0.34</ele>
        <time>2016-04-30T10:52:01Z</time>
      </trkpt>
      <trkpt lat="43.17307" lon="6.63937">
        <ele>0.14</ele>
        <time>2016-04-30T10:52:28Z</time>
      </trkpt>
      <trkpt lat="43.17306" lon="6.63938">
        <ele>0.14</ele>
        <time>2016-04-30T10:52:55Z</time>
      </trkpt>
      <trkpt lat="43.17308" lon="6.63936">
        <ele>0.14</ele>
        <time>2016-04-30T10:53:23Z</time>
      </trkpt>
      <trkpt lat="43.17308" lon="6.63937">
        <ele>0.14</ele>
        <time>2016-04-30T10:53:57Z</time>
      </trkpt>
      <trkpt lat="43.17308" lon="6.63937">
        <ele>0.62</ele>
        <time>2016-04-30T10:54:30Z</time>
      </trkpt>
      <trkpt lat="43.17308" lon="6.63937">
        <ele>0.62</ele>
        <time>2016-04-30T10:54:59Z</time>
      </trkpt>
      <trkpt lat="43.17308" lon="6.63937">
        <ele>0.62</ele>
        <time>2016-04-30T10:55:20Z</time>
      </trkpt>
      <trkpt lat="43.17307" lon="6.63937">
        <ele>0.62</ele>
        <time>2016-04-30T10:55:56Z</time>
      </trkpt>
      <trkpt lat="43.17307" lon="6.63937">
        <ele>0.62</ele>
        <time>2016-04-30T10:56:21Z</time>
      </trkpt>
      <trkpt lat="43.17307" lon="6.63937">
        <ele>1.1</ele>
        <time>2016-04-30T10:56:49Z</time>
      </trkpt>
      <trkpt lat="43.17307" lon="6.63938">
        <ele>1.1</ele>
        <time>2016-04-30T10:57:22Z</time>
      </trkpt>
      <trkpt lat="43.17307" lon="6.63938">
        <ele>1.58</ele>
        <time>2016-04-30T10:57:57Z</time>
      </trkpt>
      <trkpt lat="43.17307" lon="6.63939">
        <ele>1.1</ele>
        <time>2016-04-30T10:58:29Z</time>
      </trkpt>
      <trkpt lat="43.17307" lon="6.63939">
        <ele>1.58</ele>
        <time>2016-04-30T10:59:02Z</time>
      </trkpt>
      <trkpt lat="43.17305" lon="6.63944">
        <ele>1.58</ele>
        <time>2016-04-30T10:59:34Z</time>
      </trkpt>
      <trkpt lat="43.17303" lon="6.63947">
        <ele>2.06</ele>
        <time>2016-04-30T11:00:03Z</time>
      </trkpt>
      <trkpt lat="43.17304" lon="6.63945">
        <ele>2.06</ele>
        <time>2016-04-30T11:00:34Z</time>
      </trkpt>
      <trkpt lat="43.17305" lon="6.63941">
        <ele>2.06</ele>
        <time>2016-04-30T11:00:59Z</time>
      </trkpt>
      <trkpt lat="43.17306" lon="6.63942">
        <ele>2.54</ele>
        <time>2016-04-30T11:01:30Z</time>
      </trkpt>
      <trkpt lat="43.17306" lon="6.63943">
        <ele>2.54</ele>
        <time>2016-04-30T11:02:04Z</time>
      </trkpt>
      <trkpt lat="43.17306" lon="6.63943">
        <ele>3.02</ele>
        <time>2016-04-30T11:02:35Z</time>
      </trkpt>
      <trkpt lat="43.17306" lon="6.63943">
        <ele>3.02</ele>
        <time>2016-04-30T11:03:05Z</time>
      </trkpt>
      <trkpt lat="43.17306" lon="6.63943">
        <ele>3.5</ele>
        <time>2016-04-30T11:03:34Z</time>
      </trkpt>
      <trkpt lat="43.17306" lon="6.63943">
        <ele>3.98</ele>
        <time>2016-04-30T11:04:04Z</time>
      </trkpt>
      <trkpt lat="43.17306" lon="6.63942">
        <ele>3.98</ele>
        <time>2016-04-30T11:04:37Z</time>
      </trkpt>
      <trkpt lat="43.17305" lon="6.63943">
        <ele>3.98</ele>
        <time>2016-04-30T11:05:10Z</time>
      </trkpt>
      <trkpt lat="43.17306" lon="6.63942">
        <ele>3.98</ele>
        <time>2016-04-30T11:05:38Z</time>
      </trkpt>
      <trkpt lat="43.17306" lon="6.63942">
        <ele>4.46</ele>
        <time>2016-04-30T11:06:05Z</time>
      </trkpt>
      <trkpt lat="43.17306" lon="6.63942">
        <ele>4.46</ele>
        <time>2016-04-30T11:06:32Z</time>
      </trkpt>
      <trkpt lat="43.17308" lon="6.63937">
        <ele>4.46</ele>
        <time>2016-04-30T11:06:56Z</time>
      </trkpt>
      <trkpt lat="43.17307" lon="6.63935">
        <ele>4.94</ele>
        <time>2016-04-30T11:07:17Z</time>
      </trkpt>
      <trkpt lat="43.17308" lon="6.63935">
        <ele>4.46</ele>
        <time>2016-04-30T11:07:34Z</time>
      </trkpt>
      <trkpt lat="43.17307" lon="6.63935">
        <ele>4.46</ele>
        <time>2016-04-30T11:08:09Z</time>
      </trkpt>
      <trkpt lat="43.17307" lon="6.63935">
        <ele>4.46</ele>
        <time>2016-04-30T11:08:45Z</time>
      </trkpt>
      <trkpt lat="43.17307" lon="6.63935">
        <ele>3.98</ele>
        <time>2016-04-30T11:09:21Z</time>
      </trkpt>
      <trkpt lat="43.17307" lon="6.63935">
        <ele>3.98</ele>
        <time>2016-04-30T11:09:54Z</time>
      </trkpt>
      <trkpt lat="43.17307" lon="6.63935">
        <ele>3.98</ele>
        <time>2016-04-30T11:10:32Z</time>
      </trkpt>
      <trkpt lat="43.17307" lon="6.63935">
        <ele>3.98</ele>
        <time>2016-04-30T11:11:02Z</time>
      </trkpt>
      <trkpt lat="43.17307" lon="6.63935">
        <ele>3.98</ele>
        <time>2016-04-30T11:11:34Z</time>
      </trkpt>
      <trkpt lat="43.17307" lon="6.63934">
        <ele>3.98</ele>
        <time>2016-04-30T11:12:08Z</time>
      </trkpt>
      <trkpt lat="43.17307" lon="6.63934">
        <ele>3.98</ele>
        <time>2016-04-30T11:12:45Z</time>
      </trkpt>
      <trkpt lat="43.17307" lon="6.63934">
        <ele>3.5</ele>
        <time>2016-04-30T11:13:16Z</time>
      </trkpt>
      <trkpt lat="43.17307" lon="6.63935">
        <ele>3.5</ele>
        <time>2016-04-30T11:13:54Z</time>
      </trkpt>
      <trkpt lat="43.17307" lon="6.63934">
        <ele>3.5</ele>
        <time>2016-04-30T11:14:23Z</time>
      </trkpt>
      <trkpt lat="43.17306" lon="6.63934">
        <ele>3.02</ele>
        <time>2016-04-30T11:14:56Z</time>
      </trkpt>
      <trkpt lat="43.17307" lon="6.63934">
        <ele>3.02</ele>
        <time>2016-04-30T11:15:29Z</time>
      </trkpt>
      <trkpt lat="43.17307" lon="6.63934">
        <ele>3.02</ele>
        <time>2016-04-30T11:16:03Z</time>
      </trkpt>
      <trkpt lat="43.17307" lon="6.63934">
        <ele>3.02</ele>
        <time>2016-04-30T11:16:40Z</time>
      </trkpt>
      <trkpt lat="43.17306" lon="6.63934">
        <ele>2.54</ele>
        <time>2016-04-30T11:17:12Z</time>
      </trkpt>
      <trkpt lat="43.17306" lon="6.63934">
        <ele>2.54</ele>
        <time>2016-04-30T11:17:42Z</time>
      </trkpt>
      <trkpt lat="43.17307" lon="6.63934">
        <ele>2.54</ele>
        <time>2016-04-30T11:18:14Z</time>
      </trkpt>
      <trkpt lat="43.17307" lon="6.63934">
        <ele>2.06</ele>
        <time>2016-04-30T11:18:47Z</time>
      </trkpt>
      <trkpt lat="43.17307" lon="6.63933">
        <ele>2.06</ele>
        <time>2016-04-30T11:19:17Z</time>
      </trkpt>
      <trkpt lat="43.17307" lon="6.63933">
        <ele>2.06</ele>
        <time>2016-04-30T11:19:50Z</time>
      </trkpt>
      <trkpt lat="43.17307" lon="6.63933">
        <ele>2.06</ele>
        <time>2016-04-30T11:20:18Z</time>
      </trkpt>
      <trkpt lat="43.17307" lon="6.63933">
        <ele>2.06</ele>
        <time>2016-04-30T11:20:59Z</time>
      </trkpt>
      <trkpt lat="43.17307" lon="6.63933">
        <ele>1.58</ele>
        <time>2016-04-30T11:21:35Z</time>
      </trkpt>
      <trkpt lat="43.17307" lon="6.63934">
        <ele>1.58</ele>
        <time>2016-04-30T11:22:07Z</time>
      </trkpt>
      <trkpt lat="43.17307" lon="6.63935">
        <ele>1.58</ele>
        <time>2016-04-30T11:22:33Z</time>
      </trkpt>
      <trkpt lat="43.17307" lon="6.63935">
        <ele>1.58</ele>
        <time>2016-04-30T11:23:03Z</time>
      </trkpt>
      <trkpt lat="43.17307" lon="6.63935">
        <ele>1.1</ele>
        <time>2016-04-30T11:23:32Z</time>
      </trkpt>
      <trkpt lat="43.17307" lon="6.63935">
        <ele>1.58</ele>
        <time>2016-04-30T11:24:03Z</time>
      </trkpt>
      <trkpt lat="43.17307" lon="6.63935">
        <ele>1.1</ele>
        <time>2016-04-30T11:24:42Z</time>
      </trkpt>
      <trkpt lat="43.17307" lon="6.63935">
        <ele>1.1</ele>
        <time>2016-04-30T11:25:18Z</time>
      </trkpt>
      <trkpt lat="43.17307" lon="6.63935">
        <ele>1.1</ele>
        <time>2016-04-30T11:25:52Z</time>
      </trkpt>
      <trkpt lat="43.17307" lon="6.63935">
        <ele>1.1</ele>
        <time>2016-04-30T11:26:31Z</time>
      </trkpt>
      <trkpt lat="43.17306" lon="6.63935">
        <ele>1.1</ele>
        <time>2016-04-30T11:27:07Z</time>
      </trkpt>
      <trkpt lat="43.17307" lon="6.63935">
        <ele>1.1</ele>
        <time>2016-04-30T11:27:45Z</time>
      </trkpt>
      <trkpt lat="43.17307" lon="6.63935">
        <ele>1.1</ele>
        <time>2016-04-30T11:28:21Z</time>
      </trkpt>
      <trkpt lat="43.17307" lon="6.63935">
        <ele>1.1</ele>
        <time>2016-04-30T11:28:54Z</time>
      </trkpt>
      <trkpt lat="43.17306" lon="6.63935">
        <ele>1.1</ele>
        <time>2016-04-30T11:29:24Z</time>
      </trkpt>
      <trkpt lat="43.17306" lon="6.63935">
        <ele>1.1</ele>
        <time>2016-04-30T11:29:55Z</time>
      </trkpt>
      <trkpt lat="43.17306" lon="6.63935">
        <ele>1.1</ele>
        <time>2016-04-30T11:30:29Z</time>
      </trkpt>
      <trkpt lat="43.17306" lon="6.63934">
        <ele>1.1</ele>
        <time>2016-04-30T11:31:01Z</time>
      </trkpt>
      <trkpt lat="43.17306" lon="6.63934">
        <ele>1.1</ele>
        <time>2016-04-30T11:31:30Z</time>
      </trkpt>
      <trkpt lat="43.17306" lon="6.63934">
        <ele>1.1</ele>
        <time>2016-04-30T11:32:00Z</time>
      </trkpt>
      <trkpt lat="43.17306" lon="6.63934">
        <ele>0.62</ele>
        <time>2016-04-30T11:32:27Z</time>
      </trkpt>
      <trkpt lat="43.17307" lon="6.63933">
        <ele>0.62</ele>
        <time>2016-04-30T11:32:56Z</time>
      </trkpt>
      <trkpt lat="43.17307" lon="6.63933">
        <ele>0.62</ele>
        <time>2016-04-30T11:33:24Z</time>
      </trkpt>
      <trkpt lat="43.17307" lon="6.63935">
        <ele>0.62</ele>
        <time>2016-04-30T11:33:54Z</time>
      </trkpt>
      <trkpt lat="43.17307" lon="6.63935">
        <ele>1.1</ele>
        <time>2016-04-30T11:34:23Z</time>
      </trkpt>
      <trkpt lat="43.17307" lon="6.63935">
        <ele>0.62</ele>
        <time>2016-04-30T11:34:47Z</time>
      </trkpt>
      <trkpt lat="43.17307" lon="6.63935">
        <ele>0.62</ele>
        <time>2016-04-30T11:35:11Z</time>
      </trkpt>
      <trkpt lat="43.17307" lon="6.63935">
        <ele>0.62</ele>
        <time>2016-04-30T11:35:44Z</time>
      </trkpt>
      <trkpt lat="43.17307" lon="6.63935">
        <ele>1.1</ele>
        <time>2016-04-30T11:36:14Z</time>
      </trkpt>
      <trkpt lat="43.17307" lon="6.63935">
        <ele>0.62</ele>
        <time>2016-04-30T11:36:49Z</time>
      </trkpt>
      <trkpt lat="43.17307" lon="6.63934">
        <ele>0.62</ele>
        <time>2016-04-30T11:37:27Z</time>
      </trkpt>
      <trkpt lat="43.17307" lon="6.63935">
        <ele>0.62</ele>
        <time>2016-04-30T11:38:01Z</time>
      </trkpt>
      <trkpt lat="43.17307" lon="6.63935">
        <ele>0.62</ele>
        <time>2016-04-30T11:38:34Z</time>
      </trkpt>
      <trkpt lat="43.17307" lon="6.63935">
        <ele>0.62</ele>
        <time>2016-04-30T11:39:08Z</time>
      </trkpt>
      <trkpt lat="43.17307" lon="6.63935">
        <ele>0.62</ele>
        <time>2016-04-30T11:39:40Z</time>
      </trkpt>
      <trkpt lat="43.17307" lon="6.63935">
        <ele>1.1</ele>
        <time>2016-04-30T11:40:15Z</time>
      </trkpt>
      <trkpt lat="43.17307" lon="6.63935">
        <ele>1.1</ele>
        <time>2016-04-30T11:40:49Z</time>
      </trkpt>
      <trkpt lat="43.17307" lon="6.63935">
        <ele>0.62</ele>
        <time>2016-04-30T11:41:22Z</time>
      </trkpt>
      <trkpt lat="43.17307" lon="6.63935">
        <ele>1.1</ele>
        <time>2016-04-30T11:41:59Z</time>
      </trkpt>
      <trkpt lat="43.17307" lon="6.63935">
        <ele>1.1</ele>
        <time>2016-04-30T11:42:31Z</time>
      </trkpt>
      <trkpt lat="43.17307" lon="6.63935">
        <ele>1.1</ele>
        <time>2016-04-30T11:43:05Z</time>
      </trkpt>
      <trkpt lat="43.17307" lon="6.63935">
        <ele>1.1</ele>
        <time>2016-04-30T11:43:44Z</time>
      </trkpt>
      <trkpt lat="43.17307" lon="6.63935">
        <ele>1.1</ele>
        <time>2016-04-30T11:44:16Z</time>
      </trkpt>
      <trkpt lat="43.17307" lon="6.63935">
        <ele>0.62</ele>
        <time>2016-04-30T11:44:46Z</time>
      </trkpt>
      <trkpt lat="43.17307" lon="6.63935">
        <ele>1.1</ele>
        <time>2016-04-30T11:45:17Z</time>
      </trkpt>
      <trkpt lat="43.17307" lon="6.63935">
        <ele>1.1</ele>
        <time>2016-04-30T11:45:51Z</time>
      </trkpt>
      <trkpt lat="43.17307" lon="6.63935">
        <ele>1.1</ele>
        <time>2016-04-30T11:46:23Z</time>
      </trkpt>
      <trkpt lat="43.17307" lon="6.63935">
        <ele>1.1</ele>
        <time>2016-04-30T11:46:55Z</time>
      </trkpt>
      <trkpt lat="43.17307" lon="6.63935">
        <ele>1.1</ele>
        <time>2016-04-30T11:47:29Z</time>
      </trkpt>
      <trkpt lat="43.17307" lon="6.63935">
        <ele>1.1</ele>
        <time>2016-04-30T11:48:03Z</time>
      </trkpt>
      <trkpt lat="43.17307" lon="6.63935">
        <ele>1.1</ele>
        <time>2016-04-30T11:48:38Z</time>
      </trkpt>
      <trkpt lat="43.17307" lon="6.63935">
        <ele>1.58</ele>
        <time>2016-04-30T11:49:08Z</time>
      </trkpt>
      <trkpt lat="43.17307" lon="6.63935">
        <ele>1.58</ele>
        <time>2016-04-30T11:49:37Z</time>
      </trkpt>
      <trkpt lat="43.17307" lon="6.63935">
        <ele>1.58</ele>
        <time>2016-04-30T11:50:08Z</time>
      </trkpt>
      <trkpt lat="43.17307" lon="6.63935">
        <ele>1.58</ele>
        <time>2016-04-30T11:50:40Z</time>
      </trkpt>
      <trkpt lat="43.17308" lon="6.63937">
        <ele>2.54</ele>
        <time>2016-04-30T11:51:11Z</time>
      </trkpt>
      <trkpt lat="43.17305" lon="6.6394">
        <ele>1.58</ele>
        <time>2016-04-30T11:51:21Z</time>
      </trkpt>
      <trkpt lat="43.17302" lon="6.63939">
        <ele>1.58</ele>
        <time>2016-04-30T11:51:38Z</time>
      </trkpt>
      <trkpt lat="43.17296" lon="6.6394">
        <ele>2.06</ele>
        <time>2016-04-30T11:51:50Z</time>
      </trkpt>
      <trkpt lat="43.17295" lon="6.63941">
        <ele>2.06</ele>
        <time>2016-04-30T11:51:52Z</time>
      </trkpt>
      <trkpt lat="43.17288" lon="6.63948">
        <ele>1.58</ele>
        <time>2016-04-30T11:52:01Z</time>
      </trkpt>
      <trkpt lat="43.17286" lon="6.63949">
        <ele>1.58</ele>
        <time>2016-04-30T11:52:03Z</time>
      </trkpt>
      <trkpt lat="43.17282" lon="6.63954">
        <ele>2.06</ele>
        <time>2016-04-30T11:52:09Z</time>
      </trkpt>
      <trkpt lat="43.17272" lon="6.63965">
        <ele>0.62</ele>
        <time>2016-04-30T11:52:22Z</time>
      </trkpt>
      <trkpt lat="43.1727" lon="6.63966">
        <ele>0.62</ele>
        <time>2016-04-30T11:52:24Z</time>
      </trkpt>
      <trkpt lat="43.17258" lon="6.63975">
        <ele>1.1</ele>
        <time>2016-04-30T11:52:39Z</time>
      </trkpt>
      <trkpt lat="43.17258" lon="6.63975">
        <ele>0.14</ele>
        <time>2016-04-30T11:52:40Z</time>
      </trkpt>
      <trkpt lat="43.17253" lon="6.63978">
        <ele>1.58</ele>
        <time>2016-04-30T11:52:48Z</time>
      </trkpt>
      <trkpt lat="43.17249" lon="6.6398">
        <ele>0.62</ele>
        <time>2016-04-30T11:52:59Z</time>
      </trkpt>
      <trkpt lat="43.17236" lon="6.63992">
        <ele>0.62</ele>
        <time>2016-04-30T11:53:14Z</time>
      </trkpt>
      <trkpt lat="43.17228" lon="6.64002">
        <ele>2.54</ele>
        <time>2016-04-30T11:53:27Z</time>
      </trkpt>
      <trkpt lat="43.17226" lon="6.64006">
        <ele>3.02</ele>
        <time>2016-04-30T11:53:32Z</time>
      </trkpt>
      <trkpt lat="43.1722" lon="6.64012">
        <ele>3.02</ele>
        <time>2016-04-30T11:53:42Z</time>
      </trkpt>
      <trkpt lat="43.17215" lon="6.64033">
        <ele>3.5</ele>
        <time>2016-04-30T11:53:56Z</time>
      </trkpt>
      <trkpt lat="43.17215" lon="6.64053">
        <ele>4.46</ele>
        <time>2016-04-30T11:54:08Z</time>
      </trkpt>
      <trkpt lat="43.17216" lon="6.64062">
        <ele>4.94</ele>
        <time>2016-04-30T11:54:15Z</time>
      </trkpt>
      <trkpt lat="43.17216" lon="6.64065">
        <ele>4.94</ele>
        <time>2016-04-30T11:54:17Z</time>
      </trkpt>
      <trkpt lat="43.17221" lon="6.64071">
        <ele>4.94</ele>
        <time>2016-04-30T11:54:22Z</time>
      </trkpt>
      <trkpt lat="43.17222" lon="6.64074">
        <ele>4.46</ele>
        <time>2016-04-30T11:54:24Z</time>
      </trkpt>
      <trkpt lat="43.17221" lon="6.64079">
        <ele>4.94</ele>
        <time>2016-04-30T11:54:27Z</time>
      </trkpt>
      <trkpt lat="43.17209" lon="6.64103">
        <ele>5.91</ele>
        <time>2016-04-30T11:54:45Z</time>
      </trkpt>
      <trkpt lat="43.17208" lon="6.64106">
        <ele>7.35</ele>
        <time>2016-04-30T11:54:47Z</time>
      </trkpt>
      <trkpt lat="43.17206" lon="6.64115">
        <ele>7.83</ele>
        <time>2016-04-30T11:54:53Z</time>
      </trkpt>
      <trkpt lat="43.17202" lon="6.64123">
        <ele>9.27</ele>
        <time>2016-04-30T11:55:00Z</time>
      </trkpt>
      <trkpt lat="43.17199" lon="6.6414">
        <ele>11.67</ele>
        <time>2016-04-30T11:55:16Z</time>
      </trkpt>
      <trkpt lat="43.17196" lon="6.64148">
        <ele>13.6</ele>
        <time>2016-04-30T11:55:24Z</time>
      </trkpt>
      <trkpt lat="43.17195" lon="6.64151">
        <ele>14.08</ele>
        <time>2016-04-30T11:55:27Z</time>
      </trkpt>
      <trkpt lat="43.17187" lon="6.64166">
        <ele>16.48</ele>
        <time>2016-04-30T11:55:42Z</time>
      </trkpt>
      <trkpt lat="43.17182" lon="6.6417">
        <ele>16.96</ele>
        <time>2016-04-30T11:55:52Z</time>
      </trkpt>
      <trkpt lat="43.17182" lon="6.6417">
        <ele>16.48</ele>
        <time>2016-04-30T11:55:53Z</time>
      </trkpt>
      <trkpt lat="43.17175" lon="6.64173">
        <ele>15.04</ele>
        <time>2016-04-30T11:56:07Z</time>
      </trkpt>
      <trkpt lat="43.17174" lon="6.64173">
        <ele>16</ele>
        <time>2016-04-30T11:56:12Z</time>
      </trkpt>
      <trkpt lat="43.17183" lon="6.64169">
        <ele>16.96</ele>
        <time>2016-04-30T11:56:23Z</time>
      </trkpt>
      <trkpt lat="43.17186" lon="6.64177">
        <ele>18.88</ele>
        <time>2016-04-30T11:56:35Z</time>
      </trkpt>
      <trkpt lat="43.17188" lon="6.64184">
        <ele>19.84</ele>
        <time>2016-04-30T11:56:47Z</time>
      </trkpt>
      <trkpt lat="43.17191" lon="6.64188">
        <ele>18.4</ele>
        <time>2016-04-30T11:56:59Z</time>
      </trkpt>
      <trkpt lat="43.1719" lon="6.64192">
        <ele>18.4</ele>
        <time>2016-04-30T11:57:13Z</time>
      </trkpt>
      <trkpt lat="43.17191" lon="6.64187">
        <ele>18.88</ele>
        <time>2016-04-30T11:57:19Z</time>
      </trkpt>
      <trkpt lat="43.17187" lon="6.64181">
        <ele>19.36</ele>
        <time>2016-04-30T11:57:30Z</time>
      </trkpt>
      <trkpt lat="43.17188" lon="6.64173">
        <ele>18.4</ele>
        <time>2016-04-30T11:57:43Z</time>
      </trkpt>
      <trkpt lat="43.17184" lon="6.64169">
        <ele>16.96</ele>
        <time>2016-04-30T11:57:53Z</time>
      </trkpt>
      <trkpt lat="43.17182" lon="6.64169">
        <ele>16.48</ele>
        <time>2016-04-30T11:57:55Z</time>
      </trkpt>
      <trkpt lat="43.17169" lon="6.64174">
        <ele>15.04</ele>
        <time>2016-04-30T11:58:12Z</time>
      </trkpt>
      <trkpt lat="43.17169" lon="6.64175">
        <ele>15.04</ele>
        <time>2016-04-30T11:58:14Z</time>
      </trkpt>
      <trkpt lat="43.17165" lon="6.64177">
        <ele>14.08</ele>
        <time>2016-04-30T11:58:19Z</time>
      </trkpt>
      <trkpt lat="43.17153" lon="6.64191">
        <ele>16</ele>
        <time>2016-04-30T11:58:34Z</time>
      </trkpt>
      <trkpt lat="43.1715" lon="6.64193">
        <ele>16</ele>
        <time>2016-04-30T11:58:38Z</time>
      </trkpt>
      <trkpt lat="43.17144" lon="6.64195">
        <ele>15.04</ele>
        <time>2016-04-30T11:58:44Z</time>
      </trkpt>
      <trkpt lat="43.17141" lon="6.64202">
        <ele>16.48</ele>
        <time>2016-04-30T11:58:48Z</time>
      </trkpt>
      <trkpt lat="43.17129" lon="6.64217">
        <ele>18.88</ele>
        <time>2016-04-30T11:59:02Z</time>
      </trkpt>
      <trkpt lat="43.17127" lon="6.64227">
        <ele>21.77</ele>
        <time>2016-04-30T11:59:14Z</time>
      </trkpt>
      <trkpt lat="43.17125" lon="6.64232">
        <ele>24.65</ele>
        <time>2016-04-30T11:59:26Z</time>
      </trkpt>
      <trkpt lat="43.17124" lon="6.64234">
        <ele>24.65</ele>
        <time>2016-04-30T11:59:28Z</time>
      </trkpt>
      <trkpt lat="43.17122" lon="6.64236">
        <ele>24.65</ele>
        <time>2016-04-30T11:59:30Z</time>
      </trkpt>
      <trkpt lat="43.1712" lon="6.64248">
        <ele>28.02</ele>
        <time>2016-04-30T11:59:44Z</time>
      </trkpt>
      <trkpt lat="43.17121" lon="6.64256">
        <ele>30.9</ele>
        <time>2016-04-30T11:59:56Z</time>
      </trkpt>
      <trkpt lat="43.17123" lon="6.64257">
        <ele>32.34</ele>
        <time>2016-04-30T12:00:09Z</time>
      </trkpt>
      <trkpt lat="43.17124" lon="6.64266">
        <ele>34.26</ele>
        <time>2016-04-30T12:00:20Z</time>
      </trkpt>
      <trkpt lat="43.17123" lon="6.6428">
        <ele>37.15</ele>
        <time>2016-04-30T12:00:33Z</time>
      </trkpt>
      <trkpt lat="43.1712" lon="6.64284">
        <ele>39.07</ele>
        <time>2016-04-30T12:00:46Z</time>
      </trkpt>
      <trkpt lat="43.17119" lon="6.64285">
        <ele>40.03</ele>
        <time>2016-04-30T12:01:00Z</time>
      </trkpt>
      <trkpt lat="43.17117" lon="6.64287">
        <ele>42.92</ele>
        <time>2016-04-30T12:01:12Z</time>
      </trkpt>
      <trkpt lat="43.17114" lon="6.64294">
        <ele>45.32</ele>
        <time>2016-04-30T12:01:27Z</time>
      </trkpt>
      <trkpt lat="43.17112" lon="6.643">
        <ele>47.24</ele>
        <time>2016-04-30T12:01:41Z</time>
      </trkpt>
      <trkpt lat="43.17112" lon="6.64301">
        <ele>47.24</ele>
        <time>2016-04-30T12:02:02Z</time>
      </trkpt>
      <trkpt lat="43.17112" lon="6.64301">
        <ele>47.24</ele>
        <time>2016-04-30T12:02:25Z</time>
      </trkpt>
      <trkpt lat="43.17113" lon="6.64301">
        <ele>47.24</ele>
        <time>2016-04-30T12:02:51Z</time>
      </trkpt>
      <trkpt lat="43.17111" lon="6.64306">
        <ele>48.2</ele>
        <time>2016-04-30T12:03:04Z</time>
      </trkpt>
      <trkpt lat="43.1711" lon="6.64307">
        <ele>50.13</ele>
        <time>2016-04-30T12:03:20Z</time>
      </trkpt>
      <trkpt lat="43.1711" lon="6.6431">
        <ele>53.01</ele>
        <time>2016-04-30T12:03:34Z</time>
      </trkpt>
      <trkpt lat="43.17107" lon="6.64317">
        <ele>53.49</ele>
        <time>2016-04-30T12:03:48Z</time>
      </trkpt>
      <trkpt lat="43.17104" lon="6.64326">
        <ele>55.89</ele>
        <time>2016-04-30T12:03:56Z</time>
      </trkpt>
      <trkpt lat="43.17095" lon="6.64338">
        <ele>57.82</ele>
        <time>2016-04-30T12:04:08Z</time>
      </trkpt>
      <trkpt lat="43.17095" lon="6.64339">
        <ele>57.34</ele>
        <time>2016-04-30T12:04:22Z</time>
      </trkpt>
      <trkpt lat="43.17093" lon="6.64341">
        <ele>56.86</ele>
        <time>2016-04-30T12:04:44Z</time>
      </trkpt>
      <trkpt lat="43.17091" lon="6.64344">
        <ele>56.37</ele>
        <time>2016-04-30T12:04:56Z</time>
      </trkpt>
      <trkpt lat="43.1709" lon="6.64345">
        <ele>56.86</ele>
        <time>2016-04-30T12:05:14Z</time>
      </trkpt>
      <trkpt lat="43.17091" lon="6.64346">
        <ele>56.86</ele>
        <time>2016-04-30T12:05:29Z</time>
      </trkpt>
      <trkpt lat="43.17086" lon="6.64348">
        <ele>55.89</ele>
        <time>2016-04-30T12:05:40Z</time>
      </trkpt>
      <trkpt lat="43.17082" lon="6.64352">
        <ele>56.37</ele>
        <time>2016-04-30T12:05:48Z</time>
      </trkpt>
      <trkpt lat="43.17078" lon="6.64354">
        <ele>56.37</ele>
        <time>2016-04-30T12:06:02Z</time>
      </trkpt>
      <trkpt lat="43.17071" lon="6.64361">
        <ele>55.41</ele>
        <time>2016-04-30T12:06:12Z</time>
      </trkpt>
      <trkpt lat="43.17067" lon="6.64363">
        <ele>54.93</ele>
        <time>2016-04-30T12:06:16Z</time>
      </trkpt>
      <trkpt lat="43.17063" lon="6.64364">
        <ele>53.97</ele>
        <time>2016-04-30T12:06:20Z</time>
      </trkpt>
      <trkpt lat="43.17057" lon="6.64373">
        <ele>54.45</ele>
        <time>2016-04-30T12:06:33Z</time>
      </trkpt>
      <trkpt lat="43.17056" lon="6.64374">
        <ele>53.97</ele>
        <time>2016-04-30T12:06:40Z</time>
      </trkpt>
      <trkpt lat="43.17054" lon="6.64375">
        <ele>53.97</ele>
        <time>2016-04-30T12:06:43Z</time>
      </trkpt>
      <trkpt lat="43.17051" lon="6.64378">
        <ele>53.97</ele>
        <time>2016-04-30T12:06:47Z</time>
      </trkpt>
      <trkpt lat="43.17046" lon="6.64383">
        <ele>53.97</ele>
        <time>2016-04-30T12:06:59Z</time>
      </trkpt>
      <trkpt lat="43.17039" lon="6.64385">
        <ele>53.49</ele>
        <time>2016-04-30T12:07:10Z</time>
      </trkpt>
      <trkpt lat="43.17034" lon="6.64388">
        <ele>52.53</ele>
        <time>2016-04-30T12:07:18Z</time>
      </trkpt>
      <trkpt lat="43.17032" lon="6.64388">
        <ele>52.05</ele>
        <time>2016-04-30T12:07:20Z</time>
      </trkpt>
      <trkpt lat="43.17027" lon="6.6439">
        <ele>51.09</ele>
        <time>2016-04-30T12:07:25Z</time>
      </trkpt>
      <trkpt lat="43.17021" lon="6.64406">
        <ele>52.05</ele>
        <time>2016-04-30T12:07:38Z</time>
      </trkpt>
      <trkpt lat="43.17011" lon="6.64412">
        <ele>49.65</ele>
        <time>2016-04-30T12:07:52Z</time>
      </trkpt>
      <trkpt lat="43.17001" lon="6.64413">
        <ele>47.72</ele>
        <time>2016-04-30T12:08:06Z</time>
      </trkpt>
      <trkpt lat="43.16997" lon="6.64418">
        <ele>45.8</ele>
        <time>2016-04-30T12:08:19Z</time>
      </trkpt>
      <trkpt lat="43.16995" lon="6.64421">
        <ele>44.84</ele>
        <time>2016-04-30T12:08:26Z</time>
      </trkpt>
      <trkpt lat="43.16985" lon="6.64426">
        <ele>42.44</ele>
        <time>2016-04-30T12:08:39Z</time>
      </trkpt>
      <trkpt lat="43.16978" lon="6.64427">
        <ele>41.47</ele>
        <time>2016-04-30T12:08:46Z</time>
      </trkpt>
      <trkpt lat="43.16974" lon="6.64429">
        <ele>40.99</ele>
        <time>2016-04-30T12:08:50Z</time>
      </trkpt>
      <trkpt lat="43.16964" lon="6.64445">
        <ele>39.07</ele>
        <time>2016-04-30T12:09:05Z</time>
      </trkpt>
      <trkpt lat="43.16963" lon="6.6445">
        <ele>39.55</ele>
        <time>2016-04-30T12:09:14Z</time>
      </trkpt>
      <trkpt lat="43.16962" lon="6.64452">
        <ele>39.55</ele>
        <time>2016-04-30T12:09:16Z</time>
      </trkpt>
      <trkpt lat="43.16957" lon="6.64463">
        <ele>41.47</ele>
        <time>2016-04-30T12:09:33Z</time>
      </trkpt>
      <trkpt lat="43.16954" lon="6.64472">
        <ele>42.92</ele>
        <time>2016-04-30T12:09:45Z</time>
      </trkpt>
      <trkpt lat="43.16952" lon="6.64478">
        <ele>43.88</ele>
        <time>2016-04-30T12:09:51Z</time>
      </trkpt>
      <trkpt lat="43.16943" lon="6.6449">
        <ele>46.76</ele>
        <time>2016-04-30T12:10:07Z</time>
      </trkpt>
      <trkpt lat="43.16939" lon="6.64488">
        <ele>46.76</ele>
        <time>2016-04-30T12:10:13Z</time>
      </trkpt>
      <trkpt lat="43.16938" lon="6.64489">
        <ele>47.24</ele>
        <time>2016-04-30T12:10:15Z</time>
      </trkpt>
      <trkpt lat="43.16936" lon="6.6449">
        <ele>47.24</ele>
        <time>2016-04-30T12:10:17Z</time>
      </trkpt>
      <trkpt lat="43.16935" lon="6.64492">
        <ele>48.68</ele>
        <time>2016-04-30T12:10:19Z</time>
      </trkpt>
      <trkpt lat="43.16934" lon="6.64507">
        <ele>51.09</ele>
        <time>2016-04-30T12:10:30Z</time>
      </trkpt>
      <trkpt lat="43.16935" lon="6.64517">
        <ele>53.01</ele>
        <time>2016-04-30T12:10:42Z</time>
      </trkpt>
      <trkpt lat="43.16934" lon="6.64521">
        <ele>53.97</ele>
        <time>2016-04-30T12:10:46Z</time>
      </trkpt>
      <trkpt lat="43.16929" lon="6.64533">
        <ele>55.89</ele>
        <time>2016-04-30T12:10:58Z</time>
      </trkpt>
      <trkpt lat="43.1692" lon="6.64545">
        <ele>57.34</ele>
        <time>2016-04-30T12:11:12Z</time>
      </trkpt>
      <trkpt lat="43.16915" lon="6.64546">
        <ele>57.82</ele>
        <time>2016-04-30T12:11:23Z</time>
      </trkpt>
      <trkpt lat="43.16912" lon="6.64549">
        <ele>58.3</ele>
        <time>2016-04-30T12:11:27Z</time>
      </trkpt>
      <trkpt lat="43.1691" lon="6.64549">
        <ele>58.78</ele>
        <time>2016-04-30T12:11:29Z</time>
      </trkpt>
      <trkpt lat="43.16905" lon="6.64553">
        <ele>59.74</ele>
        <time>2016-04-30T12:11:38Z</time>
      </trkpt>
      <trkpt lat="43.16902" lon="6.64556">
        <ele>60.22</ele>
        <time>2016-04-30T12:11:42Z</time>
      </trkpt>
      <trkpt lat="43.169" lon="6.64562">
        <ele>61.18</ele>
        <time>2016-04-30T12:11:48Z</time>
      </trkpt>
      <trkpt lat="43.16898" lon="6.64565">
        <ele>61.66</ele>
        <time>2016-04-30T12:11:51Z</time>
      </trkpt>
      <trkpt lat="43.1689" lon="6.64571">
        <ele>62.62</ele>
        <time>2016-04-30T12:12:05Z</time>
      </trkpt>
      <trkpt lat="43.16889" lon="6.64567">
        <ele>63.58</ele>
        <time>2016-04-30T12:12:18Z</time>
      </trkpt>
      <trkpt lat="43.16887" lon="6.64574">
        <ele>63.1</ele>
        <time>2016-04-30T12:12:32Z</time>
      </trkpt>
      <trkpt lat="43.16885" lon="6.64574">
        <ele>62.62</ele>
        <time>2016-04-30T12:12:50Z</time>
      </trkpt>
      <trkpt lat="43.16884" lon="6.64576">
        <ele>63.1</ele>
        <time>2016-04-30T12:13:04Z</time>
      </trkpt>
      <trkpt lat="43.16886" lon="6.64575">
        <ele>62.62</ele>
        <time>2016-04-30T12:13:18Z</time>
      </trkpt>
      <trkpt lat="43.16887" lon="6.64576">
        <ele>62.62</ele>
        <time>2016-04-30T12:13:34Z</time>
      </trkpt>
      <trkpt lat="43.1689" lon="6.64575">
        <ele>62.62</ele>
        <time>2016-04-30T12:13:36Z</time>
      </trkpt>
      <trkpt lat="43.16891" lon="6.6458">
        <ele>62.14</ele>
        <time>2016-04-30T12:13:50Z</time>
      </trkpt>
      <trkpt lat="43.16889" lon="6.64582">
        <ele>62.62</ele>
        <time>2016-04-30T12:14:08Z</time>
      </trkpt>
      <trkpt lat="43.16888" lon="6.64582">
        <ele>62.14</ele>
        <time>2016-04-30T12:14:22Z</time>
      </trkpt>
      <trkpt lat="43.16887" lon="6.6458">
        <ele>61.66</ele>
        <time>2016-04-30T12:14:33Z</time>
      </trkpt>
      <trkpt lat="43.16887" lon="6.6458">
        <ele>62.14</ele>
        <time>2016-04-30T12:14:34Z</time>
      </trkpt>
      <trkpt lat="43.16887" lon="6.64573">
        <ele>62.62</ele>
        <time>2016-04-30T12:14:42Z</time>
      </trkpt>
      <trkpt lat="43.16885" lon="6.64576">
        <ele>62.14</ele>
        <time>2016-04-30T12:14:47Z</time>
      </trkpt>
      <trkpt lat="43.16884" lon="6.64573">
        <ele>62.14</ele>
        <time>2016-04-30T12:14:49Z</time>
      </trkpt>
      <trkpt lat="43.16883" lon="6.64562">
        <ele>59.74</ele>
        <time>2016-04-30T12:14:59Z</time>
      </trkpt>
      <trkpt lat="43.16885" lon="6.64565">
        <ele>61.66</ele>
        <time>2016-04-30T12:15:12Z</time>
      </trkpt>
      <trkpt lat="43.16887" lon="6.64563">
        <ele>60.7</ele>
        <time>2016-04-30T12:15:25Z</time>
      </trkpt>
      <trkpt lat="43.16887" lon="6.64558">
        <ele>60.7</ele>
        <time>2016-04-30T12:15:38Z</time>
      </trkpt>
      <trkpt lat="43.16891" lon="6.64557">
        <ele>60.22</ele>
        <time>2016-04-30T12:15:53Z</time>
      </trkpt>
      <trkpt lat="43.16891" lon="6.64556">
        <ele>60.7</ele>
        <time>2016-04-30T12:16:11Z</time>
      </trkpt>
      <trkpt lat="43.16892" lon="6.6456">
        <ele>62.14</ele>
        <time>2016-04-30T12:16:23Z</time>
      </trkpt>
      <trkpt lat="43.16892" lon="6.6456">
        <ele>62.14</ele>
        <time>2016-04-30T12:16:35Z</time>
      </trkpt>
      <trkpt lat="43.16892" lon="6.64556">
        <ele>60.7</ele>
        <time>2016-04-30T12:16:47Z</time>
      </trkpt>
      <trkpt lat="43.16894" lon="6.64562">
        <ele>62.14</ele>
        <time>2016-04-30T12:17:00Z</time>
      </trkpt>
      <trkpt lat="43.16892" lon="6.64574">
        <ele>63.58</ele>
        <time>2016-04-30T12:17:14Z</time>
      </trkpt>
      <trkpt lat="43.16897" lon="6.64576">
        <ele>62.62</ele>
        <time>2016-04-30T12:17:27Z</time>
      </trkpt>
      <trkpt lat="43.16896" lon="6.64577">
        <ele>63.1</ele>
        <time>2016-04-30T12:17:42Z</time>
      </trkpt>
      <trkpt lat="43.16894" lon="6.64579">
        <ele>62.62</ele>
        <time>2016-04-30T12:17:56Z</time>
      </trkpt>
      <trkpt lat="43.16894" lon="6.64578">
        <ele>62.62</ele>
        <time>2016-04-30T12:18:24Z</time>
      </trkpt>
      <trkpt lat="43.16894" lon="6.64578">
        <ele>62.62</ele>
        <time>2016-04-30T12:18:59Z</time>
      </trkpt>
      <trkpt lat="43.16894" lon="6.64579">
        <ele>62.62</ele>
        <time>2016-04-30T12:19:31Z</time>
      </trkpt>
      <trkpt lat="43.16894" lon="6.64579">
        <ele>62.62</ele>
        <time>2016-04-30T12:20:04Z</time>
      </trkpt>
      <trkpt lat="43.16895" lon="6.64577">
        <ele>63.58</ele>
        <time>2016-04-30T12:20:22Z</time>
      </trkpt>
      <trkpt lat="43.16895" lon="6.64577">
        <ele>63.1</ele>
        <time>2016-04-30T12:20:46Z</time>
      </trkpt>
      <trkpt lat="43.16893" lon="6.64577">
        <ele>63.1</ele>
        <time>2016-04-30T12:20:58Z</time>
      </trkpt>
      <trkpt lat="43.16893" lon="6.64576">
        <ele>63.58</ele>
        <time>2016-04-30T12:21:15Z</time>
      </trkpt>
      <trkpt lat="43.16893" lon="6.64576">
        <ele>63.1</ele>
        <time>2016-04-30T12:21:30Z</time>
      </trkpt>
      <trkpt lat="43.16894" lon="6.64577">
        <ele>63.58</ele>
        <time>2016-04-30T12:21:43Z</time>
      </trkpt>
      <trkpt lat="43.16894" lon="6.64577">
        <ele>62.62</ele>
        <time>2016-04-30T12:22:09Z</time>
      </trkpt>
      <trkpt lat="43.16894" lon="6.64577">
        <ele>63.1</ele>
        <time>2016-04-30T12:22:24Z</time>
      </trkpt>
      <trkpt lat="43.16894" lon="6.64577">
        <ele>63.1</ele>
        <time>2016-04-30T12:22:39Z</time>
      </trkpt>
      <trkpt lat="43.16891" lon="6.64573">
        <ele>63.58</ele>
        <time>2016-04-30T12:22:53Z</time>
      </trkpt>
      <trkpt lat="43.16894" lon="6.64574">
        <ele>63.58</ele>
        <time>2016-04-30T12:23:05Z</time>
      </trkpt>
      <trkpt lat="43.16895" lon="6.64576">
        <ele>63.58</ele>
        <time>2016-04-30T12:23:25Z</time>
      </trkpt>
      <trkpt lat="43.16897" lon="6.64576">
        <ele>62.62</ele>
        <time>2016-04-30T12:23:39Z</time>
      </trkpt>
      <trkpt lat="43.16894" lon="6.64576">
        <ele>63.58</ele>
        <time>2016-04-30T12:23:52Z</time>
      </trkpt>
      <trkpt lat="43.16893" lon="6.64577">
        <ele>63.58</ele>
        <time>2016-04-30T12:24:12Z</time>
      </trkpt>
      <trkpt lat="43.16893" lon="6.64577">
        <ele>63.58</ele>
        <time>2016-04-30T12:24:24Z</time>
      </trkpt>
      <trkpt lat="43.16893" lon="6.64576">
        <ele>63.1</ele>
        <time>2016-04-30T12:24:35Z</time>
      </trkpt>
      <trkpt lat="43.16892" lon="6.64577">
        <ele>63.1</ele>
        <time>2016-04-30T12:24:37Z</time>
      </trkpt>
      <trkpt lat="43.16892" lon="6.64578">
        <ele>63.58</ele>
        <time>2016-04-30T12:24:51Z</time>
      </trkpt>
      <trkpt lat="43.16893" lon="6.64577">
        <ele>63.1</ele>
        <time>2016-04-30T12:25:08Z</time>
      </trkpt>
      <trkpt lat="43.16896" lon="6.64576">
        <ele>63.1</ele>
        <time>2016-04-30T12:25:23Z</time>
      </trkpt>
      <trkpt lat="43.16899" lon="6.64574">
        <ele>63.1</ele>
        <time>2016-04-30T12:25:34Z</time>
      </trkpt>
      <trkpt lat="43.16899" lon="6.64566">
        <ele>62.14</ele>
        <time>2016-04-30T12:25:47Z</time>
      </trkpt>
      <trkpt lat="43.16904" lon="6.64565">
        <ele>62.14</ele>
        <time>2016-04-30T12:25:59Z</time>
      </trkpt>
      <trkpt lat="43.16904" lon="6.64565">
        <ele>61.66</ele>
        <time>2016-04-30T12:26:23Z</time>
      </trkpt>
      <trkpt lat="43.16902" lon="6.64563">
        <ele>61.66</ele>
        <time>2016-04-30T12:26:41Z</time>
      </trkpt>
      <trkpt lat="43.16908" lon="6.64552">
        <ele>60.22</ele>
        <time>2016-04-30T12:26:55Z</time>
      </trkpt>
      <trkpt lat="43.16909" lon="6.64551">
        <ele>60.22</ele>
        <time>2016-04-30T12:26:56Z</time>
      </trkpt>
      <trkpt lat="43.16915" lon="6.64547">
        <ele>58.78</ele>
        <time>2016-04-30T12:27:08Z</time>
      </trkpt>
      <trkpt lat="43.16923" lon="6.6454">
        <ele>57.82</ele>
        <time>2016-04-30T12:27:21Z</time>
      </trkpt>
      <trkpt lat="43.16928" lon="6.64535">
        <ele>57.34</ele>
        <time>2016-04-30T12:27:34Z</time>
      </trkpt>
      <trkpt lat="43.16932" lon="6.6453">
        <ele>56.37</ele>
        <time>2016-04-30T12:27:48Z</time>
      </trkpt>
      <trkpt lat="43.16934" lon="6.64529">
        <ele>56.37</ele>
        <time>2016-04-30T12:27:51Z</time>
      </trkpt>
      <trkpt lat="43.16937" lon="6.64515">
        <ele>54.45</ele>
        <time>2016-04-30T12:28:04Z</time>
      </trkpt>
      <trkpt lat="43.16939" lon="6.64511">
        <ele>52.53</ele>
        <time>2016-04-30T12:28:16Z</time>
      </trkpt>
      <trkpt lat="43.16936" lon="6.64495">
        <ele>50.61</ele>
        <time>2016-04-30T12:28:29Z</time>
      </trkpt>
      <trkpt lat="43.16942" lon="6.6449">
        <ele>48.2</ele>
        <time>2016-04-30T12:28:43Z</time>
      </trkpt>
      <trkpt lat="43.16946" lon="6.64486">
        <ele>46.28</ele>
        <time>2016-04-30T12:28:55Z</time>
      </trkpt>
      <trkpt lat="43.16948" lon="6.64483">
        <ele>45.8</ele>
        <time>2016-04-30T12:28:58Z</time>
      </trkpt>
      <trkpt lat="43.16949" lon="6.64481">
        <ele>45.32</ele>
        <time>2016-04-30T12:29:00Z</time>
      </trkpt>
      <trkpt lat="43.16952" lon="6.64479">
        <ele>45.32</ele>
        <time>2016-04-30T12:29:03Z</time>
      </trkpt>
      <trkpt lat="43.16956" lon="6.64468">
        <ele>43.4</ele>
        <time>2016-04-30T12:29:15Z</time>
      </trkpt>
      <trkpt lat="43.16958" lon="6.64465">
        <ele>42.44</ele>
        <time>2016-04-30T12:29:22Z</time>
      </trkpt>
      <trkpt lat="43.16962" lon="6.64456">
        <ele>40.51</ele>
        <time>2016-04-30T12:29:38Z</time>
      </trkpt>
      <trkpt lat="43.16964" lon="6.64453">
        <ele>40.51</ele>
        <time>2016-04-30T12:29:49Z</time>
      </trkpt>
      <trkpt lat="43.16971" lon="6.64432">
        <ele>40.51</ele>
        <time>2016-04-30T12:30:04Z</time>
      </trkpt>
      <trkpt lat="43.16979" lon="6.64428">
        <ele>41.95</ele>
        <time>2016-04-30T12:30:14Z</time>
      </trkpt>
      <trkpt lat="43.1699" lon="6.64423">
        <ele>44.36</ele>
        <time>2016-04-30T12:30:31Z</time>
      </trkpt>
      <trkpt lat="43.16998" lon="6.64418">
        <ele>45.8</ele>
        <time>2016-04-30T12:30:43Z</time>
      </trkpt>
      <trkpt lat="43.17002" lon="6.64412">
        <ele>48.2</ele>
        <time>2016-04-30T12:30:57Z</time>
      </trkpt>
      <trkpt lat="43.17009" lon="6.64408">
        <ele>50.13</ele>
        <time>2016-04-30T12:31:06Z</time>
      </trkpt>
      <trkpt lat="43.17017" lon="6.64406">
        <ele>51.57</ele>
        <time>2016-04-30T12:31:18Z</time>
      </trkpt>
      <trkpt lat="43.17022" lon="6.64402">
        <ele>53.01</ele>
        <time>2016-04-30T12:31:26Z</time>
      </trkpt>
      <trkpt lat="43.17024" lon="6.64396">
        <ele>53.01</ele>
        <time>2016-04-30T12:31:31Z</time>
      </trkpt>
      <trkpt lat="43.17026" lon="6.64393">
        <ele>52.53</ele>
        <time>2016-04-30T12:31:34Z</time>
      </trkpt>
      <trkpt lat="43.17034" lon="6.64386">
        <ele>53.49</ele>
        <time>2016-04-30T12:31:48Z</time>
      </trkpt>
      <trkpt lat="43.17039" lon="6.64383">
        <ele>54.93</ele>
        <time>2016-04-30T12:32:01Z</time>
      </trkpt>
      <trkpt lat="43.17043" lon="6.64381">
        <ele>54.93</ele>
        <time>2016-04-30T12:32:07Z</time>
      </trkpt>
      <trkpt lat="43.17049" lon="6.64376">
        <ele>54.93</ele>
        <time>2016-04-30T12:32:20Z</time>
      </trkpt>
      <trkpt lat="43.17056" lon="6.64373">
        <ele>55.41</ele>
        <time>2016-04-30T12:32:33Z</time>
      </trkpt>
      <trkpt lat="43.17056" lon="6.64373">
        <ele>55.41</ele>
        <time>2016-04-30T12:32:50Z</time>
      </trkpt>
      <trkpt lat="43.1706" lon="6.64365">
        <ele>55.41</ele>
        <time>2016-04-30T12:32:58Z</time>
      </trkpt>
      <trkpt lat="43.17067" lon="6.64359">
        <ele>55.89</ele>
        <time>2016-04-30T12:33:10Z</time>
      </trkpt>
      <trkpt lat="43.17071" lon="6.64354">
        <ele>56.37</ele>
        <time>2016-04-30T12:33:22Z</time>
      </trkpt>
      <trkpt lat="43.1708" lon="6.6435">
        <ele>56.86</ele>
        <time>2016-04-30T12:33:35Z</time>
      </trkpt>
      <trkpt lat="43.17081" lon="6.64349">
        <ele>57.34</ele>
        <time>2016-04-30T12:33:36Z</time>
      </trkpt>
      <trkpt lat="43.17086" lon="6.64344">
        <ele>57.34</ele>
        <time>2016-04-30T12:33:49Z</time>
      </trkpt>
      <trkpt lat="43.17091" lon="6.64341">
        <ele>57.82</ele>
        <time>2016-04-30T12:34:03Z</time>
      </trkpt>
      <trkpt lat="43.17096" lon="6.64339">
        <ele>58.3</ele>
        <time>2016-04-30T12:34:13Z</time>
      </trkpt>
      <trkpt lat="43.17101" lon="6.64334">
        <ele>55.89</ele>
        <time>2016-04-30T12:34:28Z</time>
      </trkpt>
      <trkpt lat="43.17103" lon="6.6433">
        <ele>53.97</ele>
        <time>2016-04-30T12:34:41Z</time>
      </trkpt>
      <trkpt lat="43.17106" lon="6.64326">
        <ele>53.49</ele>
        <time>2016-04-30T12:34:53Z</time>
      </trkpt>
      <trkpt lat="43.17106" lon="6.6432">
        <ele>51.09</ele>
        <time>2016-04-30T12:35:05Z</time>
      </trkpt>
      <trkpt lat="43.1711" lon="6.64312">
        <ele>49.16</ele>
        <time>2016-04-30T12:35:19Z</time>
      </trkpt>
      <trkpt lat="43.17109" lon="6.64302">
        <ele>47.72</ele>
        <time>2016-04-30T12:35:32Z</time>
      </trkpt>
      <trkpt lat="43.17109" lon="6.64302">
        <ele>47.72</ele>
        <time>2016-04-30T12:35:33Z</time>
      </trkpt>
      <trkpt lat="43.17109" lon="6.643">
        <ele>47.24</ele>
        <time>2016-04-30T12:35:46Z</time>
      </trkpt>
      <trkpt lat="43.17111" lon="6.64297">
        <ele>46.76</ele>
        <time>2016-04-30T12:35:57Z</time>
      </trkpt>
      <trkpt lat="43.1711" lon="6.64296">
        <ele>44.84</ele>
        <time>2016-04-30T12:36:00Z</time>
      </trkpt>
      <trkpt lat="43.17111" lon="6.64294">
        <ele>42.44</ele>
        <time>2016-04-30T12:36:09Z</time>
      </trkpt>
      <trkpt lat="43.17107" lon="6.64292">
        <ele>40.51</ele>
        <time>2016-04-30T12:36:20Z</time>
      </trkpt>
      <trkpt lat="43.17109" lon="6.64286">
        <ele>38.11</ele>
        <time>2016-04-30T12:36:29Z</time>
      </trkpt>
      <trkpt lat="43.17109" lon="6.6428">
        <ele>35.23</ele>
        <time>2016-04-30T12:36:43Z</time>
      </trkpt>
      <trkpt lat="43.17111" lon="6.6427">
        <ele>32.82</ele>
        <time>2016-04-30T12:36:55Z</time>
      </trkpt>
      <trkpt lat="43.17111" lon="6.64262">
        <ele>29.94</ele>
        <time>2016-04-30T12:37:09Z</time>
      </trkpt>
      <trkpt lat="43.1711" lon="6.64252">
        <ele>27.05</ele>
        <time>2016-04-30T12:37:23Z</time>
      </trkpt>
      <trkpt lat="43.17111" lon="6.64251">
        <ele>23.69</ele>
        <time>2016-04-30T12:37:33Z</time>
      </trkpt>
      <trkpt lat="43.17108" lon="6.64236">
        <ele>20.32</ele>
        <time>2016-04-30T12:37:50Z</time>
      </trkpt>
      <trkpt lat="43.1711" lon="6.64231">
        <ele>17.44</ele>
        <time>2016-04-30T12:38:02Z</time>
      </trkpt>
      <trkpt lat="43.17124" lon="6.64217">
        <ele>17.44</ele>
        <time>2016-04-30T12:38:18Z</time>
      </trkpt>
      <trkpt lat="43.17141" lon="6.64204">
        <ele>16</ele>
        <time>2016-04-30T12:38:36Z</time>
      </trkpt>
      <trkpt lat="43.17154" lon="6.64192">
        <ele>15.04</ele>
        <time>2016-04-30T12:38:55Z</time>
      </trkpt>
      <trkpt lat="43.17161" lon="6.64184">
        <ele>15.04</ele>
        <time>2016-04-30T12:39:05Z</time>
      </trkpt>
      <trkpt lat="43.17176" lon="6.64172">
        <ele>16</ele>
        <time>2016-04-30T12:39:21Z</time>
      </trkpt>
      <trkpt lat="43.17189" lon="6.64164">
        <ele>16.48</ele>
        <time>2016-04-30T12:39:34Z</time>
      </trkpt>
      <trkpt lat="43.17193" lon="6.6415">
        <ele>13.6</ele>
        <time>2016-04-30T12:39:48Z</time>
      </trkpt>
      <trkpt lat="43.172" lon="6.64138">
        <ele>11.19</ele>
        <time>2016-04-30T12:40:02Z</time>
      </trkpt>
      <trkpt lat="43.17201" lon="6.64135">
        <ele>10.71</ele>
        <time>2016-04-30T12:40:04Z</time>
      </trkpt>
      <trkpt lat="43.17203" lon="6.64124">
        <ele>8.79</ele>
        <time>2016-04-30T12:40:14Z</time>
      </trkpt>
      <trkpt lat="43.17206" lon="6.64112">
        <ele>7.35</ele>
        <time>2016-04-30T12:40:26Z</time>
      </trkpt>
      <trkpt lat="43.17214" lon="6.64095">
        <ele>5.42</ele>
        <time>2016-04-30T12:40:40Z</time>
      </trkpt>
      <trkpt lat="43.1722" lon="6.64078">
        <ele>3.98</ele>
        <time>2016-04-30T12:40:53Z</time>
      </trkpt>
      <trkpt lat="43.17223" lon="6.64062">
        <ele>3.5</ele>
        <time>2016-04-30T12:41:06Z</time>
      </trkpt>
      <trkpt lat="43.17228" lon="6.6405">
        <ele>2.54</ele>
        <time>2016-04-30T12:41:17Z</time>
      </trkpt>
      <trkpt lat="43.17233" lon="6.6405">
        <ele>2.06</ele>
        <time>2016-04-30T12:41:24Z</time>
      </trkpt>
      <trkpt lat="43.1723" lon="6.64042">
        <ele>-0.34</ele>
        <time>2016-04-30T12:41:30Z</time>
      </trkpt>
      <trkpt lat="43.1723" lon="6.64037">
        <ele>-0.82</ele>
        <time>2016-04-30T12:41:35Z</time>
      </trkpt>
      <trkpt lat="43.1723" lon="6.64034">
        <ele>-0.34</ele>
        <time>2016-04-30T12:41:37Z</time>
      </trkpt>
      <trkpt lat="43.17236" lon="6.64013">
        <ele>0.14</ele>
        <time>2016-04-30T12:41:52Z</time>
      </trkpt>
      <trkpt lat="43.17238" lon="6.64009">
        <ele>-0.34</ele>
        <time>2016-04-30T12:41:56Z</time>
      </trkpt>
      <trkpt lat="43.1724" lon="6.64005">
        <ele>0.62</ele>
        <time>2016-04-30T12:41:59Z</time>
      </trkpt>
      <trkpt lat="43.17245" lon="6.63987">
        <ele>0.62</ele>
        <time>2016-04-30T12:42:12Z</time>
      </trkpt>
      <trkpt lat="43.17248" lon="6.63983">
        <ele>0.62</ele>
        <time>2016-04-30T12:42:16Z</time>
      </trkpt>
      <trkpt lat="43.17252" lon="6.6398">
        <ele>1.1</ele>
        <time>2016-04-30T12:42:20Z</time>
      </trkpt>
      <trkpt lat="43.17256" lon="6.63975">
        <ele>0.62</ele>
        <time>2016-04-30T12:42:26Z</time>
      </trkpt>
      <trkpt lat="43.17267" lon="6.63969">
        <ele>0.62</ele>
        <time>2016-04-30T12:42:37Z</time>
      </trkpt>
      <trkpt lat="43.1727" lon="6.63968">
        <ele>0.62</ele>
        <time>2016-04-30T12:42:40Z</time>
      </trkpt>
      <trkpt lat="43.17274" lon="6.63965">
        <ele>0.14</ele>
        <time>2016-04-30T12:42:44Z</time>
      </trkpt>
      <trkpt lat="43.17276" lon="6.63963">
        <ele>0.62</ele>
        <time>2016-04-30T12:42:46Z</time>
      </trkpt>
      <trkpt lat="43.17289" lon="6.63949">
        <ele>-0.34</ele>
        <time>2016-04-30T12:43:02Z</time>
      </trkpt>
      <trkpt lat="43.17293" lon="6.63944">
        <ele>0.14</ele>
        <time>2016-04-30T12:43:08Z</time>
      </trkpt>
      <trkpt lat="43.17302" lon="6.6394">
        <ele>0.62</ele>
        <time>2016-04-30T12:43:17Z</time>
      </trkpt>
      <trkpt lat="43.17305" lon="6.63937">
        <ele>0.62</ele>
        <time>2016-04-30T12:43:21Z</time>
      </trkpt>
      <trkpt lat="43.17306" lon="6.63935">
        <ele>-0.82</ele>
        <time>2016-04-30T12:43:31Z</time>
      </trkpt>
      <trkpt lat="43.17308" lon="6.63935">
        <ele>-0.34</ele>
        <time>2016-04-30T12:43:43Z</time>
      </trkpt>
      <trkpt lat="43.17308" lon="6.63935">
        <ele>-0.34</ele>
        <time>2016-04-30T12:44:10Z</time>
      </trkpt>
      <trkpt lat="43.17308" lon="6.63935">
        <ele>-0.34</ele>
        <time>2016-04-30T12:44:40Z</time>
      </trkpt>
      <trkpt lat="43.17308" lon="6.63934">
        <ele>-0.34</ele>
        <time>2016-04-30T12:45:11Z</time>
      </trkpt>
      <trkpt lat="43.17308" lon="6.63934">
        <ele>-0.34</ele>
        <time>2016-04-30T12:45:45Z</time>
      </trkpt>
      <trkpt lat="43.17308" lon="6.63934">
        <ele>0.14</ele>
        <time>2016-04-30T12:46:15Z</time>
      </trkpt>
      <trkpt lat="43.17308" lon="6.63934">
        <ele>-0.34</ele>
        <time>2016-04-30T12:46:43Z</time>
      </trkpt>
      <trkpt lat="43.17307" lon="6.63935">
        <ele>-0.34</ele>
        <time>2016-04-30T12:47:14Z</time>
      </trkpt>
      <trkpt lat="43.17307" lon="6.63935">
        <ele>-0.34</ele>
        <time>2016-04-30T12:47:45Z</time>
      </trkpt>
      <trkpt lat="43.17307" lon="6.63935">
        <ele>-0.34</ele>
        <time>2016-04-30T12:48:16Z</time>
      </trkpt>
      <trkpt lat="43.17307" lon="6.63935">
        <ele>-0.34</ele>
        <time>2016-04-30T12:48:44Z</time>
      </trkpt>
      <trkpt lat="43.17307" lon="6.63934">
        <ele>0.14</ele>
        <time>2016-04-30T12:49:09Z</time>
      </trkpt>
      <trkpt lat="43.17307" lon="6.63934">
        <ele>0.62</ele>
        <time>2016-04-30T12:49:33Z</time>
      </trkpt>
      <trkpt lat="43.17308" lon="6.63934">
        <ele>0.14</ele>
        <time>2016-04-30T12:49:49Z</time>
      </trkpt>
      <trkpt lat="43.17308" lon="6.63934">
        <ele>0.14</ele>
        <time>2016-04-30T12:50:26Z</time>
      </trkpt>
      <trkpt lat="43.17307" lon="6.63934">
        <ele>0.14</ele>
        <time>2016-04-30T12:50:59Z</time>
      </trkpt>
      <trkpt lat="43.17307" lon="6.63934">
        <ele>0.14</ele>
        <time>2016-04-30T12:51:30Z</time>
      </trkpt>
      <trkpt lat="43.17307" lon="6.63933">
        <ele>0.62</ele>
        <time>2016-04-30T12:52:08Z</time>
      </trkpt>
      <trkpt lat="43.17307" lon="6.63933">
        <ele>0.62</ele>
        <time>2016-04-30T12:52:44Z</time>
      </trkpt>
      <trkpt lat="43.17308" lon="6.63934">
        <ele>0.62</ele>
        <time>2016-04-30T12:53:18Z</time>
      </trkpt>
      <trkpt lat="43.17308" lon="6.63934">
        <ele>0.62</ele>
        <time>2016-04-30T12:53:53Z</time>
      </trkpt>
      <trkpt lat="43.17308" lon="6.63934">
        <ele>0.62</ele>
        <time>2016-04-30T12:54:27Z</time>
      </trkpt>
      <trkpt lat="43.17308" lon="6.63934">
        <ele>0.62</ele>
        <time>2016-04-30T12:55:02Z</time>
      </trkpt>
      <trkpt lat="43.17308" lon="6.63934">
        <ele>0.62</ele>
        <time>2016-04-30T12:55:31Z</time>
      </trkpt>
      <trkpt lat="43.17308" lon="6.63934">
        <ele>1.1</ele>
        <time>2016-04-30T12:56:05Z</time>
      </trkpt>
      <trkpt lat="43.17308" lon="6.63935">
        <ele>0.62</ele>
        <time>2016-04-30T12:56:36Z</time>
      </trkpt>
      <trkpt lat="43.17308" lon="6.63935">
        <ele>0.62</ele>
        <time>2016-04-30T12:57:10Z</time>
      </trkpt>
      <trkpt lat="43.17307" lon="6.63935">
        <ele>0.62</ele>
        <time>2016-04-30T12:57:45Z</time>
      </trkpt>
      <trkpt lat="43.17307" lon="6.63935">
        <ele>1.1</ele>
        <time>2016-04-30T12:58:20Z</time>
      </trkpt>
      <trkpt lat="43.17307" lon="6.63935">
        <ele>1.1</ele>
        <time>2016-04-30T12:58:50Z</time>
      </trkpt>
      <trkpt lat="43.17308" lon="6.63935">
        <ele>1.1</ele>
        <time>2016-04-30T12:59:19Z</time>
      </trkpt>
      <trkpt lat="43.17308" lon="6.63935">
        <ele>1.1</ele>
        <time>2016-04-30T12:59:47Z</time>
      </trkpt>
      <trkpt lat="43.17308" lon="6.63936">
        <ele>1.58</ele>
        <time>2016-04-30T13:00:17Z</time>
      </trkpt>
      <trkpt lat="43.17308" lon="6.63936">
        <ele>1.58</ele>
        <time>2016-04-30T13:00:51Z</time>
      </trkpt>
      <trkpt lat="43.17308" lon="6.63935">
        <ele>1.58</ele>
        <time>2016-04-30T13:01:27Z</time>
      </trkpt>
      <trkpt lat="43.17308" lon="6.63935">
        <ele>1.58</ele>
        <time>2016-04-30T13:02:03Z</time>
      </trkpt>
      <trkpt lat="43.17308" lon="6.63936">
        <ele>1.58</ele>
        <time>2016-04-30T13:02:36Z</time>
      </trkpt>
      <trkpt lat="43.17308" lon="6.63936">
        <ele>1.58</ele>
        <time>2016-04-30T13:03:10Z</time>
      </trkpt>
      <trkpt lat="43.17308" lon="6.63935">
        <ele>2.06</ele>
        <time>2016-04-30T13:03:48Z</time>
      </trkpt>
      <trkpt lat="43.17308" lon="6.63935">
        <ele>2.06</ele>
        <time>2016-04-30T13:04:21Z</time>
      </trkpt>
      <trkpt lat="43.17308" lon="6.63935">
        <ele>1.58</ele>
        <time>2016-04-30T13:04:54Z</time>
      </trkpt>
      <trkpt lat="43.17308" lon="6.63936">
        <ele>2.06</ele>
        <time>2016-04-30T13:05:29Z</time>
      </trkpt>
      <trkpt lat="43.17308" lon="6.63935">
        <ele>2.06</ele>
        <time>2016-04-30T13:06:03Z</time>
      </trkpt>
      <trkpt lat="43.17308" lon="6.63935">
        <ele>2.06</ele>
        <time>2016-04-30T13:06:26Z</time>
      </trkpt>
      <trkpt lat="43.17308" lon="6.63935">
        <ele>2.06</ele>
        <time>2016-04-30T13:07:03Z</time>
      </trkpt>
      <trkpt lat="43.17308" lon="6.63935">
        <ele>2.06</ele>
        <time>2016-04-30T13:07:33Z</time>
      </trkpt>
      <trkpt lat="43.17308" lon="6.63935">
        <ele>2.06</ele>
        <time>2016-04-30T13:08:11Z</time>
      </trkpt>
      <trkpt lat="43.17308" lon="6.63935">
        <ele>2.06</ele>
        <time>2016-04-30T13:08:44Z</time>
      </trkpt>
      <trkpt lat="43.17308" lon="6.63935">
        <ele>2.54</ele>
        <time>2016-04-30T13:09:15Z</time>
      </trkpt>
      <trkpt lat="43.17308" lon="6.63935">
        <ele>2.06</ele>
        <time>2016-04-30T13:09:48Z</time>
      </trkpt>
      <trkpt lat="43.17308" lon="6.63935">
        <ele>2.54</ele>
        <time>2016-04-30T13:10:21Z</time>
      </trkpt>
      <trkpt lat="43.17308" lon="6.63935">
        <ele>2.54</ele>
        <time>2016-04-30T13:10:51Z</time>
      </trkpt>
      <trkpt lat="43.17308" lon="6.63935">
        <ele>2.54</ele>
        <time>2016-04-30T13:11:23Z</time>
      </trkpt>
      <trkpt lat="43.17308" lon="6.63935">
        <ele>2.06</ele>
        <time>2016-04-30T13:11:57Z</time>
      </trkpt>
      <trkpt lat="43.17309" lon="6.63938">
        <ele>2.54</ele>
        <time>2016-04-30T13:12:07Z</time>
      </trkpt>
      <trkpt lat="43.17308" lon="6.63937">
        <ele>2.06</ele>
        <time>2016-04-30T13:12:19Z</time>
      </trkpt>
      <trkpt lat="43.17308" lon="6.63937">
        <ele>2.06</ele>
        <time>2016-04-30T13:12:52Z</time>
      </trkpt>
      <trkpt lat="43.17308" lon="6.63937">
        <ele>2.06</ele>
        <time>2016-04-30T13:13:30Z</time>
      </trkpt>
      <trkpt lat="43.17308" lon="6.63937">
        <ele>2.06</ele>
        <time>2016-04-30T13:14:06Z</time>
      </trkpt>
      <trkpt lat="43.17308" lon="6.63938">
        <ele>2.54</ele>
        <time>2016-04-30T13:14:19Z</time>
      </trkpt>
      <trkpt lat="43.17302" lon="6.63939">
        <ele>3.5</ele>
        <time>2016-04-30T13:14:26Z</time>
      </trkpt>
      <trkpt lat="43.17299" lon="6.63931">
        <ele>5.42</ele>
        <time>2016-04-30T13:14:38Z</time>
      </trkpt>
      <trkpt lat="43.17299" lon="6.6393">
        <ele>5.91</ele>
        <time>2016-04-30T13:14:39Z</time>
      </trkpt>
      <trkpt lat="43.17285" lon="6.63927">
        <ele>4.94</ele>
        <time>2016-04-30T13:14:56Z</time>
      </trkpt>
      <trkpt lat="43.17276" lon="6.63914">
        <ele>5.42</ele>
        <time>2016-04-30T13:15:11Z</time>
      </trkpt>
      <trkpt lat="43.17275" lon="6.63914">
        <ele>4.94</ele>
        <time>2016-04-30T13:15:29Z</time>
      </trkpt>
      <trkpt lat="43.17275" lon="6.63915">
        <ele>5.42</ele>
        <time>2016-04-30T13:15:48Z</time>
      </trkpt>
      <trkpt lat="43.17273" lon="6.63907">
        <ele>4.94</ele>
        <time>2016-04-30T13:16:00Z</time>
      </trkpt>
      <trkpt lat="43.17271" lon="6.63902">
        <ele>5.42</ele>
        <time>2016-04-30T13:16:17Z</time>
      </trkpt>
      <trkpt lat="43.17272" lon="6.63901">
        <ele>5.42</ele>
        <time>2016-04-30T13:16:31Z</time>
      </trkpt>
      <trkpt lat="43.17275" lon="6.63895">
        <ele>5.42</ele>
        <time>2016-04-30T13:16:43Z</time>
      </trkpt>
      <trkpt lat="43.17275" lon="6.63889">
        <ele>6.39</ele>
        <time>2016-04-30T13:16:52Z</time>
      </trkpt>
      <trkpt lat="43.17274" lon="6.63885">
        <ele>7.35</ele>
        <time>2016-04-30T13:16:55Z</time>
      </trkpt>
      <trkpt lat="43.17269" lon="6.63875">
        <ele>7.83</ele>
        <time>2016-04-30T13:17:10Z</time>
      </trkpt>
      <trkpt lat="43.17267" lon="6.63865">
        <ele>7.35</ele>
        <time>2016-04-30T13:17:22Z</time>
      </trkpt>
      <trkpt lat="43.17262" lon="6.63846">
        <ele>9.27</ele>
        <time>2016-04-30T13:17:36Z</time>
      </trkpt>
      <trkpt lat="43.17255" lon="6.63832">
        <ele>11.19</ele>
        <time>2016-04-30T13:17:51Z</time>
      </trkpt>
      <trkpt lat="43.17253" lon="6.63825">
        <ele>12.63</ele>
        <time>2016-04-30T13:17:57Z</time>
      </trkpt>
      <trkpt lat="43.17252" lon="6.63814">
        <ele>10.71</ele>
        <time>2016-04-30T13:18:09Z</time>
      </trkpt>
      <trkpt lat="43.17251" lon="6.63811">
        <ele>9.27</ele>
        <time>2016-04-30T13:18:12Z</time>
      </trkpt>
      <trkpt lat="43.17251" lon="6.63797">
        <ele>9.75</ele>
        <time>2016-04-30T13:18:25Z</time>
      </trkpt>
      <trkpt lat="43.17249" lon="6.63787">
        <ele>9.75</ele>
        <time>2016-04-30T13:18:39Z</time>
      </trkpt>
      <trkpt lat="43.17249" lon="6.63786">
        <ele>10.23</ele>
        <time>2016-04-30T13:18:40Z</time>
      </trkpt>
      <trkpt lat="43.17249" lon="6.63775">
        <ele>10.23</ele>
        <time>2016-04-30T13:18:53Z</time>
      </trkpt>
      <trkpt lat="43.1725" lon="6.63772">
        <ele>8.79</ele>
        <time>2016-04-30T13:18:56Z</time>
      </trkpt>
      <trkpt lat="43.1725" lon="6.6377">
        <ele>8.31</ele>
        <time>2016-04-30T13:19:00Z</time>
      </trkpt>
      <trkpt lat="43.17252" lon="6.63761">
        <ele>8.79</ele>
        <time>2016-04-30T13:19:08Z</time>
      </trkpt>
      <trkpt lat="43.17251" lon="6.63758">
        <ele>7.35</ele>
        <time>2016-04-30T13:19:10Z</time>
      </trkpt>
      <trkpt lat="43.1725" lon="6.63743">
        <ele>5.91</ele>
        <time>2016-04-30T13:19:22Z</time>
      </trkpt>
      <trkpt lat="43.1725" lon="6.63742">
        <ele>6.39</ele>
        <time>2016-04-30T13:19:23Z</time>
      </trkpt>
      <trkpt lat="43.17252" lon="6.6374">
        <ele>5.91</ele>
        <time>2016-04-30T13:19:26Z</time>
      </trkpt>
      <trkpt lat="43.17255" lon="6.63738">
        <ele>5.91</ele>
        <time>2016-04-30T13:19:29Z</time>
      </trkpt>
      <trkpt lat="43.17258" lon="6.63725">
        <ele>4.46</ele>
        <time>2016-04-30T13:19:41Z</time>
      </trkpt>
      <trkpt lat="43.17262" lon="6.63717">
        <ele>3.98</ele>
        <time>2016-04-30T13:19:48Z</time>
      </trkpt>
      <trkpt lat="43.17269" lon="6.63704">
        <ele>2.54</ele>
        <time>2016-04-30T13:20:02Z</time>
      </trkpt>
      <trkpt lat="43.1727" lon="6.63702">
        <ele>2.54</ele>
        <time>2016-04-30T13:20:05Z</time>
      </trkpt>
      <trkpt lat="43.17271" lon="6.63695">
        <ele>1.58</ele>
        <time>2016-04-30T13:20:11Z</time>
      </trkpt>
      <trkpt lat="43.17265" lon="6.63686">
        <ele>1.58</ele>
        <time>2016-04-30T13:20:23Z</time>
      </trkpt>
      <trkpt lat="43.17266" lon="6.63675">
        <ele>2.06</ele>
        <time>2016-04-30T13:20:34Z</time>
      </trkpt>
      <trkpt lat="43.17266" lon="6.63673">
        <ele>1.58</ele>
        <time>2016-04-30T13:20:36Z</time>
      </trkpt>
      <trkpt lat="43.17267" lon="6.6367">
        <ele>2.06</ele>
        <time>2016-04-30T13:20:39Z</time>
      </trkpt>
      <trkpt lat="43.17271" lon="6.63658">
        <ele>2.06</ele>
        <time>2016-04-30T13:20:54Z</time>
      </trkpt>
      <trkpt lat="43.17273" lon="6.63646">
        <ele>2.06</ele>
        <time>2016-04-30T13:21:09Z</time>
      </trkpt>
      <trkpt lat="43.17273" lon="6.63644">
        <ele>2.06</ele>
        <time>2016-04-30T13:21:11Z</time>
      </trkpt>
      <trkpt lat="43.17276" lon="6.63633">
        <ele>1.58</ele>
        <time>2016-04-30T13:21:25Z</time>
      </trkpt>
      <trkpt lat="43.17275" lon="6.63626">
        <ele>2.06</ele>
        <time>2016-04-30T13:21:37Z</time>
      </trkpt>
      <trkpt lat="43.17277" lon="6.63611">
        <ele>1.58</ele>
        <time>2016-04-30T13:21:50Z</time>
      </trkpt>
      <trkpt lat="43.17274" lon="6.6361">
        <ele>2.54</ele>
        <time>2016-04-30T13:22:05Z</time>
      </trkpt>
      <trkpt lat="43.17275" lon="6.63607">
        <ele>2.54</ele>
        <time>2016-04-30T13:22:24Z</time>
      </trkpt>
      <trkpt lat="43.17277" lon="6.63596">
        <ele>2.06</ele>
        <time>2016-04-30T13:22:33Z</time>
      </trkpt>
      <trkpt lat="43.17281" lon="6.63581">
        <ele>2.54</ele>
        <time>2016-04-30T13:22:47Z</time>
      </trkpt>
      <trkpt lat="43.17281" lon="6.6358">
        <ele>2.06</ele>
        <time>2016-04-30T13:22:48Z</time>
      </trkpt>
      <trkpt lat="43.17281" lon="6.63577">
        <ele>2.54</ele>
        <time>2016-04-30T13:22:50Z</time>
      </trkpt>
      <trkpt lat="43.17281" lon="6.63574">
        <ele>2.54</ele>
        <time>2016-04-30T13:22:52Z</time>
      </trkpt>
      <trkpt lat="43.17282" lon="6.63564">
        <ele>2.54</ele>
        <time>2016-04-30T13:23:01Z</time>
      </trkpt>
      <trkpt lat="43.17283" lon="6.63558">
        <ele>2.54</ele>
        <time>2016-04-30T13:23:05Z</time>
      </trkpt>
      <trkpt lat="43.17283" lon="6.63548">
        <ele>2.54</ele>
        <time>2016-04-30T13:23:17Z</time>
      </trkpt>
      <trkpt lat="43.17283" lon="6.63545">
        <ele>2.54</ele>
        <time>2016-04-30T13:23:19Z</time>
      </trkpt>
      <trkpt lat="43.17282" lon="6.63525">
        <ele>2.54</ele>
        <time>2016-04-30T13:23:33Z</time>
      </trkpt>
      <trkpt lat="43.1728" lon="6.6351">
        <ele>2.54</ele>
        <time>2016-04-30T13:23:44Z</time>
      </trkpt>
      <trkpt lat="43.17281" lon="6.63508">
        <ele>2.54</ele>
        <time>2016-04-30T13:23:46Z</time>
      </trkpt>
      <trkpt lat="43.17279" lon="6.63487">
        <ele>2.54</ele>
        <time>2016-04-30T13:24:00Z</time>
      </trkpt>
      <trkpt lat="43.17278" lon="6.63466">
        <ele>2.54</ele>
        <time>2016-04-30T13:24:15Z</time>
      </trkpt>
      <trkpt lat="43.17275" lon="6.63449">
        <ele>2.54</ele>
        <time>2016-04-30T13:24:27Z</time>
      </trkpt>
      <trkpt lat="43.17276" lon="6.63446">
        <ele>3.02</ele>
        <time>2016-04-30T13:24:29Z</time>
      </trkpt>
      <trkpt lat="43.17275" lon="6.63443">
        <ele>3.02</ele>
        <time>2016-04-30T13:24:31Z</time>
      </trkpt>
      <trkpt lat="43.1727" lon="6.63424">
        <ele>2.54</ele>
        <time>2016-04-30T13:24:44Z</time>
      </trkpt>
      <trkpt lat="43.1727" lon="6.63418">
        <ele>3.02</ele>
        <time>2016-04-30T13:24:48Z</time>
      </trkpt>
      <trkpt lat="43.17267" lon="6.63402">
        <ele>2.54</ele>
        <time>2016-04-30T13:24:59Z</time>
      </trkpt>
      <trkpt lat="43.17267" lon="6.63399">
        <ele>2.54</ele>
        <time>2016-04-30T13:25:01Z</time>
      </trkpt>
      <trkpt lat="43.17265" lon="6.63387">
        <ele>2.54</ele>
        <time>2016-04-30T13:25:09Z</time>
      </trkpt>
      <trkpt lat="43.17259" lon="6.63364">
        <ele>3.02</ele>
        <time>2016-04-30T13:25:24Z</time>
      </trkpt>
      <trkpt lat="43.17259" lon="6.63347">
        <ele>3.5</ele>
        <time>2016-04-30T13:25:38Z</time>
      </trkpt>
      <trkpt lat="43.17261" lon="6.6334">
        <ele>3.5</ele>
        <time>2016-04-30T13:25:43Z</time>
      </trkpt>
      <trkpt lat="43.1726" lon="6.63322">
        <ele>3.5</ele>
        <time>2016-04-30T13:25:56Z</time>
      </trkpt>
      <trkpt lat="43.17262" lon="6.63312">
        <ele>3.98</ele>
        <time>2016-04-30T13:26:07Z</time>
      </trkpt>
      <trkpt lat="43.17265" lon="6.63302">
        <ele>3.98</ele>
        <time>2016-04-30T13:26:17Z</time>
      </trkpt>
      <trkpt lat="43.17268" lon="6.63302">
        <ele>3.5</ele>
        <time>2016-04-30T13:26:19Z</time>
      </trkpt>
      <trkpt lat="43.1728" lon="6.63303">
        <ele>3.5</ele>
        <time>2016-04-30T13:26:36Z</time>
      </trkpt>
      <trkpt lat="43.1728" lon="6.63303">
        <ele>3.5</ele>
        <time>2016-04-30T13:27:08Z</time>
      </trkpt>
      <trkpt lat="43.1728" lon="6.63303">
        <ele>3.5</ele>
        <time>2016-04-30T13:27:09Z</time>
      </trkpt>
      <trkpt lat="43.17273" lon="6.63304">
        <ele>3.5</ele>
        <time>2016-04-30T13:27:17Z</time>
      </trkpt>
      <trkpt lat="43.17266" lon="6.633">
        <ele>2.54</ele>
        <time>2016-04-30T13:27:23Z</time>
      </trkpt>
      <trkpt lat="43.17263" lon="6.63298">
        <ele>3.02</ele>
        <time>2016-04-30T13:27:26Z</time>
      </trkpt>
      <trkpt lat="43.17251" lon="6.63285">
        <ele>3.02</ele>
        <time>2016-04-30T13:27:39Z</time>
      </trkpt>
      <trkpt lat="43.17237" lon="6.6327">
        <ele>2.06</ele>
        <time>2016-04-30T13:27:53Z</time>
      </trkpt>
      <trkpt lat="43.17225" lon="6.63253">
        <ele>3.02</ele>
        <time>2016-04-30T13:28:07Z</time>
      </trkpt>
      <trkpt lat="43.17223" lon="6.63248">
        <ele>3.02</ele>
        <time>2016-04-30T13:28:10Z</time>
      </trkpt>
      <trkpt lat="43.1721" lon="6.63231">
        <ele>3.5</ele>
        <time>2016-04-30T13:28:26Z</time>
      </trkpt>
      <trkpt lat="43.17206" lon="6.63228">
        <ele>4.46</ele>
        <time>2016-04-30T13:28:32Z</time>
      </trkpt>
      <trkpt lat="43.17194" lon="6.63214">
        <ele>6.39</ele>
        <time>2016-04-30T13:28:47Z</time>
      </trkpt>
      <trkpt lat="43.17188" lon="6.6321">
        <ele>7.35</ele>
        <time>2016-04-30T13:28:53Z</time>
      </trkpt>
      <trkpt lat="43.17184" lon="6.63207">
        <ele>6.39</ele>
        <time>2016-04-30T13:28:59Z</time>
      </trkpt>
      <trkpt lat="43.17167" lon="6.63196">
        <ele>5.91</ele>
        <time>2016-04-30T13:29:16Z</time>
      </trkpt>
      <trkpt lat="43.17158" lon="6.63197">
        <ele>6.39</ele>
        <time>2016-04-30T13:29:38Z</time>
      </trkpt>
      <trkpt lat="43.1715" lon="6.63197">
        <ele>7.83</ele>
        <time>2016-04-30T13:30:00Z</time>
      </trkpt>
      <trkpt lat="43.1713" lon="6.63202">
        <ele>6.87</ele>
        <time>2016-04-30T13:30:16Z</time>
      </trkpt>
      <trkpt lat="43.17113" lon="6.63196">
        <ele>7.35</ele>
        <time>2016-04-30T13:30:34Z</time>
      </trkpt>
      <trkpt lat="43.17118" lon="6.63171">
        <ele>7.83</ele>
        <time>2016-04-30T13:30:50Z</time>
      </trkpt>
      <trkpt lat="43.17126" lon="6.63163">
        <ele>9.75</ele>
        <time>2016-04-30T13:30:58Z</time>
      </trkpt>
      <trkpt lat="43.17134" lon="6.6315">
        <ele>8.79</ele>
        <time>2016-04-30T13:31:11Z</time>
      </trkpt>
      <trkpt lat="43.17138" lon="6.63128">
        <ele>9.75</ele>
        <time>2016-04-30T13:31:25Z</time>
      </trkpt>
      <trkpt lat="43.17138" lon="6.63127">
        <ele>9.27</ele>
        <time>2016-04-30T13:31:26Z</time>
      </trkpt>
      <trkpt lat="43.17137" lon="6.63098">
        <ele>9.75</ele>
        <time>2016-04-30T13:31:40Z</time>
      </trkpt>
      <trkpt lat="43.17129" lon="6.63077">
        <ele>12.63</ele>
        <time>2016-04-30T13:31:56Z</time>
      </trkpt>
      <trkpt lat="43.17123" lon="6.63066">
        <ele>12.63</ele>
        <time>2016-04-30T13:32:01Z</time>
      </trkpt>
      <trkpt lat="43.17107" lon="6.63044">
        <ele>9.27</ele>
        <time>2016-04-30T13:32:19Z</time>
      </trkpt>
      <trkpt lat="43.17105" lon="6.6304">
        <ele>9.27</ele>
        <time>2016-04-30T13:32:21Z</time>
      </trkpt>
      <trkpt lat="43.17086" lon="6.63023">
        <ele>6.39</ele>
        <time>2016-04-30T13:32:35Z</time>
      </trkpt>
      <trkpt lat="43.17073" lon="6.63006">
        <ele>7.83</ele>
        <time>2016-04-30T13:32:53Z</time>
      </trkpt>
      <trkpt lat="43.17068" lon="6.62994">
        <ele>7.83</ele>
        <time>2016-04-30T13:33:01Z</time>
      </trkpt>
      <trkpt lat="43.17062" lon="6.62989">
        <ele>7.35</ele>
        <time>2016-04-30T13:33:05Z</time>
      </trkpt>
      <trkpt lat="43.17051" lon="6.62983">
        <ele>5.91</ele>
        <time>2016-04-30T13:33:14Z</time>
      </trkpt>
      <trkpt lat="43.17034" lon="6.6298">
        <ele>8.79</ele>
        <time>2016-04-30T13:33:31Z</time>
      </trkpt>
      <trkpt lat="43.17024" lon="6.62982">
        <ele>8.79</ele>
        <time>2016-04-30T13:33:44Z</time>
      </trkpt>
      <trkpt lat="43.17022" lon="6.62982">
        <ele>9.75</ele>
        <time>2016-04-30T13:34:13Z</time>
      </trkpt>
      <trkpt lat="43.17021" lon="6.62982">
        <ele>9.75</ele>
        <time>2016-04-30T13:34:14Z</time>
      </trkpt>
      <trkpt lat="43.17017" lon="6.62982">
        <ele>10.71</ele>
        <time>2016-04-30T13:34:19Z</time>
      </trkpt>
      <trkpt lat="43.17013" lon="6.62981">
        <ele>10.71</ele>
        <time>2016-04-30T13:34:22Z</time>
      </trkpt>
      <trkpt lat="43.16998" lon="6.62969">
        <ele>13.6</ele>
        <time>2016-04-30T13:34:38Z</time>
      </trkpt>
      <trkpt lat="43.16995" lon="6.62952">
        <ele>16.48</ele>
        <time>2016-04-30T13:34:50Z</time>
      </trkpt>
      <trkpt lat="43.17001" lon="6.62944">
        <ele>19.84</ele>
        <time>2016-04-30T13:35:01Z</time>
      </trkpt>
      <trkpt lat="43.17006" lon="6.62943">
        <ele>23.21</ele>
        <time>2016-04-30T13:35:12Z</time>
      </trkpt>
      <trkpt lat="43.17012" lon="6.62942">
        <ele>26.09</ele>
        <time>2016-04-30T13:35:22Z</time>
      </trkpt>
      <trkpt lat="43.17013" lon="6.62931">
        <ele>29.46</ele>
        <time>2016-04-30T13:35:35Z</time>
      </trkpt>
      <trkpt lat="43.17018" lon="6.6293">
        <ele>32.34</ele>
        <time>2016-04-30T13:35:44Z</time>
      </trkpt>
      <trkpt lat="43.17019" lon="6.62924">
        <ele>35.71</ele>
        <time>2016-04-30T13:35:56Z</time>
      </trkpt>
      <trkpt lat="43.17011" lon="6.62907">
        <ele>37.15</ele>
        <time>2016-04-30T13:36:11Z</time>
      </trkpt>
      <trkpt lat="43.17008" lon="6.62904">
        <ele>36.19</ele>
        <time>2016-04-30T13:36:15Z</time>
      </trkpt>
      <trkpt lat="43.16994" lon="6.62884">
        <ele>35.71</ele>
        <time>2016-04-30T13:36:30Z</time>
      </trkpt>
      <trkpt lat="43.16988" lon="6.62871">
        <ele>39.07</ele>
        <time>2016-04-30T13:36:44Z</time>
      </trkpt>
      <trkpt lat="43.16984" lon="6.62858">
        <ele>42.44</ele>
        <time>2016-04-30T13:36:56Z</time>
      </trkpt>
      <trkpt lat="43.16982" lon="6.6285">
        <ele>43.4</ele>
        <time>2016-04-30T13:37:02Z</time>
      </trkpt>
      <trkpt lat="43.16979" lon="6.62837">
        <ele>43.88</ele>
        <time>2016-04-30T13:37:11Z</time>
      </trkpt>
      <trkpt lat="43.16978" lon="6.62834">
        <ele>43.4</ele>
        <time>2016-04-30T13:37:13Z</time>
      </trkpt>
      <trkpt lat="43.16973" lon="6.62826">
        <ele>41.95</ele>
        <time>2016-04-30T13:37:20Z</time>
      </trkpt>
      <trkpt lat="43.16972" lon="6.6282">
        <ele>40.99</ele>
        <time>2016-04-30T13:37:35Z</time>
      </trkpt>
      <trkpt lat="43.16973" lon="6.62818">
        <ele>40.99</ele>
        <time>2016-04-30T13:37:39Z</time>
      </trkpt>
      <trkpt lat="43.16968" lon="6.62804">
        <ele>37.15</ele>
        <time>2016-04-30T13:37:51Z</time>
      </trkpt>
      <trkpt lat="43.16961" lon="6.62796">
        <ele>34.26</ele>
        <time>2016-04-30T13:38:01Z</time>
      </trkpt>
      <trkpt lat="43.16958" lon="6.62793">
        <ele>33.3</ele>
        <time>2016-04-30T13:38:04Z</time>
      </trkpt>
      <trkpt lat="43.16955" lon="6.62787">
        <ele>31.86</ele>
        <time>2016-04-30T13:38:09Z</time>
      </trkpt>
      <trkpt lat="43.1695" lon="6.62794">
        <ele>28.5</ele>
        <time>2016-04-30T13:38:19Z</time>
      </trkpt>
      <trkpt lat="43.16942" lon="6.62796">
        <ele>26.09</ele>
        <time>2016-04-30T13:38:29Z</time>
      </trkpt>
      <trkpt lat="43.16938" lon="6.62797">
        <ele>24.17</ele>
        <time>2016-04-30T13:38:33Z</time>
      </trkpt>
      <trkpt lat="43.16938" lon="6.62801">
        <ele>22.73</ele>
        <time>2016-04-30T13:38:36Z</time>
      </trkpt>
      <trkpt lat="43.16937" lon="6.62806">
        <ele>19.84</ele>
        <time>2016-04-30T13:38:47Z</time>
      </trkpt>
      <trkpt lat="43.1693" lon="6.62807">
        <ele>16.96</ele>
        <time>2016-04-30T13:38:59Z</time>
      </trkpt>
      <trkpt lat="43.16929" lon="6.62805">
        <ele>16</ele>
        <time>2016-04-30T13:39:01Z</time>
      </trkpt>
      <trkpt lat="43.16927" lon="6.62799">
        <ele>13.6</ele>
        <time>2016-04-30T13:39:06Z</time>
      </trkpt>
      <trkpt lat="43.16919" lon="6.6278">
        <ele>13.12</ele>
        <time>2016-04-30T13:39:19Z</time>
      </trkpt>
      <trkpt lat="43.16911" lon="6.6277">
        <ele>11.19</ele>
        <time>2016-04-30T13:39:34Z</time>
      </trkpt>
      <trkpt lat="43.169" lon="6.62761">
        <ele>8.79</ele>
        <time>2016-04-30T13:39:47Z</time>
      </trkpt>
      <trkpt lat="43.16899" lon="6.62759">
        <ele>8.31</ele>
        <time>2016-04-30T13:39:48Z</time>
      </trkpt>
      <trkpt lat="43.16884" lon="6.62743">
        <ele>7.83</ele>
        <time>2016-04-30T13:40:02Z</time>
      </trkpt>
      <trkpt lat="43.16875" lon="6.62734">
        <ele>9.75</ele>
        <time>2016-04-30T13:40:13Z</time>
      </trkpt>
      <trkpt lat="43.16872" lon="6.62732">
        <ele>9.75</ele>
        <time>2016-04-30T13:40:15Z</time>
      </trkpt>
      <trkpt lat="43.16859" lon="6.62725">
        <ele>8.31</ele>
        <time>2016-04-30T13:40:30Z</time>
      </trkpt>
      <trkpt lat="43.16848" lon="6.62721">
        <ele>11.19</ele>
        <time>2016-04-30T13:40:44Z</time>
      </trkpt>
      <trkpt lat="43.16836" lon="6.6271">
        <ele>13.12</ele>
        <time>2016-04-30T13:40:57Z</time>
      </trkpt>
      <trkpt lat="43.16821" lon="6.62702">
        <ele>16</ele>
        <time>2016-04-30T13:41:11Z</time>
      </trkpt>
      <trkpt lat="43.16816" lon="6.62695">
        <ele>18.88</ele>
        <time>2016-04-30T13:41:22Z</time>
      </trkpt>
      <trkpt lat="43.16812" lon="6.62689">
        <ele>22.25</ele>
        <time>2016-04-30T13:41:33Z</time>
      </trkpt>
      <trkpt lat="43.16803" lon="6.6268">
        <ele>25.13</ele>
        <time>2016-04-30T13:41:48Z</time>
      </trkpt>
      <trkpt lat="43.16792" lon="6.62666">
        <ele>28.5</ele>
        <time>2016-04-30T13:42:04Z</time>
      </trkpt>
      <trkpt lat="43.16784" lon="6.62649">
        <ele>31.86</ele>
        <time>2016-04-30T13:42:18Z</time>
      </trkpt>
      <trkpt lat="43.16778" lon="6.62636">
        <ele>34.74</ele>
        <time>2016-04-30T13:42:32Z</time>
      </trkpt>
      <trkpt lat="43.1677" lon="6.6263">
        <ele>36.19</ele>
        <time>2016-04-30T13:42:42Z</time>
      </trkpt>
      <trkpt lat="43.16756" lon="6.6263">
        <ele>35.71</ele>
        <time>2016-04-30T13:42:55Z</time>
      </trkpt>
      <trkpt lat="43.16745" lon="6.62631">
        <ele>34.74</ele>
        <time>2016-04-30T13:43:06Z</time>
      </trkpt>
      <trkpt lat="43.16726" lon="6.62634">
        <ele>34.74</ele>
        <time>2016-04-30T13:43:23Z</time>
      </trkpt>
      <trkpt lat="43.16714" lon="6.6263">
        <ele>32.82</ele>
        <time>2016-04-30T13:43:37Z</time>
      </trkpt>
      <trkpt lat="43.16706" lon="6.62624">
        <ele>31.86</ele>
        <time>2016-04-30T13:43:52Z</time>
      </trkpt>
      <trkpt lat="43.16708" lon="6.62617">
        <ele>33.3</ele>
        <time>2016-04-30T13:44:05Z</time>
      </trkpt>
      <trkpt lat="43.16708" lon="6.62612">
        <ele>33.3</ele>
        <time>2016-04-30T13:44:20Z</time>
      </trkpt>
      <trkpt lat="43.16707" lon="6.62614">
        <ele>32.34</ele>
        <time>2016-04-30T13:44:37Z</time>
      </trkpt>
      <trkpt lat="43.16707" lon="6.62614">
        <ele>32.34</ele>
        <time>2016-04-30T13:45:13Z</time>
      </trkpt>
      <trkpt lat="43.16707" lon="6.62614">
        <ele>33.3</ele>
        <time>2016-04-30T13:45:38Z</time>
      </trkpt>
      <trkpt lat="43.16707" lon="6.62614">
        <ele>33.78</ele>
        <time>2016-04-30T13:45:52Z</time>
      </trkpt>
      <trkpt lat="43.16707" lon="6.62614">
        <ele>33.3</ele>
        <time>2016-04-30T13:46:17Z</time>
      </trkpt>
      <trkpt lat="43.16706" lon="6.62614">
        <ele>33.78</ele>
        <time>2016-04-30T13:46:36Z</time>
      </trkpt>
      <trkpt lat="43.16706" lon="6.62614">
        <ele>33.78</ele>
        <time>2016-04-30T13:46:53Z</time>
      </trkpt>
      <trkpt lat="43.16706" lon="6.62613">
        <ele>33.78</ele>
        <time>2016-04-30T13:47:15Z</time>
      </trkpt>
      <trkpt lat="43.16707" lon="6.62613">
        <ele>34.26</ele>
        <time>2016-04-30T13:47:30Z</time>
      </trkpt>
      <trkpt lat="43.16706" lon="6.62613">
        <ele>30.9</ele>
        <time>2016-04-30T13:47:43Z</time>
      </trkpt>
      <trkpt lat="43.16706" lon="6.62613">
        <ele>34.74</ele>
        <time>2016-04-30T13:47:44Z</time>
      </trkpt>
      <trkpt lat="43.16706" lon="6.62613">
        <ele>33.78</ele>
        <time>2016-04-30T13:48:03Z</time>
      </trkpt>
      <trkpt lat="43.16706" lon="6.62613">
        <ele>33.78</ele>
        <time>2016-04-30T13:48:22Z</time>
      </trkpt>
      <trkpt lat="43.16706" lon="6.62613">
        <ele>33.78</ele>
        <time>2016-04-30T13:48:43Z</time>
      </trkpt>
      <trkpt lat="43.16705" lon="6.62613">
        <ele>33.78</ele>
        <time>2016-04-30T13:49:05Z</time>
      </trkpt>
      <trkpt lat="43.16706" lon="6.62613">
        <ele>33.78</ele>
        <time>2016-04-30T13:49:26Z</time>
      </trkpt>
      <trkpt lat="43.16706" lon="6.62613">
        <ele>33.78</ele>
        <time>2016-04-30T13:49:47Z</time>
      </trkpt>
      <trkpt lat="43.16706" lon="6.62613">
        <ele>33.78</ele>
        <time>2016-04-30T13:50:06Z</time>
      </trkpt>
      <trkpt lat="43.16703" lon="6.6261">
        <ele>33.3</ele>
        <time>2016-04-30T13:50:19Z</time>
      </trkpt>
      <trkpt lat="43.167" lon="6.62602">
        <ele>33.3</ele>
        <time>2016-04-30T13:50:32Z</time>
      </trkpt>
      <trkpt lat="43.1669" lon="6.62592">
        <ele>31.86</ele>
        <time>2016-04-30T13:50:44Z</time>
      </trkpt>
      <trkpt lat="43.16678" lon="6.62579">
        <ele>29.94</ele>
        <time>2016-04-30T13:50:58Z</time>
      </trkpt>
      <trkpt lat="43.16669" lon="6.6257">
        <ele>28.02</ele>
        <time>2016-04-30T13:51:08Z</time>
      </trkpt>
      <trkpt lat="43.16661" lon="6.62554">
        <ele>24.65</ele>
        <time>2016-04-30T13:51:21Z</time>
      </trkpt>
      <trkpt lat="43.16657" lon="6.62552">
        <ele>24.65</ele>
        <time>2016-04-30T13:51:25Z</time>
      </trkpt>
      <trkpt lat="43.16646" lon="6.62544">
        <ele>22.25</ele>
        <time>2016-04-30T13:51:35Z</time>
      </trkpt>
      <trkpt lat="43.16643" lon="6.62519">
        <ele>20.81</ele>
        <time>2016-04-30T13:51:50Z</time>
      </trkpt>
      <trkpt lat="43.16642" lon="6.62516">
        <ele>20.32</ele>
        <time>2016-04-30T13:51:52Z</time>
      </trkpt>
      <trkpt lat="43.16644" lon="6.62505">
        <ele>19.84</ele>
        <time>2016-04-30T13:52:07Z</time>
      </trkpt>
      <trkpt lat="43.16645" lon="6.62497">
        <ele>20.32</ele>
        <time>2016-04-30T13:52:14Z</time>
      </trkpt>
      <trkpt lat="43.16642" lon="6.6248">
        <ele>22.25</ele>
        <time>2016-04-30T13:52:27Z</time>
      </trkpt>
      <trkpt lat="43.16642" lon="6.62479">
        <ele>22.25</ele>
        <time>2016-04-30T13:52:28Z</time>
      </trkpt>
      <trkpt lat="43.16639" lon="6.6247">
        <ele>22.25</ele>
        <time>2016-04-30T13:52:35Z</time>
      </trkpt>
      <trkpt lat="43.16636" lon="6.62463">
        <ele>21.77</ele>
        <time>2016-04-30T13:52:41Z</time>
      </trkpt>
      <trkpt lat="43.16631" lon="6.62451">
        <ele>18.4</ele>
        <time>2016-04-30T13:52:54Z</time>
      </trkpt>
      <trkpt lat="43.16627" lon="6.62448">
        <ele>16</ele>
        <time>2016-04-30T13:53:02Z</time>
      </trkpt>
      <trkpt lat="43.16623" lon="6.62444">
        <ele>14.08</ele>
        <time>2016-04-30T13:53:06Z</time>
      </trkpt>
      <trkpt lat="43.16617" lon="6.62432">
        <ele>12.15</ele>
        <time>2016-04-30T13:53:18Z</time>
      </trkpt>
      <trkpt lat="43.16616" lon="6.62421">
        <ele>10.23</ele>
        <time>2016-04-30T13:53:26Z</time>
      </trkpt>
      <trkpt lat="43.16609" lon="6.62404">
        <ele>6.87</ele>
        <time>2016-04-30T13:53:39Z</time>
      </trkpt>
      <trkpt lat="43.16611" lon="6.624">
        <ele>6.87</ele>
        <time>2016-04-30T13:53:41Z</time>
      </trkpt>
      <trkpt lat="43.16609" lon="6.62389">
        <ele>4.46</ele>
        <time>2016-04-30T13:53:50Z</time>
      </trkpt>
      <trkpt lat="43.16605" lon="6.62378">
        <ele>3.98</ele>
        <time>2016-04-30T13:53:59Z</time>
      </trkpt>
      <trkpt lat="43.16595" lon="6.62363">
        <ele>4.94</ele>
        <time>2016-04-30T13:54:13Z</time>
      </trkpt>
      <trkpt lat="43.16592" lon="6.62361">
        <ele>4.94</ele>
        <time>2016-04-30T13:54:18Z</time>
      </trkpt>
      <trkpt lat="43.16588" lon="6.62356">
        <ele>5.42</ele>
        <time>2016-04-30T13:54:24Z</time>
      </trkpt>
      <trkpt lat="43.16582" lon="6.62348">
        <ele>6.39</ele>
        <time>2016-04-30T13:54:32Z</time>
      </trkpt>
      <trkpt lat="43.1657" lon="6.62328">
        <ele>8.31</ele>
        <time>2016-04-30T13:54:48Z</time>
      </trkpt>
      <trkpt lat="43.16569" lon="6.62323">
        <ele>8.79</ele>
        <time>2016-04-30T13:54:51Z</time>
      </trkpt>
      <trkpt lat="43.16562" lon="6.62313">
        <ele>7.83</ele>
        <time>2016-04-30T13:55:00Z</time>
      </trkpt>
      <trkpt lat="43.1656" lon="6.62311">
        <ele>7.35</ele>
        <time>2016-04-30T13:55:02Z</time>
      </trkpt>
      <trkpt lat="43.16555" lon="6.62307">
        <ele>6.39</ele>
        <time>2016-04-30T13:55:07Z</time>
      </trkpt>
      <trkpt lat="43.16551" lon="6.62303">
        <ele>6.87</ele>
        <time>2016-04-30T13:55:11Z</time>
      </trkpt>
      <trkpt lat="43.16539" lon="6.62286">
        <ele>9.75</ele>
        <time>2016-04-30T13:55:24Z</time>
      </trkpt>
      <trkpt lat="43.16532" lon="6.62282">
        <ele>9.27</ele>
        <time>2016-04-30T13:55:32Z</time>
      </trkpt>
      <trkpt lat="43.16516" lon="6.62265">
        <ele>7.35</ele>
        <time>2016-04-30T13:55:49Z</time>
      </trkpt>
      <trkpt lat="43.16498" lon="6.62251">
        <ele>6.39</ele>
        <time>2016-04-30T13:56:08Z</time>
      </trkpt>
      <trkpt lat="43.16495" lon="6.62247">
        <ele>6.87</ele>
        <time>2016-04-30T13:56:11Z</time>
      </trkpt>
      <trkpt lat="43.16492" lon="6.62237">
        <ele>6.39</ele>
        <time>2016-04-30T13:56:16Z</time>
      </trkpt>
      <trkpt lat="43.16477" lon="6.62221">
        <ele>5.42</ele>
        <time>2016-04-30T13:56:29Z</time>
      </trkpt>
      <trkpt lat="43.16473" lon="6.62217">
        <ele>5.42</ele>
        <time>2016-04-30T13:56:32Z</time>
      </trkpt>
      <trkpt lat="43.16454" lon="6.62203">
        <ele>4.94</ele>
        <time>2016-04-30T13:56:48Z</time>
      </trkpt>
      <trkpt lat="43.16445" lon="6.62198">
        <ele>5.91</ele>
        <time>2016-04-30T13:56:56Z</time>
      </trkpt>
      <trkpt lat="43.16435" lon="6.62187">
        <ele>7.35</ele>
        <time>2016-04-30T13:57:12Z</time>
      </trkpt>
      <trkpt lat="43.16432" lon="6.62186">
        <ele>5.91</ele>
        <time>2016-04-30T13:57:15Z</time>
      </trkpt>
      <trkpt lat="43.16414" lon="6.62184">
        <ele>4.94</ele>
        <time>2016-04-30T13:57:30Z</time>
      </trkpt>
      <trkpt lat="43.16397" lon="6.6218">
        <ele>5.42</ele>
        <time>2016-04-30T13:57:44Z</time>
      </trkpt>
      <trkpt lat="43.1639" lon="6.62178">
        <ele>3.98</ele>
        <time>2016-04-30T13:57:50Z</time>
      </trkpt>
      <trkpt lat="43.16388" lon="6.62169">
        <ele>5.42</ele>
        <time>2016-04-30T13:57:55Z</time>
      </trkpt>
      <trkpt lat="43.1638" lon="6.62162">
        <ele>5.42</ele>
        <time>2016-04-30T13:58:02Z</time>
      </trkpt>
      <trkpt lat="43.16367" lon="6.6215">
        <ele>7.83</ele>
        <time>2016-04-30T13:58:17Z</time>
      </trkpt>
      <trkpt lat="43.16345" lon="6.62149">
        <ele>7.35</ele>
        <time>2016-04-30T13:58:34Z</time>
      </trkpt>
      <trkpt lat="43.16335" lon="6.62146">
        <ele>6.87</ele>
        <time>2016-04-30T13:58:42Z</time>
      </trkpt>
      <trkpt lat="43.16327" lon="6.62144">
        <ele>4.94</ele>
        <time>2016-04-30T13:58:49Z</time>
      </trkpt>
      <trkpt lat="43.16312" lon="6.62131">
        <ele>4.46</ele>
        <time>2016-04-30T13:59:02Z</time>
      </trkpt>
      <trkpt lat="43.16299" lon="6.62127">
        <ele>5.91</ele>
        <time>2016-04-30T13:59:13Z</time>
      </trkpt>
      <trkpt lat="43.16296" lon="6.62127">
        <ele>4.94</ele>
        <time>2016-04-30T13:59:16Z</time>
      </trkpt>
      <trkpt lat="43.16294" lon="6.62122">
        <ele>4.94</ele>
        <time>2016-04-30T13:59:19Z</time>
      </trkpt>
      <trkpt lat="43.16289" lon="6.62118">
        <ele>7.83</ele>
        <time>2016-04-30T13:59:25Z</time>
      </trkpt>
      <trkpt lat="43.16287" lon="6.62117">
        <ele>7.35</ele>
        <time>2016-04-30T13:59:29Z</time>
      </trkpt>
      <trkpt lat="43.16281" lon="6.6212">
        <ele>5.91</ele>
        <time>2016-04-30T13:59:33Z</time>
      </trkpt>
      <trkpt lat="43.1626" lon="6.62126">
        <ele>7.35</ele>
        <time>2016-04-30T13:59:49Z</time>
      </trkpt>
      <trkpt lat="43.16242" lon="6.62129">
        <ele>9.27</ele>
        <time>2016-04-30T14:00:08Z</time>
      </trkpt>
      <trkpt lat="43.16228" lon="6.62141">
        <ele>10.71</ele>
        <time>2016-04-30T14:00:21Z</time>
      </trkpt>
      <trkpt lat="43.16217" lon="6.62161">
        <ele>8.31</ele>
        <time>2016-04-30T14:00:38Z</time>
      </trkpt>
      <trkpt lat="43.16201" lon="6.6216">
        <ele>10.23</ele>
        <time>2016-04-30T14:00:52Z</time>
      </trkpt>
      <trkpt lat="43.16188" lon="6.62165">
        <ele>14.08</ele>
        <time>2016-04-30T14:01:08Z</time>
      </trkpt>
      <trkpt lat="43.16187" lon="6.62168">
        <ele>15.52</ele>
        <time>2016-04-30T14:01:12Z</time>
      </trkpt>
      <trkpt lat="43.16177" lon="6.62182">
        <ele>16</ele>
        <time>2016-04-30T14:01:26Z</time>
      </trkpt>
      <trkpt lat="43.16176" lon="6.62185">
        <ele>16.96</ele>
        <time>2016-04-30T14:01:42Z</time>
      </trkpt>
      <trkpt lat="43.16177" lon="6.62184">
        <ele>16.96</ele>
        <time>2016-04-30T14:02:05Z</time>
      </trkpt>
      <trkpt lat="43.16175" lon="6.6219">
        <ele>17.44</ele>
        <time>2016-04-30T14:02:22Z</time>
      </trkpt>
      <trkpt lat="43.16161" lon="6.62194">
        <ele>19.36</ele>
        <time>2016-04-30T14:02:39Z</time>
      </trkpt>
      <trkpt lat="43.16154" lon="6.62193">
        <ele>20.32</ele>
        <time>2016-04-30T14:02:46Z</time>
      </trkpt>
      <trkpt lat="43.1615" lon="6.62194">
        <ele>20.32</ele>
        <time>2016-04-30T14:02:49Z</time>
      </trkpt>
      <trkpt lat="43.16141" lon="6.62209">
        <ele>21.29</ele>
        <time>2016-04-30T14:03:02Z</time>
      </trkpt>
      <trkpt lat="43.16123" lon="6.62207">
        <ele>22.73</ele>
        <time>2016-04-30T14:03:21Z</time>
      </trkpt>
      <trkpt lat="43.16122" lon="6.62207">
        <ele>22.73</ele>
        <time>2016-04-30T14:03:22Z</time>
      </trkpt>
      <trkpt lat="43.16108" lon="6.62201">
        <ele>24.65</ele>
        <time>2016-04-30T14:03:35Z</time>
      </trkpt>
      <trkpt lat="43.16098" lon="6.62192">
        <ele>27.05</ele>
        <time>2016-04-30T14:03:48Z</time>
      </trkpt>
      <trkpt lat="43.16086" lon="6.62179">
        <ele>23.69</ele>
        <time>2016-04-30T14:04:03Z</time>
      </trkpt>
      <trkpt lat="43.16085" lon="6.62172">
        <ele>27.05</ele>
        <time>2016-04-30T14:04:08Z</time>
      </trkpt>
      <trkpt lat="43.16074" lon="6.62152">
        <ele>28.5</ele>
        <time>2016-04-30T14:04:22Z</time>
      </trkpt>
      <trkpt lat="43.16072" lon="6.62136">
        <ele>30.42</ele>
        <time>2016-04-30T14:04:34Z</time>
      </trkpt>
      <trkpt lat="43.16072" lon="6.62133">
        <ele>31.38</ele>
        <time>2016-04-30T14:04:36Z</time>
      </trkpt>
      <trkpt lat="43.16071" lon="6.6213">
        <ele>32.82</ele>
        <time>2016-04-30T14:04:40Z</time>
      </trkpt>
      <trkpt lat="43.16074" lon="6.62126">
        <ele>35.71</ele>
        <time>2016-04-30T14:04:47Z</time>
      </trkpt>
      <trkpt lat="43.1607" lon="6.6211">
        <ele>37.63</ele>
        <time>2016-04-30T14:05:01Z</time>
      </trkpt>
      <trkpt lat="43.16066" lon="6.62097">
        <ele>40.99</ele>
        <time>2016-04-30T14:05:14Z</time>
      </trkpt>
      <trkpt lat="43.16063" lon="6.62087">
        <ele>43.4</ele>
        <time>2016-04-30T14:05:27Z</time>
      </trkpt>
      <trkpt lat="43.16054" lon="6.62078">
        <ele>46.28</ele>
        <time>2016-04-30T14:05:41Z</time>
      </trkpt>
      <trkpt lat="43.1605" lon="6.62069">
        <ele>47.72</ele>
        <time>2016-04-30T14:05:51Z</time>
      </trkpt>
      <trkpt lat="43.1604" lon="6.62054">
        <ele>50.13</ele>
        <time>2016-04-30T14:06:05Z</time>
      </trkpt>
      <trkpt lat="43.16038" lon="6.62045">
        <ele>53.01</ele>
        <time>2016-04-30T14:06:13Z</time>
      </trkpt>
      <trkpt lat="43.16036" lon="6.62037">
        <ele>55.89</ele>
        <time>2016-04-30T14:06:27Z</time>
      </trkpt>
      <trkpt lat="43.16035" lon="6.62033">
        <ele>58.78</ele>
        <time>2016-04-30T14:06:39Z</time>
      </trkpt>
      <trkpt lat="43.16024" lon="6.62024">
        <ele>61.66</ele>
        <time>2016-04-30T14:06:51Z</time>
      </trkpt>
      <trkpt lat="43.16016" lon="6.6202">
        <ele>62.14</ele>
        <time>2016-04-30T14:07:07Z</time>
      </trkpt>
      <trkpt lat="43.16014" lon="6.6202">
        <ele>61.66</ele>
        <time>2016-04-30T14:07:21Z</time>
      </trkpt>
      <trkpt lat="43.16014" lon="6.6202">
        <ele>62.14</ele>
        <time>2016-04-30T14:07:40Z</time>
      </trkpt>
      <trkpt lat="43.16014" lon="6.6202">
        <ele>61.66</ele>
        <time>2016-04-30T14:08:04Z</time>
      </trkpt>
      <trkpt lat="43.16014" lon="6.62021">
        <ele>61.66</ele>
        <time>2016-04-30T14:08:22Z</time>
      </trkpt>
      <trkpt lat="43.16014" lon="6.6202">
        <ele>61.66</ele>
        <time>2016-04-30T14:08:36Z</time>
      </trkpt>
      <trkpt lat="43.16015" lon="6.6202">
        <ele>61.18</ele>
        <time>2016-04-30T14:08:54Z</time>
      </trkpt>
      <trkpt lat="43.16011" lon="6.62011">
        <ele>62.62</ele>
        <time>2016-04-30T14:09:07Z</time>
      </trkpt>
      <trkpt lat="43.16007" lon="6.6201">
        <ele>61.18</ele>
        <time>2016-04-30T14:09:19Z</time>
      </trkpt>
      <trkpt lat="43.16002" lon="6.62001">
        <ele>62.14</ele>
        <time>2016-04-30T14:09:28Z</time>
      </trkpt>
      <trkpt lat="43.16006" lon="6.61996">
        <ele>64.07</ele>
        <time>2016-04-30T14:09:35Z</time>
      </trkpt>
      <trkpt lat="43.16008" lon="6.61992">
        <ele>65.51</ele>
        <time>2016-04-30T14:09:38Z</time>
      </trkpt>
      <trkpt lat="43.16014" lon="6.6199">
        <ele>67.43</ele>
        <time>2016-04-30T14:09:44Z</time>
      </trkpt>
      <trkpt lat="43.16018" lon="6.61993">
        <ele>67.43</ele>
        <time>2016-04-30T14:09:58Z</time>
      </trkpt>
      <trkpt lat="43.16019" lon="6.61994">
        <ele>67.91</ele>
        <time>2016-04-30T14:10:13Z</time>
      </trkpt>
      <trkpt lat="43.1602" lon="6.61994">
        <ele>66.95</ele>
        <time>2016-04-30T14:10:28Z</time>
      </trkpt>
      <trkpt lat="43.16021" lon="6.61994">
        <ele>66.95</ele>
        <time>2016-04-30T14:10:53Z</time>
      </trkpt>
      <trkpt lat="43.16021" lon="6.61995">
        <ele>66.95</ele>
        <time>2016-04-30T14:11:18Z</time>
      </trkpt>
      <trkpt lat="43.16021" lon="6.61995">
        <ele>66.95</ele>
        <time>2016-04-30T14:11:42Z</time>
      </trkpt>
      <trkpt lat="43.16021" lon="6.61995">
        <ele>66.95</ele>
        <time>2016-04-30T14:12:04Z</time>
      </trkpt>
      <trkpt lat="43.16021" lon="6.61995">
        <ele>66.47</ele>
        <time>2016-04-30T14:12:26Z</time>
      </trkpt>
      <trkpt lat="43.1602" lon="6.61995">
        <ele>66.95</ele>
        <time>2016-04-30T14:12:55Z</time>
      </trkpt>
      <trkpt lat="43.1602" lon="6.61994">
        <ele>66.95</ele>
        <time>2016-04-30T14:13:20Z</time>
      </trkpt>
      <trkpt lat="43.1602" lon="6.61994">
        <ele>66.95</ele>
        <time>2016-04-30T14:13:35Z</time>
      </trkpt>
      <trkpt lat="43.1602" lon="6.61994">
        <ele>66.95</ele>
        <time>2016-04-30T14:13:53Z</time>
      </trkpt>
      <trkpt lat="43.1602" lon="6.61995">
        <ele>66.95</ele>
        <time>2016-04-30T14:14:22Z</time>
      </trkpt>
      <trkpt lat="43.16026" lon="6.61994">
        <ele>66.95</ele>
        <time>2016-04-30T14:14:34Z</time>
      </trkpt>
      <trkpt lat="43.16027" lon="6.61993">
        <ele>66.47</ele>
        <time>2016-04-30T14:14:36Z</time>
      </trkpt>
      <trkpt lat="43.1604" lon="6.61984">
        <ele>67.43</ele>
        <time>2016-04-30T14:14:52Z</time>
      </trkpt>
      <trkpt lat="43.16048" lon="6.61975">
        <ele>67.91</ele>
        <time>2016-04-30T14:15:00Z</time>
      </trkpt>
      <trkpt lat="43.16053" lon="6.61975">
        <ele>67.91</ele>
        <time>2016-04-30T14:15:03Z</time>
      </trkpt>
      <trkpt lat="43.16061" lon="6.61975">
        <ele>68.87</ele>
        <time>2016-04-30T14:15:10Z</time>
      </trkpt>
      <trkpt lat="43.16066" lon="6.61977">
        <ele>68.87</ele>
        <time>2016-04-30T14:15:15Z</time>
      </trkpt>
      <trkpt lat="43.16084" lon="6.61978">
        <ele>70.31</ele>
        <time>2016-04-30T14:15:31Z</time>
      </trkpt>
      <trkpt lat="43.16088" lon="6.61978">
        <ele>70.31</ele>
        <time>2016-04-30T14:15:36Z</time>
      </trkpt>
      <trkpt lat="43.16091" lon="6.61978">
        <ele>70.31</ele>
        <time>2016-04-30T14:15:38Z</time>
      </trkpt>
      <trkpt lat="43.16105" lon="6.61982">
        <ele>71.76</ele>
        <time>2016-04-30T14:15:52Z</time>
      </trkpt>
      <trkpt lat="43.16113" lon="6.61985">
        <ele>71.27</ele>
        <time>2016-04-30T14:15:58Z</time>
      </trkpt>
      <trkpt lat="43.16124" lon="6.61978">
        <ele>72.24</ele>
        <time>2016-04-30T14:16:12Z</time>
      </trkpt>
      <trkpt lat="43.16123" lon="6.61969">
        <ele>72.72</ele>
        <time>2016-04-30T14:16:18Z</time>
      </trkpt>
      <trkpt lat="43.16123" lon="6.61965">
        <ele>72.24</ele>
        <time>2016-04-30T14:16:21Z</time>
      </trkpt>
      <trkpt lat="43.16124" lon="6.61961">
        <ele>72.24</ele>
        <time>2016-04-30T14:16:24Z</time>
      </trkpt>
      <trkpt lat="43.1614" lon="6.61944">
        <ele>72.24</ele>
        <time>2016-04-30T14:16:40Z</time>
      </trkpt>
      <trkpt lat="43.16142" lon="6.61941">
        <ele>71.76</ele>
        <time>2016-04-30T14:16:43Z</time>
      </trkpt>
      <trkpt lat="43.16161" lon="6.61939">
        <ele>70.79</ele>
        <time>2016-04-30T14:16:58Z</time>
      </trkpt>
      <trkpt lat="43.16166" lon="6.61941">
        <ele>70.31</ele>
        <time>2016-04-30T14:17:02Z</time>
      </trkpt>
      <trkpt lat="43.16191" lon="6.61948">
        <ele>69.35</ele>
        <time>2016-04-30T14:17:21Z</time>
      </trkpt>
      <trkpt lat="43.16206" lon="6.61946">
        <ele>68.39</ele>
        <time>2016-04-30T14:17:34Z</time>
      </trkpt>
      <trkpt lat="43.16223" lon="6.61946">
        <ele>65.03</ele>
        <time>2016-04-30T14:17:48Z</time>
      </trkpt>
      <trkpt lat="43.16235" lon="6.61945">
        <ele>62.62</ele>
        <time>2016-04-30T14:17:59Z</time>
      </trkpt>
      <trkpt lat="43.1624" lon="6.61941">
        <ele>62.14</ele>
        <time>2016-04-30T14:18:03Z</time>
      </trkpt>
      <trkpt lat="43.16253" lon="6.61927">
        <ele>60.7</ele>
        <time>2016-04-30T14:18:16Z</time>
      </trkpt>
      <trkpt lat="43.16257" lon="6.61923">
        <ele>61.18</ele>
        <time>2016-04-30T14:18:20Z</time>
      </trkpt>
      <trkpt lat="43.16266" lon="6.61916">
        <ele>62.14</ele>
        <time>2016-04-30T14:18:27Z</time>
      </trkpt>
      <trkpt lat="43.16278" lon="6.619">
        <ele>65.51</ele>
        <time>2016-04-30T14:18:40Z</time>
      </trkpt>
      <trkpt lat="43.16291" lon="6.61893">
        <ele>66.95</ele>
        <time>2016-04-30T14:18:54Z</time>
      </trkpt>
      <trkpt lat="43.16293" lon="6.61894">
        <ele>66.95</ele>
        <time>2016-04-30T14:18:56Z</time>
      </trkpt>
      <trkpt lat="43.16297" lon="6.61896">
        <ele>66.47</ele>
        <time>2016-04-30T14:19:00Z</time>
      </trkpt>
      <trkpt lat="43.16316" lon="6.61899">
        <ele>65.03</ele>
        <time>2016-04-30T14:19:16Z</time>
      </trkpt>
      <trkpt lat="43.16334" lon="6.61895">
        <ele>65.51</ele>
        <time>2016-04-30T14:19:32Z</time>
      </trkpt>
      <trkpt lat="43.16348" lon="6.61882">
        <ele>66.95</ele>
        <time>2016-04-30T14:19:47Z</time>
      </trkpt>
      <trkpt lat="43.1637" lon="6.61875">
        <ele>67.91</ele>
        <time>2016-04-30T14:20:05Z</time>
      </trkpt>
      <trkpt lat="43.16384" lon="6.61864">
        <ele>69.83</ele>
        <time>2016-04-30T14:20:19Z</time>
      </trkpt>
      <trkpt lat="43.16385" lon="6.61863">
        <ele>70.31</ele>
        <time>2016-04-30T14:20:20Z</time>
      </trkpt>
      <trkpt lat="43.16389" lon="6.61861">
        <ele>70.31</ele>
        <time>2016-04-30T14:20:23Z</time>
      </trkpt>
      <trkpt lat="43.16405" lon="6.6186">
        <ele>71.27</ele>
        <time>2016-04-30T14:20:39Z</time>
      </trkpt>
      <trkpt lat="43.16424" lon="6.61856">
        <ele>72.24</ele>
        <time>2016-04-30T14:20:54Z</time>
      </trkpt>
      <trkpt lat="43.1644" lon="6.61842">
        <ele>74.16</ele>
        <time>2016-04-30T14:21:12Z</time>
      </trkpt>
      <trkpt lat="43.16459" lon="6.61827">
        <ele>75.12</ele>
        <time>2016-04-30T14:21:30Z</time>
      </trkpt>
      <trkpt lat="43.16477" lon="6.61825">
        <ele>74.64</ele>
        <time>2016-04-30T14:21:47Z</time>
      </trkpt>
      <trkpt lat="43.16496" lon="6.61816">
        <ele>74.64</ele>
        <time>2016-04-30T14:22:02Z</time>
      </trkpt>
      <trkpt lat="43.16516" lon="6.61808">
        <ele>75.6</ele>
        <time>2016-04-30T14:22:18Z</time>
      </trkpt>
      <trkpt lat="43.16526" lon="6.61807">
        <ele>76.08</ele>
        <time>2016-04-30T14:22:27Z</time>
      </trkpt>
      <trkpt lat="43.1654" lon="6.61818">
        <ele>78</ele>
        <time>2016-04-30T14:22:43Z</time>
      </trkpt>
      <trkpt lat="43.16552" lon="6.61822">
        <ele>78.97</ele>
        <time>2016-04-30T14:22:55Z</time>
      </trkpt>
      <trkpt lat="43.1656" lon="6.61829">
        <ele>79.45</ele>
        <time>2016-04-30T14:23:03Z</time>
      </trkpt>
      <trkpt lat="43.16578" lon="6.61848">
        <ele>80.41</ele>
        <time>2016-04-30T14:23:21Z</time>
      </trkpt>
      <trkpt lat="43.16579" lon="6.61849">
        <ele>80.41</ele>
        <time>2016-04-30T14:23:22Z</time>
      </trkpt>
      <trkpt lat="43.16599" lon="6.6185">
        <ele>83.29</ele>
        <time>2016-04-30T14:23:38Z</time>
      </trkpt>
      <trkpt lat="43.16611" lon="6.61834">
        <ele>86.18</ele>
        <time>2016-04-30T14:23:55Z</time>
      </trkpt>
      <trkpt lat="43.16624" lon="6.61831">
        <ele>88.58</ele>
        <time>2016-04-30T14:24:08Z</time>
      </trkpt>
      <trkpt lat="43.1664" lon="6.6183">
        <ele>90.98</ele>
        <time>2016-04-30T14:24:24Z</time>
      </trkpt>
      <trkpt lat="43.16654" lon="6.6183">
        <ele>93.87</ele>
        <time>2016-04-30T14:24:39Z</time>
      </trkpt>
      <trkpt lat="43.16667" lon="6.61827">
        <ele>97.23</ele>
        <time>2016-04-30T14:24:54Z</time>
      </trkpt>
      <trkpt lat="43.1668" lon="6.61833">
        <ele>98.67</ele>
        <time>2016-04-30T14:25:09Z</time>
      </trkpt>
      <trkpt lat="43.16688" lon="6.61841">
        <ele>97.71</ele>
        <time>2016-04-30T14:25:19Z</time>
      </trkpt>
      <trkpt lat="43.16702" lon="6.61839">
        <ele>98.67</ele>
        <time>2016-04-30T14:25:35Z</time>
      </trkpt>
      <trkpt lat="43.16713" lon="6.6184">
        <ele>99.15</ele>
        <time>2016-04-30T14:25:46Z</time>
      </trkpt>
      <trkpt lat="43.16721" lon="6.61834">
        <ele>101.08</ele>
        <time>2016-04-30T14:26:03Z</time>
      </trkpt>
      <trkpt lat="43.16736" lon="6.61825">
        <ele>103.96</ele>
        <time>2016-04-30T14:26:19Z</time>
      </trkpt>
      <trkpt lat="43.16746" lon="6.61819">
        <ele>107.32</ele>
        <time>2016-04-30T14:26:34Z</time>
      </trkpt>
      <trkpt lat="43.16762" lon="6.61814">
        <ele>108.77</ele>
        <time>2016-04-30T14:26:51Z</time>
      </trkpt>
      <trkpt lat="43.16779" lon="6.61811">
        <ele>109.73</ele>
        <time>2016-04-30T14:27:07Z</time>
      </trkpt>
      <trkpt lat="43.16787" lon="6.61809">
        <ele>110.21</ele>
        <time>2016-04-30T14:27:17Z</time>
      </trkpt>
      <trkpt lat="43.16806" lon="6.618">
        <ele>111.17</ele>
        <time>2016-04-30T14:27:32Z</time>
      </trkpt>
      <trkpt lat="43.16822" lon="6.6179">
        <ele>112.61</ele>
        <time>2016-04-30T14:27:48Z</time>
      </trkpt>
      <trkpt lat="43.16826" lon="6.6179">
        <ele>112.61</ele>
        <time>2016-04-30T14:27:51Z</time>
      </trkpt>
      <trkpt lat="43.16844" lon="6.61781">
        <ele>114.05</ele>
        <time>2016-04-30T14:28:08Z</time>
      </trkpt>
      <trkpt lat="43.16858" lon="6.61775">
        <ele>116.46</ele>
        <time>2016-04-30T14:28:22Z</time>
      </trkpt>
      <trkpt lat="43.16871" lon="6.61764">
        <ele>119.82</ele>
        <time>2016-04-30T14:28:39Z</time>
      </trkpt>
      <trkpt lat="43.16874" lon="6.61764">
        <ele>120.3</ele>
        <time>2016-04-30T14:28:42Z</time>
      </trkpt>
      <trkpt lat="43.16877" lon="6.61764">
        <ele>120.78</ele>
        <time>2016-04-30T14:28:44Z</time>
      </trkpt>
      <trkpt lat="43.16888" lon="6.61759">
        <ele>122.22</ele>
        <time>2016-04-30T14:28:55Z</time>
      </trkpt>
      <trkpt lat="43.16898" lon="6.61753">
        <ele>124.63</ele>
        <time>2016-04-30T14:29:08Z</time>
      </trkpt>
      <trkpt lat="43.16904" lon="6.61751">
        <ele>125.59</ele>
        <time>2016-04-30T14:29:14Z</time>
      </trkpt>
      <trkpt lat="43.16912" lon="6.61745">
        <ele>127.03</ele>
        <time>2016-04-30T14:29:27Z</time>
      </trkpt>
      <trkpt lat="43.16925" lon="6.61735">
        <ele>128.95</ele>
        <time>2016-04-30T14:29:40Z</time>
      </trkpt>
      <trkpt lat="43.16926" lon="6.61731">
        <ele>129.92</ele>
        <time>2016-04-30T14:29:44Z</time>
      </trkpt>
      <trkpt lat="43.1693" lon="6.61722">
        <ele>129.92</ele>
        <time>2016-04-30T14:29:51Z</time>
      </trkpt>
      <trkpt lat="43.16931" lon="6.6172">
        <ele>130.4</ele>
        <time>2016-04-30T14:29:53Z</time>
      </trkpt>
      <trkpt lat="43.16937" lon="6.61709">
        <ele>131.84</ele>
        <time>2016-04-30T14:30:02Z</time>
      </trkpt>
      <trkpt lat="43.1694" lon="6.61705">
        <ele>131.84</ele>
        <time>2016-04-30T14:30:06Z</time>
      </trkpt>
      <trkpt lat="43.16947" lon="6.61696">
        <ele>132.8</ele>
        <time>2016-04-30T14:30:21Z</time>
      </trkpt>
      <trkpt lat="43.16948" lon="6.61698">
        <ele>132.8</ele>
        <time>2016-04-30T14:30:23Z</time>
      </trkpt>
      <trkpt lat="43.1695" lon="6.61702">
        <ele>132.8</ele>
        <time>2016-04-30T14:30:27Z</time>
      </trkpt>
      <trkpt lat="43.1696" lon="6.61713">
        <ele>132.32</ele>
        <time>2016-04-30T14:30:41Z</time>
      </trkpt>
      <trkpt lat="43.16974" lon="6.61719">
        <ele>130.88</ele>
        <time>2016-04-30T14:30:59Z</time>
      </trkpt>
      <trkpt lat="43.16986" lon="6.6172">
        <ele>130.4</ele>
        <time>2016-04-30T14:31:13Z</time>
      </trkpt>
      <trkpt lat="43.17" lon="6.6172">
        <ele>129.92</ele>
        <time>2016-04-30T14:31:28Z</time>
      </trkpt>
      <trkpt lat="43.17009" lon="6.61721">
        <ele>129.92</ele>
        <time>2016-04-30T14:31:37Z</time>
      </trkpt>
      <trkpt lat="43.1702" lon="6.61725">
        <ele>129.92</ele>
        <time>2016-04-30T14:31:50Z</time>
      </trkpt>
      <trkpt lat="43.17034" lon="6.61727">
        <ele>128.95</ele>
        <time>2016-04-30T14:32:06Z</time>
      </trkpt>
      <trkpt lat="43.17041" lon="6.61729">
        <ele>128.95</ele>
        <time>2016-04-30T14:32:14Z</time>
      </trkpt>
      <trkpt lat="43.17049" lon="6.61738">
        <ele>127.51</ele>
        <time>2016-04-30T14:32:27Z</time>
      </trkpt>
      <trkpt lat="43.17058" lon="6.61745">
        <ele>127.99</ele>
        <time>2016-04-30T14:32:40Z</time>
      </trkpt>
      <trkpt lat="43.17065" lon="6.61752">
        <ele>127.51</ele>
        <time>2016-04-30T14:32:50Z</time>
      </trkpt>
      <trkpt lat="43.17075" lon="6.61763">
        <ele>127.03</ele>
        <time>2016-04-30T14:33:04Z</time>
      </trkpt>
      <trkpt lat="43.17077" lon="6.61764">
        <ele>127.03</ele>
        <time>2016-04-30T14:33:06Z</time>
      </trkpt>
      <trkpt lat="43.17094" lon="6.61772">
        <ele>125.11</ele>
        <time>2016-04-30T14:33:24Z</time>
      </trkpt>
      <trkpt lat="43.171" lon="6.61775">
        <ele>124.15</ele>
        <time>2016-04-30T14:33:31Z</time>
      </trkpt>
      <trkpt lat="43.17107" lon="6.61774">
        <ele>122.71</ele>
        <time>2016-04-30T14:33:38Z</time>
      </trkpt>
      <trkpt lat="43.17126" lon="6.61767">
        <ele>120.78</ele>
        <time>2016-04-30T14:33:53Z</time>
      </trkpt>
      <trkpt lat="43.17139" lon="6.61758">
        <ele>118.38</ele>
        <time>2016-04-30T14:34:10Z</time>
      </trkpt>
      <trkpt lat="43.1715" lon="6.6175">
        <ele>116.94</ele>
        <time>2016-04-30T14:34:23Z</time>
      </trkpt>
      <trkpt lat="43.17167" lon="6.61744">
        <ele>115.5</ele>
        <time>2016-04-30T14:34:39Z</time>
      </trkpt>
      <trkpt lat="43.17178" lon="6.61743">
        <ele>115.01</ele>
        <time>2016-04-30T14:34:49Z</time>
      </trkpt>
      <trkpt lat="43.17196" lon="6.61741">
        <ele>114.53</ele>
        <time>2016-04-30T14:35:02Z</time>
      </trkpt>
      <trkpt lat="43.17216" lon="6.61742">
        <ele>113.09</ele>
        <time>2016-04-30T14:35:17Z</time>
      </trkpt>
      <trkpt lat="43.17236" lon="6.6174">
        <ele>112.61</ele>
        <time>2016-04-30T14:35:34Z</time>
      </trkpt>
      <trkpt lat="43.17253" lon="6.6174">
        <ele>110.21</ele>
        <time>2016-04-30T14:35:49Z</time>
      </trkpt>
      <trkpt lat="43.17275" lon="6.61737">
        <ele>108.77</ele>
        <time>2016-04-30T14:36:04Z</time>
      </trkpt>
      <trkpt lat="43.17294" lon="6.61723">
        <ele>107.32</ele>
        <time>2016-04-30T14:36:22Z</time>
      </trkpt>
      <trkpt lat="43.17305" lon="6.61716">
        <ele>106.36</ele>
        <time>2016-04-30T14:36:32Z</time>
      </trkpt>
      <trkpt lat="43.17325" lon="6.61708">
        <ele>104.44</ele>
        <time>2016-04-30T14:36:48Z</time>
      </trkpt>
      <trkpt lat="43.17344" lon="6.61697">
        <ele>102.04</ele>
        <time>2016-04-30T14:37:06Z</time>
      </trkpt>
      <trkpt lat="43.17362" lon="6.61684">
        <ele>100.6</ele>
        <time>2016-04-30T14:37:21Z</time>
      </trkpt>
      <trkpt lat="43.17373" lon="6.61669">
        <ele>97.23</ele>
        <time>2016-04-30T14:37:33Z</time>
      </trkpt>
      <trkpt lat="43.17386" lon="6.61654">
        <ele>94.35</ele>
        <time>2016-04-30T14:37:48Z</time>
      </trkpt>
      <trkpt lat="43.17395" lon="6.61645">
        <ele>92.42</ele>
        <time>2016-04-30T14:37:57Z</time>
      </trkpt>
      <trkpt lat="43.17403" lon="6.61631">
        <ele>89.06</ele>
        <time>2016-04-30T14:38:07Z</time>
      </trkpt>
      <trkpt lat="43.17415" lon="6.6162">
        <ele>86.18</ele>
        <time>2016-04-30T14:38:23Z</time>
      </trkpt>
      <trkpt lat="43.17418" lon="6.61619">
        <ele>85.21</ele>
        <time>2016-04-30T14:38:25Z</time>
      </trkpt>
      <trkpt lat="43.17419" lon="6.61619">
        <ele>84.73</ele>
        <time>2016-04-30T14:38:26Z</time>
      </trkpt>
      <trkpt lat="43.17432" lon="6.6162">
        <ele>81.37</ele>
        <time>2016-04-30T14:38:37Z</time>
      </trkpt>
      <trkpt lat="43.17445" lon="6.61625">
        <ele>78.48</ele>
        <time>2016-04-30T14:38:49Z</time>
      </trkpt>
      <trkpt lat="43.17455" lon="6.6163">
        <ele>75.6</ele>
        <time>2016-04-30T14:38:58Z</time>
      </trkpt>
      <trkpt lat="43.1746" lon="6.61632">
        <ele>74.64</ele>
        <time>2016-04-30T14:39:02Z</time>
      </trkpt>
      <trkpt lat="43.17476" lon="6.61644">
        <ele>71.27</ele>
        <time>2016-04-30T14:39:16Z</time>
      </trkpt>
      <trkpt lat="43.17478" lon="6.61645">
        <ele>70.79</ele>
        <time>2016-04-30T14:39:18Z</time>
      </trkpt>
      <trkpt lat="43.17479" lon="6.61646">
        <ele>70.31</ele>
        <time>2016-04-30T14:39:19Z</time>
      </trkpt>
      <trkpt lat="43.17492" lon="6.6166">
        <ele>66.47</ele>
        <time>2016-04-30T14:39:32Z</time>
      </trkpt>
      <trkpt lat="43.17503" lon="6.61666">
        <ele>63.58</ele>
        <time>2016-04-30T14:39:42Z</time>
      </trkpt>
      <trkpt lat="43.17505" lon="6.61667">
        <ele>63.1</ele>
        <time>2016-04-30T14:39:44Z</time>
      </trkpt>
      <trkpt lat="43.17519" lon="6.61665">
        <ele>59.74</ele>
        <time>2016-04-30T14:39:55Z</time>
      </trkpt>
      <trkpt lat="43.17535" lon="6.61659">
        <ele>58.3</ele>
        <time>2016-04-30T14:40:12Z</time>
      </trkpt>
      <trkpt lat="43.17535" lon="6.61659">
        <ele>58.3</ele>
        <time>2016-04-30T14:40:15Z</time>
      </trkpt>
      <trkpt lat="43.17541" lon="6.61653">
        <ele>56.86</ele>
        <time>2016-04-30T14:40:22Z</time>
      </trkpt>
      <trkpt lat="43.17543" lon="6.6165">
        <ele>56.86</ele>
        <time>2016-04-30T14:40:25Z</time>
      </trkpt>
      <trkpt lat="43.17541" lon="6.61643">
        <ele>56.37</ele>
        <time>2016-04-30T14:40:29Z</time>
      </trkpt>
      <trkpt lat="43.17539" lon="6.61638">
        <ele>56.37</ele>
        <time>2016-04-30T14:40:33Z</time>
      </trkpt>
      <trkpt lat="43.17539" lon="6.61636">
        <ele>55.41</ele>
        <time>2016-04-30T14:40:46Z</time>
      </trkpt>
      <trkpt lat="43.17538" lon="6.6163">
        <ele>55.89</ele>
        <time>2016-04-30T14:41:05Z</time>
      </trkpt>
      <trkpt lat="43.17536" lon="6.61621">
        <ele>55.41</ele>
        <time>2016-04-30T14:41:16Z</time>
      </trkpt>
      <trkpt lat="43.17531" lon="6.6161">
        <ele>54.45</ele>
        <time>2016-04-30T14:41:24Z</time>
      </trkpt>
      <trkpt lat="43.17525" lon="6.61585">
        <ele>52.05</ele>
        <time>2016-04-30T14:41:40Z</time>
      </trkpt>
      <trkpt lat="43.17517" lon="6.61566">
        <ele>50.13</ele>
        <time>2016-04-30T14:41:54Z</time>
      </trkpt>
      <trkpt lat="43.17515" lon="6.61561">
        <ele>50.13</ele>
        <time>2016-04-30T14:41:59Z</time>
      </trkpt>
      <trkpt lat="43.17506" lon="6.61534">
        <ele>47.72</ele>
        <time>2016-04-30T14:42:16Z</time>
      </trkpt>
      <trkpt lat="43.17501" lon="6.61523">
        <ele>46.76</ele>
        <time>2016-04-30T14:42:26Z</time>
      </trkpt>
      <trkpt lat="43.17499" lon="6.61517">
        <ele>44.84</ele>
        <time>2016-04-30T14:42:30Z</time>
      </trkpt>
      <trkpt lat="43.17488" lon="6.61499">
        <ele>41.95</ele>
        <time>2016-04-30T14:42:46Z</time>
      </trkpt>
      <trkpt lat="43.17472" lon="6.61481">
        <ele>39.07</ele>
        <time>2016-04-30T14:43:05Z</time>
      </trkpt>
      <trkpt lat="43.17462" lon="6.61464">
        <ele>36.19</ele>
        <time>2016-04-30T14:43:19Z</time>
      </trkpt>
      <trkpt lat="43.17448" lon="6.61446">
        <ele>33.3</ele>
        <time>2016-04-30T14:43:34Z</time>
      </trkpt>
      <trkpt lat="43.17439" lon="6.61436">
        <ele>31.38</ele>
        <time>2016-04-30T14:43:45Z</time>
      </trkpt>
      <trkpt lat="43.17424" lon="6.61416">
        <ele>28.98</ele>
        <time>2016-04-30T14:44:02Z</time>
      </trkpt>
      <trkpt lat="43.1742" lon="6.61404">
        <ele>27.53</ele>
        <time>2016-04-30T14:44:15Z</time>
      </trkpt>
      <trkpt lat="43.17415" lon="6.61387">
        <ele>24.17</ele>
        <time>2016-04-30T14:44:30Z</time>
      </trkpt>
      <trkpt lat="43.17413" lon="6.6136">
        <ele>23.69</ele>
        <time>2016-04-30T14:44:48Z</time>
      </trkpt>
      <trkpt lat="43.17402" lon="6.61345">
        <ele>21.77</ele>
        <time>2016-04-30T14:45:03Z</time>
      </trkpt>
      <trkpt lat="43.17396" lon="6.61329">
        <ele>20.81</ele>
        <time>2016-04-30T14:45:16Z</time>
      </trkpt>
      <trkpt lat="43.17396" lon="6.61326">
        <ele>20.32</ele>
        <time>2016-04-30T14:45:19Z</time>
      </trkpt>
      <trkpt lat="43.17389" lon="6.61308">
        <ele>20.81</ele>
        <time>2016-04-30T14:45:33Z</time>
      </trkpt>
      <trkpt lat="43.17386" lon="6.61304">
        <ele>20.32</ele>
        <time>2016-04-30T14:45:37Z</time>
      </trkpt>
      <trkpt lat="43.1738" lon="6.61283">
        <ele>19.36</ele>
        <time>2016-04-30T14:45:52Z</time>
      </trkpt>
      <trkpt lat="43.17375" lon="6.61262">
        <ele>18.88</ele>
        <time>2016-04-30T14:46:06Z</time>
      </trkpt>
      <trkpt lat="43.17374" lon="6.61241">
        <ele>16.96</ele>
        <time>2016-04-30T14:46:19Z</time>
      </trkpt>
      <trkpt lat="43.17371" lon="6.6122">
        <ele>15.04</ele>
        <time>2016-04-30T14:46:34Z</time>
      </trkpt>
      <trkpt lat="43.1737" lon="6.61196">
        <ele>15.04</ele>
        <time>2016-04-30T14:46:49Z</time>
      </trkpt>
      <trkpt lat="43.17366" lon="6.61179">
        <ele>14.08</ele>
        <time>2016-04-30T14:47:01Z</time>
      </trkpt>
      <trkpt lat="43.17368" lon="6.61154">
        <ele>13.6</ele>
        <time>2016-04-30T14:47:15Z</time>
      </trkpt>
      <trkpt lat="43.17371" lon="6.6113">
        <ele>12.63</ele>
        <time>2016-04-30T14:47:29Z</time>
      </trkpt>
      <trkpt lat="43.17363" lon="6.61113">
        <ele>9.75</ele>
        <time>2016-04-30T14:47:41Z</time>
      </trkpt>
      <trkpt lat="43.17355" lon="6.61092">
        <ele>11.19</ele>
        <time>2016-04-30T14:47:56Z</time>
      </trkpt>
      <trkpt lat="43.17357" lon="6.61092">
        <ele>11.67</ele>
        <time>2016-04-30T14:48:13Z</time>
      </trkpt>
      <trkpt lat="43.17358" lon="6.61093">
        <ele>11.19</ele>
        <time>2016-04-30T14:48:27Z</time>
      </trkpt>
      <trkpt lat="43.17361" lon="6.61093">
        <ele>11.19</ele>
        <time>2016-04-30T14:48:48Z</time>
      </trkpt>
      <trkpt lat="43.1736" lon="6.61091">
        <ele>12.15</ele>
        <time>2016-04-30T14:49:05Z</time>
      </trkpt>
      <trkpt lat="43.17357" lon="6.6109">
        <ele>10.23</ele>
        <time>2016-04-30T14:49:14Z</time>
      </trkpt>
      <trkpt lat="43.17355" lon="6.61089">
        <ele>10.23</ele>
        <time>2016-04-30T14:49:39Z</time>
      </trkpt>
      <trkpt lat="43.17354" lon="6.6109">
        <ele>10.23</ele>
        <time>2016-04-30T14:49:56Z</time>
      </trkpt>
      <trkpt lat="43.17354" lon="6.61089">
        <ele>10.71</ele>
        <time>2016-04-30T14:50:21Z</time>
      </trkpt>
      <trkpt lat="43.17354" lon="6.6109">
        <ele>10.23</ele>
        <time>2016-04-30T14:50:42Z</time>
      </trkpt>
      <trkpt lat="43.17354" lon="6.6109">
        <ele>10.23</ele>
        <time>2016-04-30T14:51:06Z</time>
      </trkpt>
      <trkpt lat="43.17354" lon="6.61092">
        <ele>11.19</ele>
        <time>2016-04-30T14:51:27Z</time>
      </trkpt>
      <trkpt lat="43.17354" lon="6.61096">
        <ele>10.23</ele>
        <time>2016-04-30T14:51:39Z</time>
      </trkpt>
      <trkpt lat="43.17354" lon="6.61096">
        <ele>9.27</ele>
        <time>2016-04-30T14:51:41Z</time>
      </trkpt>
      <trkpt lat="43.17352" lon="6.61089">
        <ele>9.75</ele>
        <time>2016-04-30T14:51:56Z</time>
      </trkpt>
      <trkpt lat="43.17346" lon="6.61067">
        <ele>8.79</ele>
        <time>2016-04-30T14:52:11Z</time>
      </trkpt>
      <trkpt lat="43.17342" lon="6.61049">
        <ele>8.79</ele>
        <time>2016-04-30T14:52:25Z</time>
      </trkpt>
      <trkpt lat="43.17338" lon="6.61035">
        <ele>6.39</ele>
        <time>2016-04-30T14:52:33Z</time>
      </trkpt>
      <trkpt lat="43.17339" lon="6.6101">
        <ele>5.42</ele>
        <time>2016-04-30T14:52:48Z</time>
      </trkpt>
      <trkpt lat="43.17345" lon="6.60982">
        <ele>3.98</ele>
        <time>2016-04-30T14:53:04Z</time>
      </trkpt>
      <trkpt lat="43.17346" lon="6.60977">
        <ele>3.98</ele>
        <time>2016-04-30T14:53:07Z</time>
      </trkpt>
      <trkpt lat="43.17349" lon="6.6095">
        <ele>3.98</ele>
        <time>2016-04-30T14:53:22Z</time>
      </trkpt>
      <trkpt lat="43.17349" lon="6.60937">
        <ele>3.98</ele>
        <time>2016-04-30T14:53:29Z</time>
      </trkpt>
      <trkpt lat="43.17349" lon="6.60917">
        <ele>2.54</ele>
        <time>2016-04-30T14:53:40Z</time>
      </trkpt>
      <trkpt lat="43.17348" lon="6.60914">
        <ele>3.5</ele>
        <time>2016-04-30T14:53:42Z</time>
      </trkpt>
      <trkpt lat="43.17347" lon="6.609">
        <ele>0.62</ele>
        <time>2016-04-30T14:53:50Z</time>
      </trkpt>
      <trkpt lat="43.17328" lon="6.60883">
        <ele>0.62</ele>
        <time>2016-04-30T14:54:06Z</time>
      </trkpt>
      <trkpt lat="43.17326" lon="6.6088">
        <ele>0.14</ele>
        <time>2016-04-30T14:54:09Z</time>
      </trkpt>
      <trkpt lat="43.17322" lon="6.60875">
        <ele>0.14</ele>
        <time>2016-04-30T14:54:13Z</time>
      </trkpt>
      <trkpt lat="43.17309" lon="6.60851">
        <ele>-1.79</ele>
        <time>2016-04-30T14:54:29Z</time>
      </trkpt>
      <trkpt lat="43.17304" lon="6.60837">
        <ele>-0.82</ele>
        <time>2016-04-30T14:54:38Z</time>
      </trkpt>
      <trkpt lat="43.17304" lon="6.60835">
        <ele>-1.3</ele>
        <time>2016-04-30T14:54:39Z</time>
      </trkpt>
      <trkpt lat="43.17308" lon="6.60825">
        <ele>-0.34</ele>
        <time>2016-04-30T14:54:47Z</time>
      </trkpt>
      <trkpt lat="43.17313" lon="6.60814">
        <ele>0.14</ele>
        <time>2016-04-30T14:54:54Z</time>
      </trkpt>
      <trkpt lat="43.17321" lon="6.60809">
        <ele>1.1</ele>
        <time>2016-04-30T14:55:04Z</time>
      </trkpt>
      <trkpt lat="43.17323" lon="6.60809">
        <ele>1.1</ele>
        <time>2016-04-30T14:55:06Z</time>
      </trkpt>
      <trkpt lat="43.17326" lon="6.60794">
        <ele>2.06</ele>
        <time>2016-04-30T14:55:17Z</time>
      </trkpt>
      <trkpt lat="43.1733" lon="6.60784">
        <ele>1.58</ele>
        <time>2016-04-30T14:55:24Z</time>
      </trkpt>
      <trkpt lat="43.17331" lon="6.60779">
        <ele>0.14</ele>
        <time>2016-04-30T14:55:30Z</time>
      </trkpt>
      <trkpt lat="43.17332" lon="6.60777">
        <ele>-1.3</ele>
        <time>2016-04-30T14:55:32Z</time>
      </trkpt>
      <trkpt lat="43.17332" lon="6.60774">
        <ele>-2.75</ele>
        <time>2016-04-30T14:55:34Z</time>
      </trkpt>
      <trkpt lat="43.17333" lon="6.60771">
        <ele>-3.23</ele>
        <time>2016-04-30T14:55:36Z</time>
      </trkpt>
      <trkpt lat="43.17342" lon="6.60756">
        <ele>-3.71</ele>
        <time>2016-04-30T14:55:50Z</time>
      </trkpt>
      <trkpt lat="43.17345" lon="6.60753">
        <ele>-2.75</ele>
        <time>2016-04-30T14:55:55Z</time>
      </trkpt>
      <trkpt lat="43.17346" lon="6.6075">
        <ele>-2.27</ele>
        <time>2016-04-30T14:55:58Z</time>
      </trkpt>
      <trkpt lat="43.17348" lon="6.6074">
        <ele>-1.3</ele>
        <time>2016-04-30T14:56:05Z</time>
      </trkpt>
      <trkpt lat="43.1735" lon="6.60732">
        <ele>-0.34</ele>
        <time>2016-04-30T14:56:13Z</time>
      </trkpt>
      <trkpt lat="43.17357" lon="6.60711">
        <ele>-1.79</ele>
        <time>2016-04-30T14:56:27Z</time>
      </trkpt>
      <trkpt lat="43.1736" lon="6.607">
        <ele>-0.82</ele>
        <time>2016-04-30T14:56:37Z</time>
      </trkpt>
      <trkpt lat="43.1736" lon="6.60697">
        <ele>-1.79</ele>
        <time>2016-04-30T14:56:39Z</time>
      </trkpt>
      <trkpt lat="43.17363" lon="6.60673">
        <ele>0.14</ele>
        <time>2016-04-30T14:56:55Z</time>
      </trkpt>
      <trkpt lat="43.17365" lon="6.60661">
        <ele>1.58</ele>
        <time>2016-04-30T14:57:11Z</time>
      </trkpt>
      <trkpt lat="43.17365" lon="6.60654">
        <ele>1.1</ele>
        <time>2016-04-30T14:57:16Z</time>
      </trkpt>
      <trkpt lat="43.17368" lon="6.60643">
        <ele>3.02</ele>
        <time>2016-04-30T14:57:24Z</time>
      </trkpt>
      <trkpt lat="43.1737" lon="6.6064">
        <ele>2.54</ele>
        <time>2016-04-30T14:57:26Z</time>
      </trkpt>
      <trkpt lat="43.17374" lon="6.60634">
        <ele>4.94</ele>
        <time>2016-04-30T14:57:40Z</time>
      </trkpt>
      <trkpt lat="43.17376" lon="6.60627">
        <ele>8.31</ele>
        <time>2016-04-30T14:57:53Z</time>
      </trkpt>
      <trkpt lat="43.17381" lon="6.60616">
        <ele>8.31</ele>
        <time>2016-04-30T14:58:07Z</time>
      </trkpt>
      <trkpt lat="43.17381" lon="6.6061">
        <ele>7.35</ele>
        <time>2016-04-30T14:58:13Z</time>
      </trkpt>
      <trkpt lat="43.17378" lon="6.60607">
        <ele>3.98</ele>
        <time>2016-04-30T14:58:23Z</time>
      </trkpt>
      <trkpt lat="43.17376" lon="6.60601">
        <ele>2.06</ele>
        <time>2016-04-30T14:58:33Z</time>
      </trkpt>
      <trkpt lat="43.17376" lon="6.60598">
        <ele>0.62</ele>
        <time>2016-04-30T14:58:39Z</time>
      </trkpt>
      <trkpt lat="43.17376" lon="6.60597">
        <ele>0.62</ele>
        <time>2016-04-30T14:58:40Z</time>
      </trkpt>
      <trkpt lat="43.17375" lon="6.60589">
        <ele>-0.34</ele>
        <time>2016-04-30T14:58:45Z</time>
      </trkpt>
      <trkpt lat="43.17377" lon="6.60563">
        <ele>0.62</ele>
        <time>2016-04-30T14:59:00Z</time>
      </trkpt>
      <trkpt lat="43.17378" lon="6.60561">
        <ele>0.62</ele>
        <time>2016-04-30T14:59:02Z</time>
      </trkpt>
      <trkpt lat="43.17379" lon="6.60555">
        <ele>2.54</ele>
        <time>2016-04-30T14:59:08Z</time>
      </trkpt>
      <trkpt lat="43.17378" lon="6.60551">
        <ele>2.06</ele>
        <time>2016-04-30T14:59:13Z</time>
      </trkpt>
      <trkpt lat="43.17378" lon="6.6055">
        <ele>3.02</ele>
        <time>2016-04-30T14:59:15Z</time>
      </trkpt>
      <trkpt lat="43.1738" lon="6.60547">
        <ele>2.54</ele>
        <time>2016-04-30T14:59:17Z</time>
      </trkpt>
      <trkpt lat="43.17387" lon="6.60523">
        <ele>1.58</ele>
        <time>2016-04-30T14:59:33Z</time>
      </trkpt>
      <trkpt lat="43.17392" lon="6.60503">
        <ele>2.54</ele>
        <time>2016-04-30T14:59:48Z</time>
      </trkpt>
      <trkpt lat="43.1739" lon="6.605">
        <ele>3.02</ele>
        <time>2016-04-30T14:59:50Z</time>
      </trkpt>
      <trkpt lat="43.17388" lon="6.60488">
        <ele>1.58</ele>
        <time>2016-04-30T14:59:58Z</time>
      </trkpt>
      <trkpt lat="43.17386" lon="6.60482">
        <ele>2.06</ele>
        <time>2016-04-30T15:00:02Z</time>
      </trkpt>
      <trkpt lat="43.17388" lon="6.60457">
        <ele>3.02</ele>
        <time>2016-04-30T15:00:19Z</time>
      </trkpt>
      <trkpt lat="43.1739" lon="6.6045">
        <ele>5.42</ele>
        <time>2016-04-30T15:00:26Z</time>
      </trkpt>
      <trkpt lat="43.17393" lon="6.60435">
        <ele>8.31</ele>
        <time>2016-04-30T15:00:42Z</time>
      </trkpt>
      <trkpt lat="43.1739" lon="6.60429">
        <ele>12.15</ele>
        <time>2016-04-30T15:00:53Z</time>
      </trkpt>
      <trkpt lat="43.17394" lon="6.60417">
        <ele>12.63</ele>
        <time>2016-04-30T15:01:04Z</time>
      </trkpt>
      <trkpt lat="43.17398" lon="6.60409">
        <ele>10.23</ele>
        <time>2016-04-30T15:01:14Z</time>
      </trkpt>
      <trkpt lat="43.17398" lon="6.60408">
        <ele>9.75</ele>
        <time>2016-04-30T15:01:17Z</time>
      </trkpt>
      <trkpt lat="43.174" lon="6.60402">
        <ele>8.79</ele>
        <time>2016-04-30T15:01:21Z</time>
      </trkpt>
      <trkpt lat="43.17401" lon="6.60399">
        <ele>8.79</ele>
        <time>2016-04-30T15:01:23Z</time>
      </trkpt>
      <trkpt lat="43.17404" lon="6.60374">
        <ele>9.27</ele>
        <time>2016-04-30T15:01:40Z</time>
      </trkpt>
      <trkpt lat="43.17405" lon="6.60372">
        <ele>9.27</ele>
        <time>2016-04-30T15:01:43Z</time>
      </trkpt>
      <trkpt lat="43.17407" lon="6.6037">
        <ele>8.31</ele>
        <time>2016-04-30T15:01:45Z</time>
      </trkpt>
      <trkpt lat="43.17408" lon="6.60368">
        <ele>8.79</ele>
        <time>2016-04-30T15:01:47Z</time>
      </trkpt>
      <trkpt lat="43.17407" lon="6.60354">
        <ele>8.79</ele>
        <time>2016-04-30T15:01:55Z</time>
      </trkpt>
      <trkpt lat="43.1741" lon="6.60338">
        <ele>10.71</ele>
        <time>2016-04-30T15:02:07Z</time>
      </trkpt>
      <trkpt lat="43.17424" lon="6.60321">
        <ele>9.75</ele>
        <time>2016-04-30T15:02:24Z</time>
      </trkpt>
      <trkpt lat="43.17436" lon="6.60316">
        <ele>10.23</ele>
        <time>2016-04-30T15:02:38Z</time>
      </trkpt>
      <trkpt lat="43.17445" lon="6.60311">
        <ele>7.35</ele>
        <time>2016-04-30T15:02:49Z</time>
      </trkpt>
      <trkpt lat="43.17454" lon="6.60307">
        <ele>4.94</ele>
        <time>2016-04-30T15:03:07Z</time>
      </trkpt>
      <trkpt lat="43.17466" lon="6.60307">
        <ele>3.98</ele>
        <time>2016-04-30T15:03:23Z</time>
      </trkpt>
      <trkpt lat="43.17468" lon="6.60309">
        <ele>3.98</ele>
        <time>2016-04-30T15:03:26Z</time>
      </trkpt>
      <trkpt lat="43.17474" lon="6.60312">
        <ele>4.46</ele>
        <time>2016-04-30T15:03:33Z</time>
      </trkpt>
      <trkpt lat="43.17477" lon="6.60318">
        <ele>3.98</ele>
        <time>2016-04-30T15:03:37Z</time>
      </trkpt>
      <trkpt lat="43.1748" lon="6.60333">
        <ele>4.94</ele>
        <time>2016-04-30T15:03:53Z</time>
      </trkpt>
      <trkpt lat="43.17484" lon="6.6034">
        <ele>1.58</ele>
        <time>2016-04-30T15:04:02Z</time>
      </trkpt>
      <trkpt lat="43.17486" lon="6.60357">
        <ele>1.1</ele>
        <time>2016-04-30T15:04:15Z</time>
      </trkpt>
      <trkpt lat="43.17493" lon="6.6038">
        <ele>0.62</ele>
        <time>2016-04-30T15:04:31Z</time>
      </trkpt>
      <trkpt lat="43.17493" lon="6.60394">
        <ele>1.58</ele>
        <time>2016-04-30T15:04:46Z</time>
      </trkpt>
      <trkpt lat="43.17488" lon="6.60401">
        <ele>4.94</ele>
        <time>2016-04-30T15:04:55Z</time>
      </trkpt>
      <trkpt lat="43.17491" lon="6.60418">
        <ele>6.39</ele>
        <time>2016-04-30T15:05:12Z</time>
      </trkpt>
      <trkpt lat="43.17494" lon="6.60433">
        <ele>8.31</ele>
        <time>2016-04-30T15:05:25Z</time>
      </trkpt>
      <trkpt lat="43.17498" lon="6.60434">
        <ele>9.27</ele>
        <time>2016-04-30T15:05:47Z</time>
      </trkpt>
      <trkpt lat="43.17499" lon="6.60435">
        <ele>7.83</ele>
        <time>2016-04-30T15:05:50Z</time>
      </trkpt>
      <trkpt lat="43.17509" lon="6.6043">
        <ele>4.46</ele>
        <time>2016-04-30T15:06:00Z</time>
      </trkpt>
      <trkpt lat="43.17516" lon="6.60428">
        <ele>2.54</ele>
        <time>2016-04-30T15:06:09Z</time>
      </trkpt>
      <trkpt lat="43.17517" lon="6.6043">
        <ele>2.54</ele>
        <time>2016-04-30T15:06:11Z</time>
      </trkpt>
      <trkpt lat="43.17518" lon="6.60434">
        <ele>1.1</ele>
        <time>2016-04-30T15:06:14Z</time>
      </trkpt>
      <trkpt lat="43.17522" lon="6.60442">
        <ele>-0.34</ele>
        <time>2016-04-30T15:06:22Z</time>
      </trkpt>
      <trkpt lat="43.17532" lon="6.60456">
        <ele>0.62</ele>
        <time>2016-04-30T15:06:35Z</time>
      </trkpt>
      <trkpt lat="43.17532" lon="6.60459">
        <ele>1.1</ele>
        <time>2016-04-30T15:06:37Z</time>
      </trkpt>
      <trkpt lat="43.17533" lon="6.60468">
        <ele>0.62</ele>
        <time>2016-04-30T15:06:43Z</time>
      </trkpt>
      <trkpt lat="43.17545" lon="6.60473">
        <ele>1.58</ele>
        <time>2016-04-30T15:06:53Z</time>
      </trkpt>
      <trkpt lat="43.17553" lon="6.60479">
        <ele>2.06</ele>
        <time>2016-04-30T15:07:05Z</time>
      </trkpt>
      <trkpt lat="43.1756" lon="6.60478">
        <ele>2.54</ele>
        <time>2016-04-30T15:07:11Z</time>
      </trkpt>
      <trkpt lat="43.17573" lon="6.60464">
        <ele>0.62</ele>
        <time>2016-04-30T15:07:27Z</time>
      </trkpt>
      <trkpt lat="43.17583" lon="6.60459">
        <ele>1.1</ele>
        <time>2016-04-30T15:07:41Z</time>
      </trkpt>
      <trkpt lat="43.17594" lon="6.6046">
        <ele>4.46</ele>
        <time>2016-04-30T15:07:55Z</time>
      </trkpt>
      <trkpt lat="43.17609" lon="6.60455">
        <ele>1.1</ele>
        <time>2016-04-30T15:08:12Z</time>
      </trkpt>
      <trkpt lat="43.1762" lon="6.60451">
        <ele>2.06</ele>
        <time>2016-04-30T15:08:24Z</time>
      </trkpt>
      <trkpt lat="43.17633" lon="6.60451">
        <ele>1.58</ele>
        <time>2016-04-30T15:08:34Z</time>
      </trkpt>
      <trkpt lat="43.17651" lon="6.60454">
        <ele>0.62</ele>
        <time>2016-04-30T15:08:50Z</time>
      </trkpt>
      <trkpt lat="43.17664" lon="6.60456">
        <ele>1.58</ele>
        <time>2016-04-30T15:09:04Z</time>
      </trkpt>
      <trkpt lat="43.1767" lon="6.6045">
        <ele>2.06</ele>
        <time>2016-04-30T15:09:11Z</time>
      </trkpt>
      <trkpt lat="43.17674" lon="6.60445">
        <ele>4.94</ele>
        <time>2016-04-30T15:09:24Z</time>
      </trkpt>
      <trkpt lat="43.17674" lon="6.60445">
        <ele>5.42</ele>
        <time>2016-04-30T15:09:25Z</time>
      </trkpt>
      <trkpt lat="43.17677" lon="6.60444">
        <ele>5.91</ele>
        <time>2016-04-30T15:09:27Z</time>
      </trkpt>
      <trkpt lat="43.17681" lon="6.60439">
        <ele>6.87</ele>
        <time>2016-04-30T15:09:32Z</time>
      </trkpt>
      <trkpt lat="43.17692" lon="6.60422">
        <ele>7.83</ele>
        <time>2016-04-30T15:09:47Z</time>
      </trkpt>
      <trkpt lat="43.177" lon="6.60411">
        <ele>8.31</ele>
        <time>2016-04-30T15:10:00Z</time>
      </trkpt>
      <trkpt lat="43.17709" lon="6.60411">
        <ele>9.75</ele>
        <time>2016-04-30T15:10:15Z</time>
      </trkpt>
      <trkpt lat="43.17725" lon="6.60421">
        <ele>10.71</ele>
        <time>2016-04-30T15:10:30Z</time>
      </trkpt>
      <trkpt lat="43.17742" lon="6.60426">
        <ele>11.19</ele>
        <time>2016-04-30T15:10:46Z</time>
      </trkpt>
      <trkpt lat="43.17752" lon="6.60411">
        <ele>10.23</ele>
        <time>2016-04-30T15:10:58Z</time>
      </trkpt>
      <trkpt lat="43.17757" lon="6.60405">
        <ele>10.71</ele>
        <time>2016-04-30T15:11:04Z</time>
      </trkpt>
      <trkpt lat="43.17772" lon="6.60394">
        <ele>11.19</ele>
        <time>2016-04-30T15:11:17Z</time>
      </trkpt>
      <trkpt lat="43.17786" lon="6.60386">
        <ele>11.67</ele>
        <time>2016-04-30T15:11:31Z</time>
      </trkpt>
      <trkpt lat="43.17807" lon="6.6038">
        <ele>13.6</ele>
        <time>2016-04-30T15:11:46Z</time>
      </trkpt>
      <trkpt lat="43.17822" lon="6.60378">
        <ele>14.08</ele>
        <time>2016-04-30T15:11:56Z</time>
      </trkpt>
      <trkpt lat="43.17829" lon="6.60378">
        <ele>15.52</ele>
        <time>2016-04-30T15:12:03Z</time>
      </trkpt>
      <trkpt lat="43.17841" lon="6.60381">
        <ele>16</ele>
        <time>2016-04-30T15:12:13Z</time>
      </trkpt>
      <trkpt lat="43.17845" lon="6.60374">
        <ele>16.96</ele>
        <time>2016-04-30T15:12:19Z</time>
      </trkpt>
      <trkpt lat="43.17854" lon="6.60358">
        <ele>18.4</ele>
        <time>2016-04-30T15:12:34Z</time>
      </trkpt>
      <trkpt lat="43.17854" lon="6.60354">
        <ele>18.4</ele>
        <time>2016-04-30T15:12:36Z</time>
      </trkpt>
      <trkpt lat="43.17857" lon="6.60348">
        <ele>18.4</ele>
        <time>2016-04-30T15:12:43Z</time>
      </trkpt>
      <trkpt lat="43.17862" lon="6.60343">
        <ele>18.4</ele>
        <time>2016-04-30T15:12:47Z</time>
      </trkpt>
      <trkpt lat="43.17878" lon="6.60335">
        <ele>16.96</ele>
        <time>2016-04-30T15:13:02Z</time>
      </trkpt>
      <trkpt lat="43.1789" lon="6.60328">
        <ele>15.52</ele>
        <time>2016-04-30T15:13:14Z</time>
      </trkpt>
      <trkpt lat="43.17895" lon="6.60318">
        <ele>13.6</ele>
        <time>2016-04-30T15:13:20Z</time>
      </trkpt>
      <trkpt lat="43.17905" lon="6.60302">
        <ele>11.67</ele>
        <time>2016-04-30T15:13:34Z</time>
      </trkpt>
      <trkpt lat="43.17912" lon="6.60296">
        <ele>11.19</ele>
        <time>2016-04-30T15:13:43Z</time>
      </trkpt>
      <trkpt lat="43.17924" lon="6.60297">
        <ele>12.63</ele>
        <time>2016-04-30T15:13:55Z</time>
      </trkpt>
      <trkpt lat="43.17938" lon="6.60291">
        <ele>12.15</ele>
        <time>2016-04-30T15:14:09Z</time>
      </trkpt>
      <trkpt lat="43.17954" lon="6.60289">
        <ele>12.15</ele>
        <time>2016-04-30T15:14:23Z</time>
      </trkpt>
      <trkpt lat="43.17974" lon="6.60287">
        <ele>12.15</ele>
        <time>2016-04-30T15:14:37Z</time>
      </trkpt>
      <trkpt lat="43.17979" lon="6.60287">
        <ele>10.71</ele>
        <time>2016-04-30T15:14:43Z</time>
      </trkpt>
      <trkpt lat="43.17992" lon="6.60285">
        <ele>9.27</ele>
        <time>2016-04-30T15:14:57Z</time>
      </trkpt>
      <trkpt lat="43.17997" lon="6.60286">
        <ele>8.79</ele>
        <time>2016-04-30T15:15:00Z</time>
      </trkpt>
      <trkpt lat="43.18011" lon="6.60296">
        <ele>7.83</ele>
        <time>2016-04-30T15:15:13Z</time>
      </trkpt>
      <trkpt lat="43.18012" lon="6.60298">
        <ele>8.31</ele>
        <time>2016-04-30T15:15:14Z</time>
      </trkpt>
      <trkpt lat="43.18013" lon="6.603">
        <ele>7.83</ele>
        <time>2016-04-30T15:15:16Z</time>
      </trkpt>
      <trkpt lat="43.18018" lon="6.60303">
        <ele>5.91</ele>
        <time>2016-04-30T15:15:21Z</time>
      </trkpt>
      <trkpt lat="43.1803" lon="6.60306">
        <ele>3.5</ele>
        <time>2016-04-30T15:15:29Z</time>
      </trkpt>
      <trkpt lat="43.18033" lon="6.60306">
        <ele>4.94</ele>
        <time>2016-04-30T15:15:32Z</time>
      </trkpt>
      <trkpt lat="43.18046" lon="6.60313">
        <ele>3.5</ele>
        <time>2016-04-30T15:15:45Z</time>
      </trkpt>
      <trkpt lat="43.1805" lon="6.60315">
        <ele>2.54</ele>
        <time>2016-04-30T15:15:49Z</time>
      </trkpt>
      <trkpt lat="43.18054" lon="6.60311">
        <ele>0.62</ele>
        <time>2016-04-30T15:15:52Z</time>
      </trkpt>
      <trkpt lat="43.18055" lon="6.60307">
        <ele>-1.3</ele>
        <time>2016-04-30T15:15:54Z</time>
      </trkpt>
      <trkpt lat="43.18056" lon="6.60305">
        <ele>-0.34</ele>
        <time>2016-04-30T15:15:56Z</time>
      </trkpt>
      <trkpt lat="43.18067" lon="6.60295">
        <ele>-1.3</ele>
        <time>2016-04-30T15:16:10Z</time>
      </trkpt>
      <trkpt lat="43.18072" lon="6.60295">
        <ele>0.62</ele>
        <time>2016-04-30T15:16:21Z</time>
      </trkpt>
      <trkpt lat="43.18077" lon="6.60293">
        <ele>2.06</ele>
        <time>2016-04-30T15:16:27Z</time>
      </trkpt>
      <trkpt lat="43.18085" lon="6.60287">
        <ele>2.54</ele>
        <time>2016-04-30T15:16:32Z</time>
      </trkpt>
      <trkpt lat="43.18102" lon="6.60278">
        <ele>1.58</ele>
        <time>2016-04-30T15:16:47Z</time>
      </trkpt>
      <trkpt lat="43.18103" lon="6.60278">
        <ele>1.58</ele>
        <time>2016-04-30T15:16:48Z</time>
      </trkpt>
      <trkpt lat="43.18108" lon="6.60277">
        <ele>1.58</ele>
        <time>2016-04-30T15:16:51Z</time>
      </trkpt>
      <trkpt lat="43.18123" lon="6.60264">
        <ele>2.06</ele>
        <time>2016-04-30T15:17:05Z</time>
      </trkpt>
      <trkpt lat="43.18139" lon="6.60256">
        <ele>0.62</ele>
        <time>2016-04-30T15:17:19Z</time>
      </trkpt>
      <trkpt lat="43.18147" lon="6.60249">
        <ele>1.58</ele>
        <time>2016-04-30T15:17:27Z</time>
      </trkpt>
      <trkpt lat="43.18158" lon="6.60241">
        <ele>1.1</ele>
        <time>2016-04-30T15:17:41Z</time>
      </trkpt>
      <trkpt lat="43.18159" lon="6.60241">
        <ele>0.62</ele>
        <time>2016-04-30T15:17:42Z</time>
      </trkpt>
      <trkpt lat="43.18171" lon="6.6025">
        <ele>0.62</ele>
        <time>2016-04-30T15:17:56Z</time>
      </trkpt>
      <trkpt lat="43.18181" lon="6.6025">
        <ele>0.14</ele>
        <time>2016-04-30T15:18:05Z</time>
      </trkpt>
      <trkpt lat="43.18189" lon="6.60238">
        <ele>-0.34</ele>
        <time>2016-04-30T15:18:15Z</time>
      </trkpt>
      <trkpt lat="43.18191" lon="6.60236">
        <ele>0.14</ele>
        <time>2016-04-30T15:18:17Z</time>
      </trkpt>
      <trkpt lat="43.18198" lon="6.6022">
        <ele>0.14</ele>
        <time>2016-04-30T15:18:29Z</time>
      </trkpt>
      <trkpt lat="43.18205" lon="6.60221">
        <ele>-0.34</ele>
        <time>2016-04-30T15:18:36Z</time>
      </trkpt>
      <trkpt lat="43.18212" lon="6.60216">
        <ele>-1.79</ele>
        <time>2016-04-30T15:18:40Z</time>
      </trkpt>
      <trkpt lat="43.18226" lon="6.60209">
        <ele>-3.71</ele>
        <time>2016-04-30T15:18:52Z</time>
      </trkpt>
      <trkpt lat="43.18224" lon="6.60202">
        <ele>-4.19</ele>
        <time>2016-04-30T15:19:04Z</time>
      </trkpt>
      <trkpt lat="43.18224" lon="6.60202">
        <ele>-4.19</ele>
        <time>2016-04-30T15:19:22Z</time>
      </trkpt>
      <trkpt lat="43.18224" lon="6.60202">
        <ele>-4.19</ele>
        <time>2016-04-30T15:19:38Z</time>
      </trkpt>
      <trkpt lat="43.18221" lon="6.60199">
        <ele>-3.23</ele>
        <time>2016-04-30T15:19:51Z</time>
      </trkpt>
      <trkpt lat="43.18223" lon="6.60198">
        <ele>-3.23</ele>
        <time>2016-04-30T15:20:04Z</time>
      </trkpt>
      <trkpt lat="43.18227" lon="6.60198">
        <ele>-3.23</ele>
        <time>2016-04-30T15:20:18Z</time>
      </trkpt>
      <trkpt lat="43.18229" lon="6.60199">
        <ele>-2.75</ele>
        <time>2016-04-30T15:20:28Z</time>
      </trkpt>
      <trkpt lat="43.1823" lon="6.60194">
        <ele>-3.71</ele>
        <time>2016-04-30T15:20:41Z</time>
      </trkpt>
      <trkpt lat="43.1823" lon="6.60194">
        <ele>-2.75</ele>
        <time>2016-04-30T15:20:58Z</time>
      </trkpt>
      <trkpt lat="43.18234" lon="6.6019">
        <ele>-2.75</ele>
        <time>2016-04-30T15:21:16Z</time>
      </trkpt>
      <trkpt lat="43.18248" lon="6.60176">
        <ele>-1.79</ele>
        <time>2016-04-30T15:21:32Z</time>
      </trkpt>
      <trkpt lat="43.18251" lon="6.60171">
        <ele>-1.79</ele>
        <time>2016-04-30T15:21:38Z</time>
      </trkpt>
      <trkpt lat="43.18252" lon="6.60169">
        <ele>-1.79</ele>
        <time>2016-04-30T15:21:40Z</time>
      </trkpt>
      <trkpt lat="43.18254" lon="6.60163">
        <ele>-2.75</ele>
        <time>2016-04-30T15:21:55Z</time>
      </trkpt>
      <trkpt lat="43.18255" lon="6.60162">
        <ele>-1.79</ele>
        <time>2016-04-30T15:21:57Z</time>
      </trkpt>
      <trkpt lat="43.18258" lon="6.60156">
        <ele>-1.79</ele>
        <time>2016-04-30T15:22:02Z</time>
      </trkpt>
      <trkpt lat="43.1826" lon="6.60148">
        <ele>-2.27</ele>
        <time>2016-04-30T15:22:08Z</time>
      </trkpt>
      <trkpt lat="43.18266" lon="6.60139">
        <ele>-1.3</ele>
        <time>2016-04-30T15:22:17Z</time>
      </trkpt>
      <trkpt lat="43.18273" lon="6.60131">
        <ele>-1.3</ele>
        <time>2016-04-30T15:22:25Z</time>
      </trkpt>
      <trkpt lat="43.18272" lon="6.60123">
        <ele>-1.3</ele>
        <time>2016-04-30T15:22:31Z</time>
      </trkpt>
      <trkpt lat="43.18274" lon="6.60122">
        <ele>-1.79</ele>
        <time>2016-04-30T15:22:33Z</time>
      </trkpt>
      <trkpt lat="43.18281" lon="6.60113">
        <ele>-1.3</ele>
        <time>2016-04-30T15:22:42Z</time>
      </trkpt>
      <trkpt lat="43.18288" lon="6.60107">
        <ele>-0.82</ele>
        <time>2016-04-30T15:22:50Z</time>
      </trkpt>
      <trkpt lat="43.18303" lon="6.6009">
        <ele>-0.34</ele>
        <time>2016-04-30T15:23:06Z</time>
      </trkpt>
      <trkpt lat="43.18311" lon="6.60087">
        <ele>-0.34</ele>
        <time>2016-04-30T15:23:17Z</time>
      </trkpt>
      <trkpt lat="43.18325" lon="6.60076">
        <ele>0.14</ele>
        <time>2016-04-30T15:23:32Z</time>
      </trkpt>
      <trkpt lat="43.18327" lon="6.60075">
        <ele>0.14</ele>
        <time>2016-04-30T15:23:34Z</time>
      </trkpt>
      <trkpt lat="43.18329" lon="6.60075">
        <ele>1.58</ele>
        <time>2016-04-30T15:23:38Z</time>
      </trkpt>
      <trkpt lat="43.1833" lon="6.60076">
        <ele>1.1</ele>
        <time>2016-04-30T15:23:40Z</time>
      </trkpt>
      <trkpt lat="43.18331" lon="6.60075">
        <ele>0.62</ele>
        <time>2016-04-30T15:23:42Z</time>
      </trkpt>
      <trkpt lat="43.18349" lon="6.60071">
        <ele>2.06</ele>
        <time>2016-04-30T15:23:59Z</time>
      </trkpt>
      <trkpt lat="43.1835" lon="6.60071">
        <ele>2.06</ele>
        <time>2016-04-30T15:24:00Z</time>
      </trkpt>
      <trkpt lat="43.18357" lon="6.60068">
        <ele>2.06</ele>
        <time>2016-04-30T15:24:05Z</time>
      </trkpt>
      <trkpt lat="43.18373" lon="6.60061">
        <ele>2.54</ele>
        <time>2016-04-30T15:24:22Z</time>
      </trkpt>
      <trkpt lat="43.18373" lon="6.60058">
        <ele>3.02</ele>
        <time>2016-04-30T15:24:39Z</time>
      </trkpt>
      <trkpt lat="43.18373" lon="6.60059">
        <ele>3.02</ele>
        <time>2016-04-30T15:24:59Z</time>
      </trkpt>
      <trkpt lat="43.18372" lon="6.60059">
        <ele>3.5</ele>
        <time>2016-04-30T15:25:23Z</time>
      </trkpt>
    </trkseg>
  </trk>
</gpx>